     2.10           OBSERVATION DATA    G (GPS)             RINEX VERSION / TYPE
teqc 2003Nov3 GPS Data Processor 20031211 22:27:51UTC       PGM / RUN BY / DATE
Solaris 2.7|Ultra 2|cc SC5.0|=+-|*Sparc                     COMMENT
2 OBSERVATION DATA                                          COMMENT
ASHTORIN USGS 15 - SEP - 92 13:41                           COMMENT
                                                            COMMENT
boli Boliver_2_1942_USC&GS                                  MARKER NAME
                                                            MARKER NUMBER
CHS USGS                                                    OBSERVER / AGENCY
764 ASHTECH L-XII 7A24                                      REC # / TYPE / VERS
0598 ASH700228A NONE                                        ANT # / TYPE
 -2610743.0000 -3894539.0000  4311433.0000                  APPROX POSITION XYZ
        1.3639        0.0000        0.0000                  ANTENNA: DELTA H/E/N
HI is vertical height to base of antenna                    COMMENT
     1     1                                                WAVELENGTH FACT L1/2
     3    L1    L2    C1                                    # / TYPES OF OBSERV
    30.0000                                                 INTERVAL
                                                            COMMENT
Receiver type modified to reflect codeless receiver         COMMENT
Original receiver designation: ASHTECH LM-XII3              COMMENT
                                                            COMMENT
                                                            COMMENT
  1992     8    27    20     4   30.0000000     GPS         TIME OF FIRST OBS
                                                            END OF HEADER
 92  8 27 20  4 30.0000000  0  2G20G25
  -4881720.14018     51888.18032  20702132.632
   -307305.12615     52345.16331  24039205.284
 92  8 27 20  5  0.0000000  0  5G20G 3G24G25G16
  -4851694.385 8     75287.42022  20707845.297
   -800544.29817   -119359.89934  22229638.851
  -4134112.95416    189820.54933  23276571.255
   -276640.753 5     76239.48822  24045038.466
 -20780557.91817    -30854.78635  21705054.903
 92  8 27 20  5 30.0000000  0  5G20G 3G24G25G16
  -4820603.568 8     99511.52725  20713766.858
   -858349.254 7   -164402.71725  22218639.586
  -4043817.329 6    260180.74825  23293754.909
   -244980.051 5    100910.09824  24051063.605
 -20794155.621 7    -41450.37226  21702469.343
 92  8 27 20  6  0.0000000  0  5G20G 3G24G25G16
  -4787987.265 8    124926.78227  20719971.692
   -915068.542 7   -208599.56225  22207844.659
  -3952449.765 6    331376.15925  23311136.096
   -211874.483 5    126706.51825  24057364.103
 -20806220.511 7    -50851.56026  21700169.725
 92  8 27 20  6 30.0000000  0  5G20G 3G24G25G16
  -4753602.402 8    151720.18328  20726514.782
   -970457.677 7   -251759.88925  22197306.415
  -3859772.298 6    403592.34625  23328775.555
   -177092.411 5    153809.35425  24063976.985
 -20816509.423 7    -58868.85026  21698216.907
 92  8 27 20  7  0.0000000  0  5G20G 3G24G25G16
  -4717299.704 7    180007.94729  20733423.230
  -1024366.221 7   -293766.55926  22187044.519
  -3765643.854 6    476939.14125  23346690.522
   -140482.132 5    182336.72525  24070947.070
 -20824878.091 7    -65389.87327  21696623.060
 92  8 27 20  7 30.0000000  0  5G20G 3G24G25G16
  -4679036.333 7    209823.53829  20740702.580
  -1076750.366 7   -334585.35126  22177075.100
  -3670023.424 6    551448.52625  23364884.597
   -101989.234 5    212331.12525  24078269.531
 -20831274.802 7    -70374.26427  21695405.753
 92  8 27 20  8  0.0000000  0  5G20G 3G24G25G16
  -4638861.710 7    241128.41229  20748349.207
  -1127658.085 7   -374253.67826  22167388.926
  -3572968.575 6    627075.62525  23383356.789
    -61663.357 5    243753.80425  24085947.006
 -20835755.446 7    -73865.63927  21694552.724
 92  8 27 20  8 30.0000000  0  5G20G 3G24G25G16
  -4596870.818 8    273848.55029  20756338.946
  -1177183.492 7   -412844.91326  22157965.010
  -3474579.433 6    703742.40325  23402072.682
    -19586.111 5    276541.11925  24093954.402
 -20838430.181 7    -75949.81527  21694046.704
 92  8 27 20  9  0.0000000  0  5G20G 3G24G25G16
  -4553129.155 8    307932.91929  20764663.493
  -1225390.576 7   -450408.86126  22148791.031
  -3374924.621 6    781395.44125  23421043.219
     24174.097 5    310639.89525  24102285.425
 -20839367.334 7    -76680.02727  21693867.278
 92  8 27 20  9 30.0000000  0  5G20G 3G24G25G16
  -4507718.572 7    343317.75029  20773305.070
  -1272359.795 7   -487008.23026  22139856.766
  -3274091.503 6    859966.63925  23440230.386
     69521.560 5    345975.44125  24110921.187
 -20838641.041 7    -76114.03827  21694003.084
 92  8 27 20 10  0.0000000  0  5G20G 3G24G25G16
  -4460718.611 7    379941.06829  20782247.519
  -1318169.452 7   -522704.05726  22131137.722
  -3172167.266 6    939388.09025  23459623.271
    116357.932 5    382471.28725  24119829.609
 -20836333.122 7    -74315.60827  21694443.509
 92  8 27 20 10 30.0000000  0  6G20G 3G24G25G16G17
  -4412202.338 7    417745.93829  20791480.048
  -1362891.516 7   -557552.38026  22122625.625
  -3069227.908 6   1019600.52225  23479213.179
    164608.883 5    420069.32225  24129010.454
 -20832499.552 7    -71328.36827  21695171.525
   -240658.63716   -189681.10433  23239852.795
 92  8 27 20 11  0.0000000  0  6G20G 3G24G25G16G17
  -4362245.733 8    456673.13229  20800986.107
  -1406600.075 7   -591611.00426  22114307.733
  -2965350.478 6   1100543.91925  23498980.594
    214177.900 5    458694.43025  24138440.485
 -20827193.935 7    -67194.10327  21696180.597
   -319535.517 6   -251143.52225  23224840.118
 92  8 27 20 11 30.0000000  0  6G20G 3G24G25G16G17
  -4310930.158 7    496659.26329  20810752.596
  -1449375.525 7   -624942.51526  22106168.278
  -2860602.214 6   1182165.87025  23518912.805
    264989.167 5    498287.53025  24148112.989
 -20820487.083 7    -61967.93727  21697456.543
   -397406.304 6   -311821.95025  23210027.552
 92  8 27 20 12  0.0000000  0  6G20G 3G24G25G16G17
  -4258267.883 7    537694.76029  20820775.737
  -1491228.541 7   -657555.22126  22098205.521
  -2754986.368 6   1264463.86825  23539009.453
    317031.259 5    538839.69625  24158012.346
 -20812399.124 7    -55665.61227  21698997.357
   -474276.976 6   -371721.09125  23195397.171
 92  8 27 20 12 30.0000000  0  6G20G 3G24G25G16G17
  -4204301.525 7    579746.44129  20831045.128
  -1532200.085 7   -689481.06226  22090409.538
  -2648531.990 6   1347415.31725  23559267.628
    370267.633 5    580322.55025  24168142.243
 -20802971.328 7    -48319.23227  21700791.375
   -550196.478 6   -430879.02725  23180951.671
 92  8 27 20 13  0.0000000  0  6G20G 3G24G25G16G17
  -4149065.899 8    622787.15229  20841554.082
  -1572323.670 7   -720746.16026  22082775.653
  -2541268.259 6   1430997.40325  23579679.927
    424668.710 5    622712.83125  24178495.306
 -20792254.229 7    -39968.23528  21702832.272
   -625208.096 6   -489329.54725  23166673.306
 92  8 27 20 13 30.0000000  0  6G20G 3G24G25G16G17
  -4092599.022 7    666787.28929  20852297.025
  -1611635.432 7   -751378.68126  22075295.621
  -2433244.053 6   1515172.05625  23600236.366
    480217.584 5    665997.60625  24189070.095
 -20780312.008 7    -30662.58427  21705103.410
   -699340.085 6   -547094.63725  23152565.612
 92  8 27 20 14  0.0000000  0  6G20G 3G24G25G16G17
  -4034936.407 7    711719.13929  20863272.097
  -1650169.620 7   -781405.28726  22067959.699
  -2324516.535 6   1599894.73125  23620927.652
    536873.556 5    710144.99025  24199848.354
 -20767176.773 7    -20427.31728  21707603.439
   -772601.582 6   -604181.41225  23138625.533
 92  8 27 20 14 30.0000000  0  6G20G 3G24G25G16G17
  -3976114.843 8    757554.10129  20874463.769
  -1687961.663 7   -810853.60026  22060765.850
  -2215141.727 6   1685121.85925  23641738.675
    594611.520 5    755135.50625  24210831.580
 -20752865.571 7     -9275.70027  21710328.882
   -845020.987 6   -660612.03525  23124848.061
 92  8 27 20 15  0.0000000  0  6G20G 3G24G25G16G17
  -3916157.180 8    804274.31629  20885873.780
  -1725032.724 7   -839740.12326  22053710.774
  -2105160.288 6   1770821.62725  23662670.454
    653412.571 5    800954.44025  24222026.040
 -20737390.091 7      2783.13927  21713272.424
   -916610.420 6   -716395.88725  23111226.601
 92  8 27 20 15 30.0000000  0  6G20G 3G24G25G16G17
  -3855083.758 8    851863.96729  20897497.424
  -1761401.324 7   -868079.27026  22046792.823
  -1994592.380 6   1856978.38325  23683710.159
    713237.030 5    847570.83425  24233404.873
 -20720747.134 7     15751.69627  21716440.151
   -987386.422 6   -771545.85825  23097754.737
 92  8 27 20 16  0.0000000  0  6G20G 3G24G25G16G17
  -3792924.342 8    900299.83929  20909327.444
  -1797095.426 7   -895892.82826  22040001.115
  -1883453.783 6   1943579.80925  23704862.615
    774042.542 5    894951.61825  24244978.750
 -20702942.214 7     29625.66428  21719828.316
  -1057394.472 6   -826097.50825  23084433.759
 92  8 27 20 16 30.0000000  0  6G20G 3G24G25G16G17
  -3729691.898 8    949571.83929  20921358.115
  -1832126.485 7   -923189.70627  22033331.602
  -1771742.533 6   2030627.48825  23726119.429
    835818.393 5    943088.55025  24256735.561
 -20683991.975 7     44392.11228  21723431.941
  -1126678.715 6   -880085.11125  23071246.848
 92  8 27 20 17  0.0000000  0  6G20G 3G24G25G16G17
  -3665408.942 8    999662.42329  20933589.558
  -1866515.393 7   -949986.21827  22026789.471
  -1659450.942 6   2118127.39625  23747484.738
    898524.987 5    991950.76425  24268671.858
 -20663940.343 7     60016.75928  21727249.648
  -1195256.972 6   -933522.59625  23058198.831
 92  8 27 20 17 30.0000000  0  6G20G 3G24G25G16G17
  -3600094.573 8   1050556.69629  20946018.563
  -1900279.158 7   -976295.61427  22020362.550
  -1546596.055 6   2206066.21725  23768959.142
    962131.186 5   1041513.93225  24280773.101
 -20642822.262 7     76472.41028  21731270.614
  -1263151.076 6   -986426.97325  23045276.457
 92  8 27 20 18  0.0010000  0  6G20G 3G24G25G16G17
  -3533782.646 8   1102228.29829  20958638.087
  -1933453.447 7  -1002145.69427  22014053.568
  -1433214.702 6   2294415.27425  23790540.422
   1026615.938 5   1091761.70625  24293040.128
 -20620690.980 7     93717.57628  21735477.962
  -1330397.856 6  -1038826.94226  23032483.983
 92  8 27 20 18 30.0010000  0  6G20G 3G24G25G16G17
  -3466477.201 8   1154674.05829  20971445.760
  -1966033.585 7  -1027532.77427  22007852.211
  -1319316.670 6   2383166.92525  23812210.380
   1091969.991 5   1142686.87725  24305482.505
 -20597560.376 7    111741.41728  21739879.545
  -1396969.642 6  -1090700.94726  23019811.126
 92  8 27 20 19  0.0010000  0  6G20G 3G24G25G16G17
  -3398194.338 7   1207881.44729  20984438.705
  -1998037.220 7  -1052470.66527  22001760.968
  -1204919.344 6   2472307.62625  23833977.830
   1158171.481 5   1194272.38225  24318080.863
 -20573450.194 7    130528.59528  21744466.939
  -1462868.035 6  -1142050.23226  23007270.388
 92  8 27 20 19 30.0010000  0  6G20G 3G24G25G16G17
  -3328957.695 7   1261832.03829  20997615.603
  -2029486.103 7  -1076976.23127  21995775.462
  -1090067.772 5   2561802.32225  23855829.793
   1225210.128 5   1246510.19925  24330835.023
 -20548365.948 7    150074.75928  21749241.014
  -1528129.737 6  -1192903.38926  22994852.205
 92  8 27 20 20  0.0010000  0  6G20G 3G24G25G16G17
  -3258798.012 7   1316501.88329  21010965.811
  -2060409.097 7  -1101072.05627  21989893.893
   -974781.858 5   2651635.42525  23877775.410
   1293071.367 5   1299388.95725  24343745.975
 -20522328.852 7    170363.41128  21754195.744
  -1592784.198 6  -1243283.35626  22982555.048
 92  8 27 20 20 30.0010000  0  6G20G 3G24G25G16G17
  -3187712.013 7   1371893.53129  21024493.316
  -2090801.225 7  -1124754.21827  21984111.256
   -859059.255 5   2741808.83925  23899794.567
   1361754.555 5   1352908.20825  24356817.046
 -20495325.299 7    191405.13027  21759334.996
  -1656825.780 6  -1293185.78326  22970361.560
 92  8 27 20 21  0.0010000  0  6G20G 3G24G25G16G17
  -3115703.774 7   1428003.79929  21038196.680
  -2120664.132 7  -1148023.98227  21978427.551
   -742906.515 5   2832317.39125  23921901.502
   1431261.937 5   1407069.71925  24370045.179
 -20467352.469 7    213202.14528  21764657.901
  -1720271.717 6  -1342624.08026  22958285.440
 92  8 27 20 21 30.0010000  0  6G20G 3G24G25G16G17
  -3042794.801 7   1484815.94529  21052071.224
  -2150017.476 7  -1170896.69527  21972840.109
   -626348.416 5   2923141.82425  23944075.741
   1501571.095 5   1461856.02525  24383423.417
 -20438427.919 7    235740.75927  21770162.180
  -1783135.942 6  -1391609.06526  22946322.611
 92  8 27 20 22  0.0010000  0  6G20G 3G24G25G16G17
  -2968995.107 7   1542322.14829  21066115.422
  -2178869.212 7  -1193378.54327  21967347.941
   -509398.371 5   3014271.66825  23966334.792
   1572656.117 5   1517246.78625  24396950.802
 -20408570.086 7    259006.63027  21775841.778
  -1845410.982 6  -1440134.98126  22934476.582
 92  8 27 20 22 30.0010000  0  6G20G 3G24G25G16G17
  -2894314.942 7   1600514.43629  21080324.535
  -2207227.301 7  -1215475.71227  21961954.345
   -392071.746 5   3105694.91425  23988661.235
   1644492.779 5   1573223.38625  24410624.067
 -20377782.725 7    282996.78727  21781702.031
  -1907104.827 6  -1488208.00226  22922735.960
 92  8 27 20 23  0.0010000  0  6G20G 3G24G25G16G17
  -2818765.794 7   1659383.85129  21094701.562
  -2235101.882 7  -1237196.14227  21956649.788
   -274378.241 5   3197404.11125  24011057.920
   1717065.870 5   1629773.78225  24424437.004
 -20346080.692 7    307699.68127  21787736.464
  -1968220.889 6  -1535830.78126  22911104.043
 92  8 27 20 23 30.0010000  0  6G20G 3G24G25G16G17
  -2742353.879 7   1718925.54229  21109239.368
  -2262496.675 7  -1258542.71427  21951438.585
   -156321.101 5   3289396.61825  24033520.860
   1790362.094 5   1686887.59425  24438383.949
 -20313467.733 7    333112.35627  21793942.887
  -2028754.354 6  -1582999.63726  22899590.783
 92  8 27 20 24  0.0010000  0  6G20G 3G24G25G16G17
  -2665085.126 7   1779134.90829  21123946.706
  -2289415.234 7  -1279518.17127  21946316.631
    -37897.058 5   3381675.02225  24056054.790
   1864380.537 5   1744564.22925  24452465.920
 -20279945.688 7    359233.45727  21800320.372
  -2088722.827 6  -1629728.18326  22888176.215
 92  8 27 20 24 30.0010000  0  6G20G 3G24G25G16G17
  -2586976.155 7   1839999.01229  21138810.176
  -2315872.516 7  -1300134.20527  21941279.848
     80889.433 5   3474235.85525  24078660.610
   1939119.631 5   1802802.41425  24466680.130
 -20245521.799 7    386057.26727  21806872.966
  -2148140.355 6  -1676027.46526  22876867.474
 92  8 27 20 25  0.0010000  0  6G20G 3G24G25G16G17
  -2508030.529 7   1901515.03629  21153834.695
  -2341869.575 7  -1320391.61027  21936332.583
    200036.932 5   3567078.01025  24101337.541
   2014581.400 5   1861603.68125  24481043.606
 -20210209.308 7    413573.50127  21813593.414
  -2207008.626 6  -1721898.73126  22865666.778
 92  8 27 20 25 30.0010000  0  6G20G 3G24G25G16G17
  -2428276.015 7   1963661.35729  21169010.159
  -2367432.084 7  -1340310.42927  21931468.990
    319514.849 5   3660177.58125  24124073.382
   2090750.023 5   1920955.75925  24495539.861
 -20174030.442 7    441764.83627  21820477.038
  -2265366.413 6  -1767372.22826  22854558.718
 92  8 27 20 26  0.0010000  0  6G20G 3G24G25G16G17
  -2347719.112 7   2026432.91129  21184340.077
  -2392564.325 7  -1359893.96827  21926684.692
    439305.683 5   3753521.03025  24146863.274
   2167633.803 5   1980865.06225  24510169.073
 -20136990.455 7    470627.16527  21827522.251
  -2323222.297 6  -1812454.63626  22843551.598
 92  8 27 20 26 30.0010000  0  6G20G 3G24G25G16G17
  -2266355.692 7   2089832.93329  21199823.787
  -2417259.948 7  -1379137.27527  21921987.844
    559406.175 5   3847105.76625  24169718.072
   2245236.015 5   2041334.23125  24524944.494
 -20099081.252 7    500166.80727  21834739.514
  -2380566.538 6  -1857138.36326  22832640.712
 92  8 27 20 27  0.0010000  0  6G20G 3G24G25G16G17
  -2184194.431 7   2153854.63229  21215458.384
  -2441525.115 7  -1398045.16527  21917365.883
    679797.416 5   3940917.04025  24192630.071
   2323533.704 5   2102345.30825  24539841.092
 -20060316.584 7    530373.04327  21842117.437
  -2437413.015 6  -1901434.21726  22821822.281
 92  8 27 20 27 30.0010000  0  6G20G 3G24G25G16G17
  -2101252.674 7   2218484.51329  21231241.917
  -2465374.611 7  -1416629.17027  21912830.083
    800464.489 5   4034943.26125  24215589.946
   2402499.434 5   2163876.93725  24554864.951
 -20020702.536 7    561241.13227  21849653.889
  -2493765.927 6  -1945345.48626  22811099.305
 92  8 27 20 28  0.0010000  0  6G20G 3G24G25G16G17
  -2017547.302 7   2283709.42729  21247168.331
  -2488823.250 7  -1434900.81227  21908367.313
    921393.546 5   4129173.64825  24238604.953
   2482095.212 5   2225899.51225  24570012.085
 -19980265.887 7    592750.20927  21857345.784
  -2549619.517 6  -1988867.64526  22800466.535
 92  8 27 20 28 30.0010000  0  6G20G 3G24G25G16G17
  -1933084.597 7   2349524.47529  21263240.955
  -2511874.776 7  -1452863.00127  21903982.399
   1042587.645 5   4223610.50825  24261672.723
   2562291.618 5   2288390.15825  24585274.039
 -19939022.312 7    624888.06927  21865198.668
  -2604965.825 6  -2031994.54426  22789937.195
 92  8 27 20 29  0.0010000  0  6G20G 3G24G25G16G17
  -1847882.907 7   2415915.34829  21279453.911
  -2534545.421 7  -1470528.42927  21899667.306
   1164036.488 5   4318245.91725  24284778.328
   2643055.277 5   2351322.74425  24600645.747
 -19896999.109 7    657633.40827  21873192.364
  -2659816.303 6  -2074735.07626  22779500.940
 92  8 27 20 29 30.0010000  0  6G20G 3G24G25G16G17
  -1761946.475 7   2482878.74429  21295809.538
  -2556836.876 7  -1487898.36727  21895425.632
   1285744.685 5   4413083.38525  24307937.235
   2724390.229 5   2414700.55525  24616128.799
 -19854202.388 7    690981.48828  21881336.766
  -2714172.450 6  -2117090.43026  22769153.063
 92  8 27 20 30  0.0010000  0  6G20G 3G24G25G16G17
  -1675269.748 7   2550418.97629  21312304.089
  -2578740.954 7  -1504966.46028  21891256.089
   1407710.811 5   4508121.82625  24331148.996
   2806312.717 5   2478536.10125  24631707.064
 -19810628.777 7    724934.93628  21889629.535
  -2768040.567 6  -2159065.49726  22758904.298
 92  8 27 20 30 30.0010000  0  6G20G 3G24G25G16G17
  -1587845.130 7   2618541.99629  21328937.654
  -2600247.470 7  -1521724.75828  21887165.451
   1529943.935 5   4603368.39225  24354410.432
   2888844.613 5   2542846.52625  24647416.519
 -19766252.658 7    759513.73528  21898072.710
  -2821429.116 6  -2200666.85626  22748742.833
 92  8 27 20 31  0.0010000  0  6G20G 3G24G25G16G17
  -1499693.890 7   2687231.21529  21345713.620
  -2621375.428 7  -1538188.06227  21883144.214
   1652415.518 5   4698800.73425  24377713.630
   2971982.427 5   2607629.14325  24663239.984
 -19721082.847 7    794710.97028  21906666.800
  -2874367.795 6  -2241917.68926  22738670.196
 92  8 27 20 31 30.0010000  0  6G20G 3G24G25G16G17
  -1410820.477 7   2756483.16929  21362625.692
  -2642126.581 7  -1554357.77127  21879194.059
   1775102.212 5   4794400.66825  24401064.225
   3055727.952 5   2672885.28125  24679175.362
 -19675118.597 7    830527.26728  21915414.264
  -2926855.559 6  -2282817.16726  22728681.771
 92  8 27 20 32  0.0010000  0  6G20G 3G24G25G16G17
  -1321245.179 7   2826282.06529  21379672.910
  -2662518.563 7  -1570247.57127  21875315.734
   1897978.540 5   4890148.41825  24424444.949
   3140054.783 5   2738594.37425  24695221.634
 -19628375.248 7    866950.63228  21924310.126
  -2978904.240 6  -2323374.47926  22718779.596
 92  8 27 20 32 30.0010000  0  6G20G 3G24G25G16G17
  -1230961.286 7   2896633.08929  21396851.258
  -2682542.229 7  -1585850.40527  21871505.732
   2021058.629 5   4986054.92025  24447863.776
   3224957.888 5   2804752.52625  24711379.428
 -19580841.802 7    903989.65927  21933355.824
  -3030500.195 6  -2363579.02926  22708959.265
 92  8 27 20 33  0.0010000  0  6G20G 3G24G25G16G17
  -1139973.394 7   2967532.67429  21414167.181
  -2702199.500 7  -1601167.75727  21867762.913
   2144343.050 5   5082120.60725  24471325.654
   3310419.856 5   2871346.14225  24727636.214
 -19532535.499 7    941630.90928  21942545.932
  -3081642.464 6  -2403430.06626  22699227.402
 92  8 27 20 33 30.0010000  0  6G20G 3G24G25G16G17
  -1048305.946 7   3038961.80729  21431609.016
  -2721512.286 7  -1616216.65127  21864088.417
   2267830.564 5   5178344.60825  24494823.417
   3396399.986 5   2938343.53025  24744000.565
 -19483485.108 7    979851.95728  21951879.790
  -3132350.745 6  -2442942.91226  22689576.123
 92  8 27 20 34  0.0010000  0  6G20G 3G24G25G16G17
   -955966.405 7   3110914.63429  21449182.070
  -2740485.513 7  -1631000.96727  21860478.376
   2391541.238 5   5274742.48125  24518372.354
   3482894.067 5   3005741.38125  24760461.209
 -19433696.658 7   1018648.12528  21961353.741
  -3182634.237 6  -2482124.76826  22680005.189
 92  8 27 20 34 30.0010000  0  6G20G 3G24G25G16G17
   -862952.650 7   3183392.84029  21466882.387
  -2759114.346 7  -1645516.89727  21856933.930
   2515483.238 5   5371320.57325  24541949.322
   3569907.723 5   3073544.09425  24777025.462
 -19383163.019 7   1058024.96728  21970971.533
  -3232489.706 6  -2520973.10026  22670524.882
 92  8 27 20 35  0.0010000  0  6G20G 3G24G25G16G17
   -769255.664 7   3256403.39929  21484712.603
  -2777386.947 7  -1659755.26927  21853456.217
   2639669.593 5   5468089.14125  24565580.792
   3657459.204 5   3141765.89925  24793680.552
 -19331882.953 7   1097983.41828  21980730.947
  -3281903.891 6  -2559477.59426  22661120.273
 92  8 27 20 35 30.0010000  0  6G20G 3G24G25G16G17
   -674866.675 7   3329953.17829  21502674.878
  -2795291.782 7  -1673707.06727  21850046.468
   2764094.594 5   5565043.65625  24589262.268
   3745574.276 5   3210426.83825  24810452.981
 -19279832.582 7   1138542.11028  21990635.790
  -3330855.876 6  -2597621.93426  22651801.164
 92  8 27 20 36  0.0010000  0  6G20G 3G24G25G16G17
   -579809.191 7   3404023.87929  21520763.036
  -2812849.362 7  -1687388.26528  21846708.728
   2888704.211 5   5662141.96925  24612971.145
   3834248.822 5   3279523.75525  24827323.861
 -19227022.669 7   1179692.66528  22000685.912
  -3379367.939 6  -2635423.45426  22642565.098
 92  8 27 20 36 30.0010000  0  6G20G 3G24G25G16G17
   -484086.765 7   3478612.72929  21538977.106
  -2830060.686 7  -1700799.65128  21843429.778
   3013479.174 5   5759369.17325  24636717.525
   3923486.547 5   3349059.51825  24844302.847
 -19173445.075 7   1221441.41628  22010881.014
  -3427447.907 6  -2672888.28326  22633422.028
 92  8 27 20 37  0.0010000  0  6G20G 3G24G25G16G17
   -387710.718 7   3553710.88828  21557318.799
  -2846934.345 7  -1713947.94928  21840221.040
   3138405.287 5   5856714.20125  24660491.067
   4013270.010 5   3419020.51825  24861381.963
 -19119118.451 7   1263773.83028  22021217.738
  -3475101.154 6  -2710020.59226  22624355.585
 92  8 27 20 37 30.0010000  0  6G20G 3G24G25G16G17
   -290686.552 7   3629314.06428  21575780.018
  -2863472.485 7  -1726834.77628  21837073.579
   3263470.948 5   5954167.89725  24684285.415
   4103593.281 5   3489402.14125  24878566.097
 -19064042.735 7   1306689.95228  22031698.213
  -3522334.046 6  -2746825.37726  22615365.019
 92  8 27 20 38  0.0010000  0  6G20G 3G24G25G16G17
   -193015.288 7   3705421.49028  21594368.500
  -2879673.516 7  -1739458.92928  21833992.941
   3388698.132 5   6051747.50225  24708118.196
   4194433.152 5   3560186.35525  24895862.173
 -19008231.886 7   1350178.92728  22042320.939
  -3569156.833 6  -2783310.58726  22606456.176
 92  8 27 20 38 30.0010000  0  6G20G 3G24G25G16G17
    -94689.789 7   3782038.69528  21613078.607
  -2895527.069 7  -1751812.35428  21830974.691
   3514117.578 5   6149476.90825  24731977.029
   4285769.158 5   3631357.06925  24913245.219
 -18951688.388 7   1394238.77228  22053080.610
  -3615552.110 6  -2819462.68026  22597626.029
 92  8 27 20 39  0.0010000  0  6G20G 3G24G25G16G17
      4283.499 7   3859160.67528  21631911.959
  -2911037.442 7  -1763898.32128  21828019.756
   3639725.334 5   6247353.05125  24755892.342
   4377572.180 5   3702891.77225  24930711.997
 -18894423.891 7   1438860.44728  22063978.605
  -3661519.255 6  -2855281.17226  22588879.584
 92  8 27 20 39 30.0010000  0  6G20G 3G24G25G16G17
    103892.433 7   3936777.96828  21650866.907
  -2926213.329 7  -1775723.68728  21825135.423
   3765511.345 5   6345368.08425  24779825.614
   4469822.688 5   3774775.10325  24948269.103
 -18836435.429 7   1484046.23928  22075012.797
  -3707071.671 6  -2890776.49326  22580210.725
 92  8 27 20 40  0.0010000  0  6G20G 3G24G25G16G17
    204123.394 7   4014879.94428  21669940.512
  -2941065.553 7  -1787296.81728  21822308.110
   3891458.735 5   6443508.84525  24803795.100
   4562492.037 5   3846984.80625  24965897.229
 -18777727.672 7   1529792.52828  22086184.263
  -3752217.049 6  -2925954.62626  22571621.612
 92  8 27 20 40 30.0010000  0  6G20G 3G24G25G16G17
    304964.867 7   4093457.65228  21689130.407
  -2955602.286 7  -1798624.12328  21819543.844
   4017541.982 5   6541755.49225  24827782.964
   4655574.607 5   3919516.55725  24983618.471
 -18718304.885 7   1576096.00328  22097493.574
  -3796945.195 6  -2960807.64826  22563107.776
 92  8 27 20 41  0.0010000  0  6G20G 3G24G25G16G17
    406429.182 7   4172520.68028  21708440.010
  -2969808.678 7  -1809694.04928  21816842.684
   4143764.226 5   6640110.48625  24851800.866
   4749101.611 5   3992394.57725  25001414.541
 -18658163.578 7   1622959.35928  22108935.512
  -3841244.464 6  -2995326.47826  22554674.554
 92  8 27 20 41 30.0010000  0  6G20G 3G24G25G16G17
    508514.416 7   4252067.56828  21727864.253
  -2983683.147 7  -1820505.31028  21814197.136
   4270124.167 5   6738572.70325  24875848.359
   4843091.753 5   4065633.46725  25019299.200
 -18597326.600 7   1670364.77528  22120511.818
  -3885106.779 6  -3029504.84126  22546332.439
 92  8 27 20 42  0.0010000  0  6G20G 3G24G25G16G17
    611206.248 7   4332087.10928  21747405.115
  -2997237.178 7  -1831066.88328  21811619.430
   4396607.438 5   6837131.08425  24899916.267
   4937542.751 5   4139231.49325  25037268.400
 -18535826.680 7   1718286.80628  22132215.836
  -3928545.854 6  -3063353.41126  22538058.107
 92  8 27 20 42 30.0010000  0  6G20G 3G24G25G16G17
    714477.639 7   4412558.26328  21767056.990
  -3010494.482 7  -1841397.22928  21809096.946
   4523195.754 5   6935771.30425  24924005.340
   5032435.321 5   4213173.58725  25055331.195
 -18473709.258 7   1766689.99828  22144035.273
  -3971584.914 6  -3096890.24927  22529873.773
 92  8 27 20 43  0.0010000  0  6G20G 3G24G25G16G17
    818330.919 7   4493482.82528  21786819.609
  -3023449.890 7  -1851492.36928  21806629.624
   4649896.762 5   7034499.30625  24948111.802
   5127781.239 5   4287468.97725  25073476.194
 -18410962.181 7   1815583.83028  22155974.808
  -4014239.632 6  -3130127.62927  22521756.502
 92  8 27 20 43 30.0010000  0  6G20G 3G24G25G16G17
    922769.260 7   4574863.27628  21806694.709
  -3036096.867 7  -1861347.15728  21804221.691
   4776718.024 5   7133321.02125  24972247.103
   5223571.727 5   4362110.72425  25091708.851
 -18347550.562 7   1864995.49528  22168046.131
  -4056512.549 6  -3163067.51127  22513715.379
 92  8 27 20 44  0.0020000  0  6G20G 3G24G25G16G17
   1027802.311 7   4656707.14528  21826681.063
  -3048427.111 7  -1870955.12728  21801877.854
   4903679.430 5   7232251.93325  24996409.236
   5319802.719 5   4437095.74925  25110007.374
 -18283431.302 7   1914958.58328  22180243.907
  -4098396.138 6  -3195703.99527  22505748.515
 92  8 27 20 44 30.0020000  0  6G20G 3G24G25G16G17
   1133421.887 7   4739008.06328  21846779.329
  -3060437.643 7  -1880313.96728  21799591.307
   5030774.155 5   7331286.75825  25020593.224
   5416467.419 5   4512418.69625  25128412.922
 -18218590.597 7   1965483.83528  22192583.844
  -4139872.692 6  -3228023.32027  22497850.392
 92  8 27 20 45  0.0020000  0  6G20G 3G24G25G16G17
   1239635.054 7   4821771.48828  21866994.725
  -3072121.649 7  -1889418.38328  21797371.164
   5158004.450 5   7430427.17525  25044806.261
   5513582.573 5   4588092.63525  25146885.833
 -18152995.242 7   2016597.10628  22205065.163
  -4180938.089 6  -3260022.26427  22490038.970
 92  8 27 20 45 30.0020000  0  6G20G 3G24G25G16G17
   1346436.893 7   4904993.61728  21887315.467
  -3083481.006 7  -1898269.81628  21795209.570
   5285365.735 5   7529669.67025  25069045.621
   5611139.741 5   4664111.02625  25165455.008
 -18086663.091 7   2068284.51128  22217689.813
  -4221579.861 6  -3291691.12427  22482302.496
 92  8 27 20 46  0.0020000  0  6G20G 3G24G25G16G17
   1453824.711 7   4988672.36428  21907750.430
  -3094515.126 7  -1906867.82728  21793105.597
   5412852.019 5   7629009.61425  25093297.182
   5709144.880 5   4740478.49725  25184100.630
 -18019625.407 7   2120521.67928  22230445.353
  -4261789.239 6  -3323023.04427  22474646.936
 92  8 27 20 46 30.0020000  0  6G20G 3G24G25G16G17
   1561793.269 7   5072803.61928  21928297.575
  -3105226.305 7  -1915214.20928  21791070.666
   5540445.166 5   7728432.82325  25117587.326
   5807597.912 5   4817194.92025  25202829.564
 -17951905.837 7   2173290.20728  22243332.591
  -4301581.365 6  -3354029.81627  22467079.125
 92  8 27 20 47  0.0020000  0  5G20G 3G24G16G17
   1670330.487 7   5157378.00028  21948951.027
  -3115623.041 7  -1923315.54328  21789094.644
   5668139.095 5   7827934.49925  25141879.149
 -17883534.832 7   2226566.33128  22256341.395
  -4340975.388 6  -3384726.38827  22459580.086
 92  8 27 20 47 30.0020000  0  5G20G 3G24G16G17
   1779427.936 7   5242388.91728  21969713.544
  -3125710.338 7  -1931175.75628  21787172.764
   5795936.195 5   7927516.61725  25166209.406
 -17814539.352 7   2280329.05928  22269471.915
  -4379977.919 6  -3415117.89827  22452159.773
 92  8 27 20 48  0.0020000  0  5G20G 3G24G16G17
   1889069.421 7   5327823.74428  21990575.531
  -3135501.149 7  -1938804.96928  21785311.952
   5923818.580 5   8027165.20525  25190542.031
 -17744932.354 7   2334568.27228  22282721.123
  -4418604.213 6  -3445216.23827  22444810.181
 92  8 27 20 48 30.0020000  0  5G20G 3G24G16G17
   1999263.705 7   5413689.35128  22011543.196
  -3144983.509 7  -1946193.81228  21783503.454
   6051803.791 5   8126893.94525  25214889.106
 -17674683.508 7   2389307.64328  22296083.922
  -4456846.202 6  -3475015.14327  22437530.411
 92  8 27 20 49  0.0020000  0  5G20G 3G24G16G17
   2110001.823 7   5499978.70128  22032623.672
  -3154162.839 7  -1953346.53428  21781757.463
   6179891.231 5   8226702.28425  25239269.307
 -17603791.479 7   2444548.18728  22309578.060
  -4494702.372 6  -3504513.37227  22430331.285
 92  8 27 20 49 30.0020000  0  5G20G 3G24G16G17
   2221266.138 7   5586678.09528  22053791.268
  -3163053.683 7  -1960274.45128  21780065.824
   6308051.098 5   8326567.04325  25263655.595
 -17532266.786 7   2500281.69528  22323186.869
  -4532188.067 6  -3533722.95127  22423192.717
 92  8 27 20 50  0.0020000  0  5G20G 3G24G16G17
   2333067.220 7   5673795.75528  22075064.961
  -3171641.903 7  -1966966.56428  21778431.476
   6436292.458 5   8426495.36325  25288061.759
 -17460096.670 7   2556518.16128  22336920.632
  -4569288.613 6  -3562632.38327  22416134.103
 92  8 27 20 50 30.0020000  0  5G20G 3G24G16G17
   2445390.607 7   5761320.37628  22096441.752
  -3179938.559 7  -1973431.50528  21776854.927
   6564605.532 5   8526479.56725  25312477.427
 -17387300.867 7   2613242.15328  22350771.403
  -4606015.952 6  -3591251.01627  22409143.423
 92  8 27 20 51  0.0020000  0  5G20G 3G24G16G17
   2558230.320 7   5849247.36128  22117911.538
  -3187945.905 7  -1979670.97728  21775329.673
   6692992.145 5   8626521.00725  25336897.471
 -17313906.662 7   2670432.43328  22364740.952
  -4642369.656 6  -3619578.52527  22402229.699
 92  8 27 20 51 30.0020000  0  5G20G 3G24G16G17
   2671570.944 7   5937564.66328  22139481.576
  -3195676.260 7  -1985694.64028  21773858.501
   6821446.181 5   8726615.08725  25361351.482
 -17239940.749 7   2728068.18528  22378814.769
  -4678361.890 6  -3647624.37227  22395377.673
 92  8 27 20 52  0.0020000  0  5G20G 3G24G16G17
   2785406.664 7   6026267.74528  22161145.388
  -3203131.733 7  -1991504.07628  21772441.203
   6949969.292 5   8826763.00025  25385803.214
 -17165391.441 7   2786158.55228  22393000.229
  -4713991.269 6  -3675387.46927  22388599.305
 92  8 27 20 52 30.0020000  0  5G20G 3G24G16G17
   2899737.976 7   6115356.98528  22182899.678
  -3210307.766 7  -1997095.78228  21771075.678
   7078555.212 5   8926959.67324  25410284.146
 -17090240.209 7   2844717.93327  22407300.419
  -4749261.986 7  -3702871.08427  22381885.153
 92  8 27 20 53  0.0020000  0  4G20G 3G16G17
   3014586.714 7   6204849.43928  22204754.728
  -3217179.456 7  -2002450.32528  21769765.675
 -17014446.973 7   2903777.61027  22421722.984
  -4784155.710 6  -3730060.91827  22375248.198
 92  8 27 20 53 30.0020000  0  4G20G 3G16G17
   3129945.459 7   6294739.29028  22226703.164
  -3223750.995 7  -2007570.99228  21768513.921
 -16937996.428 7   2963349.41827  22436270.503
  -4818678.924 6  -3756962.06127  22368677.467
 92  8 27 20 54  0.0020000  0  4G20G 3G16G17
   3245798.754 7   6385014.50928  22248753.319
  -3230033.798 7  -2012466.67028  21767319.788
 -16860899.271 7   3023425.10427  22450941.746
  -4852848.548 7  -3783587.68327  22362176.198
 92  8 27 20 54 30.0020000  0  4G20G 3G16G17
   3362159.265 7   6475684.96028  22270895.150
  -3236011.705 7  -2017124.75628  21766180.936
 -16783165.790 7   3083996.61727  22465733.147
  -4886653.628 7  -3809929.24927  22355742.382
 92  8 27 20 55  0.0020000  0  4G20G 3G16G17
   3479038.911 7   6566759.94328  22293138.551
  -3241669.200 7  -2021533.17929  21765107.889
 -16704797.544 7   3145062.75927  22480647.492
  -4920065.334 7  -3835964.25427  22349382.644
 92  8 27 20 55 30.0020000  0  4G20G 3G16G17
   3596417.245 7   6658223.48528  22315474.079
  -3247023.533 7  -2025705.37629  21764087.396
 -16625827.637 7   3206597.71727  22495675.908
  -4953090.986 7  -3861698.46527  22343096.506
 92  8 27 20 56  0.0020000  0  4G20G 3G16G17
   3714300.115 7   6750080.18528  22337907.608
  -3252065.054 7  -2029633.81529  21763128.450
 -16546251.858 7   3268604.78527  22510819.744
  -4985715.212 7  -3887119.87327  22336891.552
 92  8 27 20 56 30.0020000  0  4G20G 3G16G17
   3832677.042 7   6842321.86628  22360434.104
  -3256800.493 7  -2033323.75929  21762223.766
 -16466064.440 7   3331088.44427  22526078.940
  -5017936.259 7  -3912227.11627  22330756.479
 92  8 27 20 57  0.0020000  0  4G20G 3G16G17
   3951532.626 7   6934936.53528  22383050.806
  -3261241.293 7  -2036784.09029  21761381.739
 -16385262.760 7   3394050.76527  22541453.766
  -5049760.800 7  -3937025.37527  22324700.581
 92  8 27 20 57 30.0020000  0  4G20G 3G16G17
   4070857.419 7   7027916.79428  22405758.706
  -3265393.542 7  -2040019.60329  21760591.516
 -16303847.069 7   3457491.53927  22556946.471
  -5081204.035 7  -3961526.52227  22318718.343
 92  8 27 20 58  0.0020000  0  4G20G 3G16G17
   4190637.629 7   7121251.92928  22428548.239
  -3269267.035 7  -2043037.89629  21759855.196
 -16221821.511 7   3521407.52727  22572554.746
  -5112290.855 7  -3985749.95627  22312803.647
 92  8 27 20 58 30.0020000  0  4G20G 3G16G17
   4310866.315 7   7214936.56128  22451431.427
  -3272865.427 7  -2045841.81729  21759168.191
 -16139203.804 7   3585784.93727  22588276.552
  -5143029.546 7  -4009702.11127  22306954.936
 92  8 27 20 59  0.0020000  0  4G20G 3G16G17
   4431535.022 7   7308964.03427  22474393.161
  -3276192.987 7  -2048434.71829  21758535.180
 -16056021.091 7   3650602.58927  22604108.771
  -5173429.747 7  -4033390.52727  22301170.141
 92  8 27 20 59 30.0020000  0  4G20G 3G16G17
   4552640.456 7   7403331.81227  22497435.480
  -3279249.604 7  -2050816.48329  21757955.201
 -15972286.974 7   3715849.91627  22620042.650
  -5203493.465 7  -4056816.70627  22295448.182
 92  8 27 21  0  0.0020000  0  4G20G 3G16G17
   4674199.163 7   7498052.82227  22520569.924
  -3282014.641 7  -2052971.04529  21757427.746
 -15887988.740 7   3781536.81627  22636084.665
  -5233188.554 7  -4079955.67828  22289797.724
 92  8 27 21  0 30.0020000  0  4G20G 3G16G17
   4796206.129 7   7593123.09027  22543785.942
  -3284489.568 7  -2054899.54329  21756954.914
 -15803139.133 7   3847653.35627  22652227.889
  -5262505.999 7  -4102800.36828  22284220.085
 92  8 27 21  1  0.0020000  0  4G20G 3G16G17
   4918638.027 7   7688524.48727  22567084.133
  -3286694.200 7  -2056617.42729  21756538.892
 -15717754.594 7   3914186.71427  22668473.642
  -5291472.785 7  -4125371.85528  22278706.692
 92  8 27 21  1 30.0020000  0  4G20G 3G16G17
   5041485.011 7   7784249.32627  22590463.208
  -3288634.061 7  -2058128.98829  21756168.468
 -15631840.411 7   3981132.80827  22684824.982
  -5320099.625 7  -4147678.40328  22273259.763
 92  8 27 21  2  0.0020000  0  4G20G 3G16G17
   5164738.196 7   7880290.68227  22613915.822
  -3290314.234 7  -2059438.19329  21755845.921
 -15545411.441 7   4048480.00927  22701273.246
  -5348402.695 7  -4169732.68328  22267873.872
 92  8 27 21  2 30.0020000  0  4G20G 3G16G17
   5288404.599 7   7976654.02727  22637449.350
  -3291723.658 7  -2060536.44229  21755583.183
 -15458469.209 7   4116227.18827  22717818.192
  -5376391.842 7  -4191542.33728  22262547.009
 92  8 27 21  3  0.0020000  0  4G20G 3G16G17
   5412507.803 7   8073357.72827  22661066.790
  -3292835.180 7  -2061402.53929  21755369.431
 -15370978.455 7   4184401.75927  22734466.746
  -5404050.236 7  -4213094.26228  22257282.054
 92  8 27 21  3 30.0020000  0  4G20G 3G16G17
   5537053.503 7   8170406.23427  22684768.172
  -3293639.044 7  -2062028.90729  21755215.608
 -15282926.104 7   4253013.93727  22751223.676
  -5431360.508 7  -4234374.94428  22252089.829
 92  8 27 21  4  0.0020000  0  4G20G 3G16G17
   5662044.172 7   8267801.47327  22708550.677
  -3294128.990 7  -2062410.67029  21755124.531
 -15194292.329 7   4322079.18327  22768088.201
  -5458308.978 7  -4255373.70228  22246961.279
 92  8 27 21  4 30.0020000  0  4G20G 3G16G17
   5787479.060 7   8365542.85127  22732420.033
  -3294302.045 7  -2062545.49629  21755091.404
 -15105052.058 7   4391617.02627  22785068.235
  -5484879.849 7  -4276078.21028  22241906.419
 92  8 27 21  5  0.0020000  0  4G20G 3G16G17
   5913358.728 7   8463630.81527  22756372.911
  -3294153.397 7  -2062429.65329  21755118.775
 -15015195.714 7   4461634.93427  22802168.817
  -5511053.789 7  -4296473.44428  22236921.080
 92  8 27 21  5 30.0020000  0  4G20G 3G16G17
   6039658.911 7   8562046.45727  22780406.673
  -3293703.492 7  -2062079.06229  21755202.687
 -14924758.156 7   4532105.72227  22819379.123
  -5536836.855 7  -4316564.09028  22232013.567
 92  8 27 21  6  0.0030000  0  4G20G 3G16G17
   6166378.726 7   8660789.08127  22804521.738
  -3292953.198 7  -2061494.41629  21755346.707
 -14833755.131 7   4603017.14527  22836695.495
  -5562235.210 7  -4336354.95428  22227183.011
 92  8 27 21  6 30.0030000  0  4G20G 3G16G17
   6293492.397 7   8759838.60427  22828712.651
  -3291916.408 7  -2060686.51329  21755543.551
 -14742236.741 7   4674330.15527  22854111.308
  -5587268.729 7  -4355861.54128  22222420.568
 92  8 27 21  7  0.0030000  0  4G20G 3G16G17
   6420992.791 7   8859189.44627  22852972.696
  -3290600.137 7  -2059660.85429  21755793.158
 -14650227.830 7   4746025.37927  22871620.237
  -5611945.997 7  -4375090.52228  22217725.129
 92  8 27 21  7 30.0030000  0  4G20G 3G16G17
   6548882.943 7   8958844.03327  22877314.225
  -3288997.316 7  -2058411.88129  21756095.918
 -14557723.835 7   4818106.39927  22889223.330
  -5636264.787 7  -4394040.17428  22213097.533
 92  8 27 21  8  0.0030000  0  4G20G 3G16G17
   6677177.241 7   9058813.50927  22901725.935
  -3287089.538 7  -2056925.28729  21756463.973
 -14464707.532 7   4890586.61527  22906924.186
  -5660225.129 7  -4412710.52828  22208536.340
 92  8 27 21  8 30.0030000  0  4G20G 3G16G17
   6805887.001 7   9159106.73427  22926217.570
  -3284861.879 7  -2055189.43329  21756887.041
 -14371157.217 7   4963482.93927  22924726.312
  -5683809.946 7  -4431088.25228  22204045.989
 92  8 27 21  9  0.0030000  0  4G20G 3G16G17
   6935008.248 7   9259720.58127  22950789.759
  -3282313.976 7  -2053204.05929  21757370.156
 -14277048.504 7   5036814.40127  22942635.704
  -5707016.510 7  -4449171.23128  22199631.785
 92  8 27 21  9 30.0030000  0  4G20G 3G16G17
   7064545.194 7   9360658.35527  22975441.003
  -3279437.742 7  -2050962.82629  21757916.258
 -14182370.352 7   5110589.56427  22960654.070
  -5729840.998 7  -4466956.49628  22195289.831
 92  8 27 21 10  0.0030000  0  4G20G 3G16G17
   7194484.470 6   9461909.65927  23000168.215
  -3276242.090 7  -2048472.69029  21758526.935
 -14087140.255 7   5184794.82327  22978772.447
  -5752289.211 7  -4484448.55928  22191014.011
 92  8 27 21 10 30.0030000  0  4G20G 3G16G17
   7324822.815 6   9563471.90127  23024969.265
  -3272726.589 7  -2045733.31629  21759196.881
 -13991355.352 7   5259432.40927  22997003.306
  -5774347.432 7  -4501636.70928  22186821.113
 92  8 27 21 11  0.0030000  0  4G20G 3G16G17
   7455552.011 6   9665338.70127  23049842.296
  -3268895.437 7  -2042747.97829  21759922.109
 -13895025.847 7   5334494.36327  23015331.897
  -5796020.690 7  -4518524.94128  22182696.449
 92  8 27 21 11 30.0030000  0  4G20G 3G16G17
   7586662.841 6   9767502.87027  23074791.984
  -3264753.734 7  -2039520.67529  21760712.692
 -13798179.106 6   5409959.33427  23033761.099
  -5817326.135 7  -4535126.53828  22178638.458
 92  8 27 21 12  0.0030000  0  4G20G 3G16G17
   7718147.259 6   9869958.14927  23099818.329
  -3260305.117 7  -2036054.20229  21761561.165
 -13700821.439 6   5485822.43227  23052284.885
  -5838272.917 7  -4551448.66028  22174653.797
 92  8 27 21 12 30.0030000  0  4G20G 3G16G17
   7850012.470 6   9972710.16027  23124910.238
  -3255538.033 8  -2032339.58529  21762468.487
 -13602932.872 6   5562099.22727  23070915.428
  -5858853.587 7  -4567485.51028  22170737.098
 92  8 27 21 13  0.0030000  0  4G20G 3G16G17
   7982250.303 6  10075752.52027  23150073.288
  -3250456.923 7  -2028380.24929  21763432.889
 -13504530.409 6   5638776.48627  23089638.846
  -5879081.576 7  -4583247.52828  22166887.703
 92  8 27 21 13 30.0030000  0  4G20G 3G16G17
   8114853.408 6  10179079.50627  23175304.541
  -3245064.757 7  -2024178.54329  21764458.329
 -13405623.818 6   5715846.54127  23108459.906
  -5898956.853 7  -4598734.71928  22163108.459
 92  8 27 21 14  0.0030000  0  4G20G 3G16G17
   8247813.382 6  10282684.57827  23200607.564
  -3239366.479 7  -2019738.31629  21765543.878
 -13306218.727 6   5793305.04427  23127378.759
  -5918466.303 7  -4613936.84928  22159393.041
 92  8 27 21 14 30.0030000  0  4G20G 3G16G17
   8381123.624 6  10386562.58127  23225977.081
  -3233363.894 7  -2015060.96829  21766686.716
 -13206325.599 6   5871143.83827  23146388.659
  -5937617.684 7  -4628859.95129  22155747.115
 92  8 27 21 15  0.0030000  0  4G20G 3G16G17
   8514774.639 6  10490706.11127  23251407.066
  -3227062.244 7  -2010150.58029  21767883.908
 -13105969.027 6   5949343.74727  23165480.911
  -5956412.803 7  -4643505.44429  22152171.401
 92  8 27 21 15 30.0030000  0  4G20G 3G16G17
   8648755.233 6  10595106.47627  23276903.575
  -3220468.903 7  -2005012.89529  21769137.939
 -13005144.068 6   6027908.65227  23184669.637
  -5974852.082 7  -4657873.65229  22148664.459
 92  8 27 21 16  0.0030000  0  4G20G 3G16G17
   8783066.336 6  10699764.36227  23302463.790
  -3213578.205 7  -1999643.49329  21770450.641
 -12903836.522 6   6106849.57327  23203947.581
  -5992947.696 7  -4671974.07729  22145218.494
 92  8 27 21 16 30.0030000  0  5G20G 3G23G16G17
   8917698.351 6  10804672.32327  23328083.904
  -3206395.947 7  -1994046.92429  21771818.174
   2438547.23415   -145006.35731  24970250.365
 -12802050.082 6   6186163.67827  23223316.692
  -6010709.567 7  -4685814.44629  22141837.045
 92  8 27 21 17  0.0030000  0  5G20G 3G23G16G17
   9052646.766 6  10909826.79527  23353765.505
  -3198922.513 7  -1988223.44529  21773238.471
   2368440.286 5   -199634.84223  24956916.106
 -12699783.827 6   6265851.66027  23242780.028
  -6028133.431 7  -4699391.43229  22138522.750
 92  8 27 21 17 30.0030000  0  5G20G 3G23G16G17
   9187905.922 6  11015223.44727  23379500.079
  -3191159.059 7  -1982173.99429  21774718.666
   2298487.368 5   -254143.35925  24943605.471
 -12597027.965 6   6345921.16427  23262337.049
  -6045240.826 7  -4712721.82229  22135267.153
 92  8 27 21 18  0.0030000  0  5G20G 3G23G16G17
   9323483.243 6  11120867.99427  23405298.869
  -3183094.201 7  -1975889.66729  21776254.503
   2228686.309 5   -308533.53025  24930315.102
 -12493790.613 7   6426365.84427  23281979.751
  -6062027.745 7  -4725802.49029  22132076.552
 92  8 27 21 18 30.0030000  0  5G20G 3G23G16G17
   9459369.000 6  11226752.87727  23431159.836
  -3174733.657 7  -1969374.93629  21777843.703
   2159022.539 5   -362816.75025  24917062.567
 -12390104.906 6   6507159.89227  23301710.561
  -6078487.105 7  -4738627.92929  22128938.355
 92  8 27 21 19  0.0030000  0  5G20G 3G23G16G17
   9595570.784 6  11332884.03526  23457076.384
  -3166064.883 7  -1962620.01029  21779492.561
   2089491.180 5   -416996.77725  24903830.447
 -12285963.263 6   6588309.20727  23321526.303
  -6094617.667 7  -4751197.12929  22125872.497
 92  8 27 21 19 30.0030000  0  5G20G 3G23G16G17
   9732077.987 6  11439253.18526  23483054.809
  -3157094.996 7  -1955630.48629  21781201.768
   2020083.515 5   -471080.46725  24890623.870
 -12181386.848 6   6669797.32027  23341427.486
  -6110416.284 7  -4763507.66229  22122867.108
 92  8 27 21 20  0.0030000  0  5G20G 3G23G16G17
   9868890.088 6  11545859.88626  23509087.827
  -3147819.774 7  -1948403.02829  21782966.016
   1950814.330 5   -525056.22025  24877439.687
 -12076389.534 6   6751613.40827  23361408.443
  -6125855.482 7  -4775538.17829  22119927.583
 92  8 27 21 20 30.0030000  0  5G20G 3G23G16G17
  10006014.520 6  11652709.98726  23535181.253
  -3138227.825 7  -1940928.75429  21784791.723
   1881699.957 5   -578911.32725  24864291.779
 -11970940.096 6   6833781.78027  23381471.004
  -6140923.526 7  -4787279.43129  22117061.837
 92  8 27 21 21  0.0030000  0  5G20G 3G23G16G17
  10143440.173 6  11759794.77526  23561332.539
  -3128325.550 7  -1933212.66129  21786672.171
   1812735.402 5   -632649.75825  24851162.128
 -11865028.577 6   6916310.21127  23401627.910
  -6155623.279 7  -4798733.74429  22114259.017
 92  8 27 21 21 30.0030000  0  5G20G 3G23G16G17
  10281155.729 6  11867105.48926  23587544.263
  -3118120.249 7  -1925260.44429  21788616.115
   1743919.123 5   -686272.60625  24838074.329
 -11758668.967 6   6999187.80327  23421868.008
  -6169958.105 7  -4809903.69929  22111535.283
 92  8 27 21 22  0.0030000  0  5G20G 3G23G16G17
  10419162.360 6  11974643.00526  23613807.461
  -3107606.550 7  -1917067.92929  21790619.388
   1675255.273 5   -739776.69925  24825009.973
 -11651847.985 6   7082424.92326  23442195.706
  -6183943.974 7  -4820801.72129  22108873.485
 92  8 27 21 22 30.0030000  0  5G20G 3G23G16G17
  10557467.155 6  12082412.83626  23640121.804
  -3096772.859 7  -1908626.06829  21792680.102
   1606762.299 5   -793147.64425  24811975.297
 -11544551.404 6   7166032.62426  23462614.630
  -6197577.518 7  -4831425.22829  22106281.090
 92  8 27 21 23  0.0030000  0  5G20G 3G23G16G17
  10696073.215 6  12190417.43326  23666499.553
  -3085611.854 7  -1899929.15429  21794803.052
   1538453.436 5   -846375.15825  24798971.769
 -11436790.784 6   7250001.91626  23483118.635
  -6210852.957 7  -4841769.67529  22103752.281
 92  8 27 21 23 30.0030000  0  5G20G 3G23G16G17
  10834975.156 6  12298652.59426  23692932.494
  -3074124.774 7  -1890978.13529  21796988.089
   1470334.146 5   -899454.89125  24786008.084
 -11328572.289 6   7334327.99626  23503712.009
  -6223789.079 7  -4851849.70829  22101292.274
 92  8 27 21 24  0.0030000  0  5G20G 3G23G16G17
  10974163.935 6  12407111.26526  23719416.849
  -3062316.133 7  -1881776.58629  21799235.483
   1402403.025 5   -952388.04125  24773084.151
 -11219905.337 6   7419003.51926  23524387.825
  -6236390.389 7  -4861668.85129  22098895.103
 92  8 27 21 24 30.0030000  0  5G20G 3G23G16G17
  11113637.719 6  12515792.00226  23745961.463
  -3050184.058 7  -1872322.98829  21801543.196
   1334662.109 5  -1005172.95825  24760191.336
 -11110786.852 6   7504030.87526  23545152.980
  -6248640.815 7  -4871214.58529  22096564.067
 92  8 27 21 25  0.0030000  0  5G20G 3G23G16G17
  11253396.520 6  12624694.83426  23772552.574
  -3037723.321 7  -1862613.31029  21803914.644
   1267102.506 5  -1057816.59025  24747334.947
 -11001213.488 6   7589412.68626  23566003.905
  -6260547.521 7  -4880492.50829  22094296.617
 92  8 27 21 25 30.0030000  0  5G20G 3G23G16G17
  11393444.320 6  12733822.87126  23799204.154
  -3024926.271 7  -1852641.57529  21806350.398
   1199729.688 5  -1110314.71625  24734512.074
 -10891180.641 6   7675152.52426  23586943.869
  -6272100.814 7  -4889495.02329  22092099.738
 92  8 27 21 26  0.0030000  0  5G20G 3G23G16G17
  11533779.195 6  12843174.56826  23825908.017
  -3011790.371 7  -1842405.80829  21808847.849
   1132540.999 5  -1162669.36025  24721726.555
 -10780695.586 6   7761244.76526  23607967.804
  -6283287.578 7  -4898211.94029  22089969.203
 92  8 27 21 26 30.0040000  0  6G20G 3G23G26G16G17
  11674404.647 6  12952752.73126  23852668.211
  -2998311.657 7  -1831902.88829  21811415.751
   1065534.930 5  -1214881.71025  24708976.801
  -2259860.66115    -73523.76831  25286391.495
 -10669756.406 6   7847690.82926  23629081.407
  -6294111.975 7  -4906646.48129  22087910.887
 92  8 27 21 27  0.0040000  0  6G20G 3G23G26G16G17
  11815302.495 6  13062543.11226  23879479.850
  -2984495.993 7  -1821137.42829  21814046.400
    998713.907 5  -1266949.86225  24696263.802
  -2295454.320 5   -101258.94723  25279616.366
 -10558401.039 6   7934461.20226  23650272.747
  -6304580.336 7  -4914803.61729  22085917.957
 92  8 27 21 27 30.0040000  0  6G20G 3G23G26G16G17
  11956475.624 6  13172548.02226  23906341.824
  -2970339.887 7  -1810106.69729  21816738.326
    932085.294 5  -1318868.03525  24683579.613
  -2330790.574 5   -128793.51324  25272896.848
 -10446640.793 6   8021547.07826  23671537.416
  -6314686.742 7  -4922678.68429  22083994.339
 92  8 27 21 28  0.0040000  0  6G20G 3G23G26G16G17
  12097919.749 6  13282764.07026  23933262.197
  -2955843.715 7  -1798810.95529  21819495.368
    865646.303 5  -1370638.50525  24670943.181
  -2365887.181 5   -156141.33625  25266223.378
 -10334477.772 6   8108946.82126  23692880.390
  -6324434.305 7  -4930274.15229  22082141.472
 92  8 27 21 28 30.0040000  0  6G20G 3G23G26G16G17
  12239629.556 6  13393187.17526  23960223.882
  -2941008.117 7  -1787250.75229  21822318.753
    799405.267 5  -1422254.69325  24658331.662
  -2400746.090 5   -183303.93825  25259583.484
 -10221913.802 6   8196658.97626  23714300.142
  -6333823.770 7  -4937590.55029  22080350.002
 92  8 27 21 29  0.0040000  0  6G20G 3G23G26G16G17
  12381588.540 6  13503804.41426  23987240.879
  -2925845.208 7  -1775435.48029  21825205.695
    733355.458 5  -1473721.89225  24645767.660
  -2435388.112 5   -210297.56125  25252992.607
 -10108948.464 6   8284683.88026  23735796.130
  -6342861.766 7  -4944633.11029  22078631.651
 92  8 27 21 29 30.0040000  0  6G20G 3G23G26G16G17
  12523794.762 6  13614614.33826  24014307.101
  -2910352.815 7  -1763363.50029  21828150.856
    667493.010 5  -1525043.09725  24633230.040
  -2469800.755 5   -237112.43725  25246443.371
  -9995565.023 6   8373034.58126  23757374.532
  -6351552.459 7  -4951405.03629  22076977.816
 92  8 27 21 30  0.0040000  0  6G20G 3G23G26G16G17
  12666241.697 6  13725611.80426  24041409.628
  -2894532.981 7  -1751036.34329  21831161.701
    601826.628 5  -1576211.50925  24620736.189
  -2503989.859 5   -263753.12225  25239933.528
  -9881759.434 6   8461714.22726  23779030.670
  -6359899.930 7  -4957909.50929  22075391.524
 92  8 27 21 30 30.0040000  0  6G20G 3G23G26G16G17
  12808920.666 6  13836790.07126  24068563.360
  -2878390.116 7  -1738457.49429  21834233.974
    536356.602 5  -1627226.95525  24608280.742
  -2537946.107 5   -290212.29525  25233474.529
  -9767544.813 6   8550712.60626  23800765.353
  -6367912.302 7  -4964152.89629  22073866.210
 92  8 27 21 31  0.0040000  0  6G20G 3G23G26G16G17
  12951841.277 6  13948156.63926  24095756.785
  -2861910.390 7  -1725616.14029  21837370.703
    471088.245 5  -1678085.19725  24595845.500
  -2571654.248 5   -316478.19325  25227063.677
  -9652924.477 6   8640027.15826  23822575.404
  -6375582.900 7  -4970129.92529  22072408.470
 92  8 27 21 31 30.0040000  0  6G20G 3G23G26G16G17
  13095004.280 6  14059712.06726  24123000.934
  -2845088.130 7  -1712507.87629  21840569.638
    406027.158 5  -1728781.96225  24583473.515
  -2605088.998 5   -342531.04125  25220694.497
  -9537917.001 6   8729643.34126  23844461.873
  -6382908.565 7  -4975838.21129  22071012.306
 92  8 27 21 32  0.0040000  0  6G20G 3G23G26G16G17
  13238417.472 6  14171462.46526  24150288.913
  -2827912.003 7  -1699123.86729  21843841.513
    341203.666 5  -1779293.57725  24571139.904
  -2638237.081 5   -368360.54625  25214394.358
  -9422509.127 6   8819571.53426  23866424.218
  -6389867.106 7  -4981260.40529  22069689.562
 92  8 27 21 32 30.0040000  0  6G20G 3G23G26G16G17
  13382060.034 6  14283391.56926  24177627.797
  -2810397.414 7  -1685476.13429  21847174.366
    276581.268 5  -1829648.52525  24558844.066
  -2671109.928 5   -393975.55725  25208131.364
  -9306718.148 6   8909798.25226  23888457.945
  -6396469.719 7  -4986405.26729  22068433.611
 92  8 27 21 33  0.0040000  0  6G20G 3G23G26G16G17
  13525939.465 6  14395505.24526  24205004.484
  -2792533.060 7  -1671555.83629  21850573.173
    212178.521 5  -1879832.32425  24546585.732
  -2703691.208 5   -419363.34425  25201933.365
  -9190522.817 6   9000340.06026  23910571.716
  -6402697.213 7  -4991257.81829  22067249.761
 92  8 27 21 33 30.0040000  0  6G20G 3G23G26G16G17
  13670063.178 6  14507809.29926  24232429.768
  -2774306.918 7  -1657353.62429  21854042.491
    148010.160 6  -1929833.43325  24534380.822
  -2735971.826 5   -444516.92825  25195790.557
  -9073892.023 6   9091221.18426  23932765.411
  -6408536.657 7  -4995807.99629  22066135.852
 92  8 27 21 34  0.0040000  0  6G20G 3G23G26G16G17
  13814426.784 6  14620300.27326  24259906.017
  -2755719.008 7  -1642869.52429  21857577.344
     84070.180 6  -1979656.64725  24522203.941
  -2767964.954 5   -469446.43225  25189705.100
  -8956828.364 6   9182439.59726  23955037.802
  -6413995.430 7  -5000061.56129  22065099.529
 92  8 27 21 34 30.0040000  0  6G20G 3G23G26G16G17
  13959030.571 6  14732978.41326  24287420.369
  -2736764.591 7  -1628099.82529  21861185.526
     20352.819 5  -2029306.33425  24510081.714
  -2799675.452 5   -494155.69825  25183669.199
  -8839347.897 6   9273982.80526  23977397.163
  -6419078.761 7  -5004022.56329  22064128.262
 92  8 27 21 35  0.0040000  0  6G20G 3G23G26G16G17
  14103861.096 6  14845833.18725  24314981.968
  -2717453.054 7  -1613051.84029  21864859.093
    -43129.794 5  -2078773.13725  24497999.988
  -2831113.098 5   -518652.37725  25177687.140
  -8721463.279 6   9365840.94026  23999826.016
  -6423799.267 7  -5007700.84529  22063228.285
 92  8 27 21 35 30.0040000  0  6G20G 3G23G26G16G17
  14248901.549 6  14958851.57025  24342583.230
  -2697796.680 7  -1597735.16829  21868601.013
   -106395.168 5  -2128070.63425  24485969.706
  -2862290.495 5   -542946.27025  25171758.055
  -8603195.260 6   9457997.84126  24022336.742
  -6428170.915 7  -5011107.28429  22062398.010
 92  8 27 21 36  0.0040000  0  6G20G 3G23G26G16G17
  14394148.334 6  15072030.73325  24370222.206
  -2677795.135 7  -1582149.51429  21872409.186
   -169433.472 5  -2177191.19825  24473965.626
  -2893200.529 5   -567031.81325  25165867.253
  -8484555.910 6   9550444.07226  24044909.765
  -6432194.957 7  -5014242.87729  22061632.909
 92  8 27 21 36 30.0040000  0  6G20G 3G23G26G16G17
  14539602.083 6  15185371.14425  24397896.708
  -2657442.741 7  -1566290.48429  21876280.526
   -232239.127 5  -2226130.48125  24462019.226
  -2923825.575 5   -590895.27725  25160049.930
  -8365539.026 6   9643184.51426  24067556.357
  -6435854.156 7  -5017094.14629  22060937.361
 92  8 27 21 37  0.0040000  0  6G20G 3G23G26G16G17
  14685257.672 6  15298868.82525  24425620.944
  -2636740.551 7  -1550158.87729  21880218.480
   -294809.600 5  -2274886.48525  24450111.800
  -2954154.507 5   -614528.00525  25154269.572
  -8246137.565 6   9736224.60326  24090277.598
  -6439148.595 7  -5019661.20429  22060308.906
 92  8 27 21 37 30.0040000  0  6G20G 3G23G26G16G17
  14831108.169 6  15412518.41625  24453375.520
  -2615691.408 7  -1533756.94129  21884221.099
   -357160.910 5  -2323471.72925  24438242.087
  -2984186.935 5   -637929.70225  25148561.433
  -8126371.088 6   9829549.12826  24113071.268
  -6442097.445 7  -5021958.96929  22059747.485
 92  8 27 21 38  0.0040000  0  6G20G 3G23G26G16G17
  14977145.265 6  15526313.36425  24481160.255
  -2594299.036 7  -1517087.54129  21888293.810
   -419301.414 6  -2371892.73925  24426419.262
  -3013930.252 5   -661106.08625  25142892.088
  -8006260.829 6   9923141.53526  24135921.989
  -6444714.934 7  -5023998.53329  22059251.478
 92  8 27 21 38 30.0040000  0  6G20G 3G23G26G16G17
  15123374.153 6  15640257.78825  24508988.790
  -2572553.284 7  -1500142.76829  21892433.524
   -481227.867 5  -2420146.93825  24414632.082
  -3043373.675 5   -684048.81125  25137290.586
  -7885804.086 6  10017003.93226  24158846.998
  -6446993.031 7  -5025773.63129  22058815.880
 92  8 27 21 39  0.0040000  0  6G20G 3G23G26G16G17
  15269788.295 6  15754346.55925  24536852.461
  -2550457.188 7  -1482925.02229  21896637.513
   -542935.627 5  -2468230.75225  24402894.248
  -3072528.243 5   -706766.45425  25131749.492
  -7765010.288 6  10111128.98626  24181835.504
  -6448956.767 7  -5027303.77829  22058443.058
 92  8 27 21 39 30.0040000  0  6G20G 3G23G26G16G17
  15416393.871 6  15868584.47625  24564749.048
  -2527999.350 7  -1465425.38729  21900910.815
   -604429.812 5  -2516148.09925  24391194.937
  -3101385.458 5   -729252.37025  25126252.617
  -7643888.765 6  10205509.40526  24204883.458
  -6450597.277 7  -5028582.04929  22058131.243
 92  8 27 21 40  0.0040000  0  6G20G 3G23G26G16G17
  15563192.159 6  15982972.58725  24592679.692
  -2505174.505 7  -1447639.76929  21905255.467
   -665696.227 5  -2563888.00326  24379534.180
  -3129941.035 5   -751503.24225  25120826.614
  -7522422.549 6  10300158.38726  24227996.557
  -6451891.157 7  -5029590.21529  22057884.634
 92  8 27 21 40 30.0040000  0  6G20G 3G23G26G16G17
  15710172.018 5  16097502.16825  24620650.029
  -2481989.393 7  -1429573.44329  21909666.494
   -726737.032 5  -2611452.12526  24367914.644
  -3158200.839 5   -773523.67425  25115441.622
  -7400613.944 6  10395074.16426  24251176.030
  -6452845.111 7  -5030333.51829  22057702.960
 92  8 27 21 41  0.0040000  0  6G20G 3G23G26G16G17
  15857329.371 6  16212170.05725  24648658.019
  -2458443.769 7  -1411226.17529  21914147.072
   -787552.382 5  -2658840.53526  24356345.173
  -3186163.418 5   -795312.48925  25110120.036
  -7278461.844 6  10490257.61726  24274427.573
  -6453455.536 7  -5030809.14729  22057588.020
 92  8 27 21 41 30.0040000  0  6G20G 3G23G26G16G17
  16004670.330 6  16326980.99825  24676695.599
  -2434527.117 7  -1392589.80629  21918701.639
   -848127.294 6  -2706041.62326  24344818.213
  -3213811.661 5   -816856.33125  25104861.886
  -7155951.718 6  10585720.08626  24297735.388
  -6453701.651 7  -5031000.87529  22057540.892
 92  8 27 21 42  0.0040000  0  6G20G 3G23G26G16G17
  16152191.654 6  16441932.49325  24704768.255
  -2410238.349 7  -1373663.46429  21923322.310
   -908445.645 6  -2753042.80626  24333334.933
  -3241147.740 5   -838156.99825  25099656.140
  -7033066.646 6  10681474.69226  24321120.848
  -6453588.788 7  -5030912.88029  22057561.278
 92  8 27 21 42 30.0040000  0  6G20G 3G23G26G16G17
  16299853.276 6  16556993.33125  24732867.682
  -2385613.057 7  -1354474.92529  21928007.137
   -968539.377 6  -2799868.94326  24321899.829
  -3268201.436 5   -859237.59125  25094510.322
  -6909849.715 6  10777487.87625  24344564.319
  -6453161.241 7  -5030579.67829  22057643.751
 92  8 27 21 43  0.0040000  0  6G20G 3G23G26G16G17
  16447640.447 5  16672151.94725  24760987.465
  -2360661.742 7  -1335032.29729  21932755.969
  -1028405.739 6  -2846517.90526  24310508.945
  -3294974.044 5   -880099.13125  25089414.390
  -6786309.151 6  10873753.26625  24368078.480
  -6452424.509 7  -5030005.56529  22057779.827
 92  8 27 21 43 30.0040000  0  6G20G 3G23G26G16G17
  16595586.234 5  16787434.19425  24789140.315
  -2335346.666 7  -1315306.25629  21937571.775
  -1087998.005 6  -2892953.31026  24299171.034
  -3321429.671 5   -900713.72825  25084377.637
  -6662417.316 6  10970292.36025  24391653.020
  -6451345.537 7  -5029164.76429  22057986.504
 92  8 27 21 44  0.0040000  0  6G20G 3G23G26G16G17
  16743696.140 5  16902844.31225  24817327.522
  -2309658.500 7  -1295289.48729  21942459.861
  -1147313.741 6  -2939173.23226  24287879.831
  -3347555.971 5   -921071.71625  25079407.707
  -6538178.311 6  11067101.96625  24415292.884
  -6449907.531 7  -5028044.20829  22058261.563
 92  8 27 21 44 30.0040000  0  6G20G 3G23G26G16G17
  16891978.964 5  17018389.18425  24845547.945
  -2283583.767 7  -1274971.48529  21947423.345
  -1206338.137 6  -2985166.14726  24276648.646
  -3373327.078 5   -941152.89725  25074505.921
  -6413594.984 6  11164179.86925  24438996.275
  -6448090.434 7  -5026628.25929  22058608.603
 92  8 27 21 45  0.0040000  0  6G20G 3G23G26G16G17
  17040439.005 5  17134072.11425  24873794.630
  -2257113.923 7  -1254345.60829  21952458.869
  -1265072.562 6  -3030933.10526  24265473.372
  -3398740.343 5   -960955.26725  25069671.857
  -6288661.835 6  11261530.36925  24462774.943
  -6445886.274 7  -5024910.67829  22059027.983
 92  8 27 21 45 30.0040000  0  6G20G 3G23G26G16G17
  17189070.779 5  17249888.91525  24902079.089
  -2230249.941 7  -1233412.59729  21957570.540
  -1323536.752 6  -3076489.46426  24254349.873
  -3423799.366 5   -980481.62725  25064900.121
  -6163380.821 6  11359151.96525  24486614.739
  -6443299.111 7  -5022894.66629  22059516.854
 92  8 27 21 46  0.0040000  0  6G20G 3G23G26G16G17
  17337854.221 5  17365823.84425  24930392.928
  -2203007.750 7  -1212184.91029  21962754.941
  -1381760.995 6  -3121858.87126  24243268.165
  -3448517.354 5   -999742.28825  25060194.488
  -6037758.879 6  11457039.15825  24510521.959
  -6440346.526 7  -5020593.92329  22060080.044
 92  8 27 21 46 30.0040000  0  6G20G 3G23G26G16G17
  17486780.775 5  17481870.30525  24958733.628
  -2175390.911 7  -1190665.24829  21968009.883
  -1439749.855 6  -3167044.87126  24232234.123
  -3472903.132 5  -1018744.02725  25055555.650
  -5911798.102 6  11555190.41825  24534486.738
  -6437048.285 7  -5018023.82129  22060709.219
 92  8 27 21 47  0.0050000  0  6G20G 3G23G26G16G17
  17635855.468 5  17598032.18125  24987103.108
  -2147394.403 7  -1168849.77229  21973337.045
  -1497497.763 6  -3212043.08626  24221241.304
  -3496958.507 5  -1037488.33125  25050977.669
  -5785501.799 6  11653603.13225  24558525.656
  -6433407.721 7  -5015186.96429  22061401.140
 92  8 27 21 47 30.0050000  0  6G20G 3G23G26G16G17
  17785048.386 5  17714286.20825  25015490.636
  -2119036.153 7  -1146752.40529  21978735.378
  -1555007.458 6  -3256855.70326  24210292.793
  -3520684.919 5  -1055976.33625  25046458.328
  -5658904.251 6  11752250.56425  24582613.711
  -6429454.357 7  -5012106.38829  22062152.660
 92  8 27 21 48  0.0050000  0  6G20G 3G23G26G16G17
  17934358.753 5  17830631.71125  25043906.434
  -2090316.363 7  -1124373.32429  21984197.147
  -1612264.558 6  -3301471.48426  24199404.331
  -3544082.712 5  -1074208.28525  25042007.729
  -5532025.975 6  11851116.73425  24606761.274
  -6425194.962 7  -5008787.33729  22062960.900
 92  8 27 21 48 30.0050000  0  6G20G 3G23G26G16G17
  18083781.143 5  17947064.53225  25072335.513
  -2061236.472 7  -1101713.65529  21989734.314
  -1669250.300 6  -3345875.82026  24188563.296
  -3567136.854 5  -1092172.43025  25037625.962
  -5404892.172 6  11950182.03525  24630950.987
  -6420624.569 7  -5005225.95629  22063835.395
 92  8 27 21 49  0.0050000  0  6G20G 3G23G26G16G17
  18233304.643 5  18063576.10925  25100788.546
  -2031802.812 7  -1078778.29029  21995332.458
  -1725958.630 6  -3390063.96626  24177769.329
  -3589849.051 5  -1109870.10725  25033289.494
  -5277508.434 6  12049442.07725  24655194.064
  -6415731.151 7  -5001412.83829  22064764.361
 92  8 27 21 49 30.0050000  0  6G20G 3G23G26G16G17
  18382946.411 5  18180179.84125  25129265.891
  -2001993.617 7  -1055550.35129  22001009.658
  -1782377.021 6  -3434026.22926  24167036.489
  -3612205.660 5  -1127290.76925  25029040.416
  -5149847.439 6  12148918.17025  24679482.590
  -6410485.388 7  -4997325.19729  22065764.919
 92  8 27 21 50  0.0050000  0  6G20G 3G23G26G16G17
  18532702.304 5  18296872.51725  25157762.364
  -1971809.185 7  -1032029.96729  22006751.013
  -1838520.798 6  -3477774.45926  24156346.369
  -3634222.890 5  -1144446.98025  25024859.690
  -5021909.542 6  12248609.99325  24703829.245
  -6404868.682 7  -4992948.50829  22066831.161
 92  8 27 21 50 30.0050000  0  6G20G 3G23G26G16G17
  18682574.285 5  18413655.66125  25186277.633
  -1941242.995 7  -1008212.14029  22012566.717
  -1894397.859 6  -3521314.85426  24145712.731
  -3655902.338 5  -1161339.95525  25020725.792
  -4893669.820 6  12348537.05025  24728235.709
  -6398880.210 7  -4988282.10929  22067973.460
 92  8 27 21 51  0.0050000  0  6G20G 3G23G26G16G17
  18832564.183 5  18530530.61325  25214830.166
  -1910289.206 7   -984092.26929  22018455.391
  -1950009.106 6  -3564648.14326  24135131.976
  -3677263.126 5  -1177984.66025  25016661.506
  -4765116.735 6  12448708.26125  24752695.955
  -6392533.070 7  -4983336.25229  22069178.146
 92  8 27 21 51 30.0050000  0  6G20G 3G23G26G16G17
  18982684.987 5  18647507.62225  25243391.124
  -1878930.133 7   -959656.61629  22024423.119
  -2005353.117 6  -3607773.19626  24124597.719
  -3698275.902 5  -1194358.14925  25012667.341
  -4636238.812 6  12549132.59225  24777218.918
  -6385832.181 7  -4978114.74929  22070454.242
 92  8 27 21 52  0.0050000  0  6G20G 3G23G26G16G17
  19132931.479 5  18764582.54725  25271983.320
  -1847167.066 7   -934906.15429  22030469.393
  -2060426.408 6  -3650687.29826  24114123.959
  -3718918.957 5  -1210443.53925  25008733.854
  -4507038.132 6  12649808.41025  24801809.515
  -6378790.316 7  -4972627.53129  22071793.355
 92  8 27 21 52 30.0050000  0  6G20G 3G23G26G16G17
  19283295.508 5  18881749.07325  25300600.549
  -1815003.776 7   -909843.83429  22036588.967
  -2115213.608 6  -3693378.45426  24103695.169
  -3739174.525 5  -1226227.01225  25004878.343
  -4377515.976 6  12750734.74826  24826452.035
  -6371422.497 7  -4966886.34129  22073194.855
 92  8 27 21 53  0.0050000  0  6G20G 3G23G26G16G17
  19433774.979 5  18999005.55925  25329237.474
  -1782437.808 7   -884467.75029  22042787.266
  -2169705.663 6  -3735839.65026  24093325.768
  -3759019.930 5  -1241690.84825  25001109.172
  -4247678.044 6  12851907.11725  24851164.707
  -6363714.478 7  -4960880.03929  22074660.780
 92  8 27 21 53 30.0050000  0  6G20G 3G23G26G16G17
  19584357.657 5  19116342.40525  25357885.731
  -1749477.262 7   -858784.20029  22049062.042
  -2223929.322 6  -3778091.69326  24083005.952
  -3778442.425 5  -1256825.20125  24997415.639
  -4117531.624 6  12953319.89925  24875920.429
  -6355667.200 7  -4954609.41429  22076192.300
 92  8 27 21 54  0.0050000  0  6G20G 3G23G26G16G17
  19735051.908 5  19233766.27425  25386564.567
  -1716109.776 7   -832783.52429  22055407.749
  -2277856.438 6  -3820112.63226  24072743.906
  -3797451.835 5  -1271637.58325  24993793.847
  -3987075.102 6  13054974.31325  24900750.979
  -6347267.342 7  -4948064.02229  22077794.931
 92  8 27 21 54 30.0050000  0  6G20G 3G23G26G16G17
  19885854.675 5  19351274.64225  25415263.999
  -1682333.852 7   -806464.62729  22061837.728
  -2331479.989 6  -3861897.06226  24062542.089
  -3816063.592 5  -1286140.16525  24990248.231
  -3856320.816 6  13156860.74125  24925634.652
  -6338502.287 7  -4941234.07929  22079462.046
 92  8 27 21 55  0.0050000  0  6G20G 3G23G26G16G17
  20036762.687 5  19468865.06525  25443982.737
  -1648148.561 7   -779826.71129  22068342.175
  -2384806.929 6  -3903450.35226  24052394.024
  -3834285.964 6  -1300339.27825  24986785.418
  -3725283.610 6  13258967.62925  24950572.828
  -6329362.650 7  -4934112.24529  22081200.933
 92  8 27 21 55 30.0050000  0  6G20G 3G23G26G16G17
  20187777.586 5  19586538.70625  25472718.204
  -1613548.058 7   -752865.27029  22074927.056
  -2437824.079 6  -3944762.25626  24042304.599
  -3852130.334 6  -1314243.87325  24983392.158
  -3593977.201 6  13361284.27325  24975556.062
  -6319852.595 7  -4926701.78329  22083010.180
 92  8 27 21 56  0.0050000  0  6G20G 3G23G26G16G17
  20338910.108 5  19704304.01225  25501474.357
  -1578517.288 7   -725568.54629  22081593.031
  -2490486.237 6  -3985797.53726  24032282.867
  -3869582.984 6  -1327843.22525  24980069.558
  -3462396.604 6  13463814.55225  25000593.020
  -6309943.031 8  -4918979.99029  22084897.194
 92  8 27 21 56 30.0050000  0  6G20G 3G23G26G16G17
  20490142.867 5  19822147.46125  25530260.249
  -1543069.658 7   -697947.00229  22088340.040
  -2542815.875 6  -4026573.72326  24022324.331
  -3886627.749 6  -1341124.72725  24976823.915
  -3330552.154 6  13566550.47925  25025684.269
  -6299637.043 7  -4910949.30529  22086857.777
 92  8 27 21 57  0.0050000  0  6G20G 3G23G26G16G17
  20641488.278 5  19940078.64125  25559057.053
  -1507188.545 7   -669987.69129  22095165.115
  -2594796.519 6  -4067077.96526  24012434.358
  -3903245.947 6  -1354073.88825  24973659.126
  -3198427.925 6  13669504.38825  25050831.190
  -6288942.501 7  -4902615.86329  22088892.468
 92  8 27 21 57 30.0050000  0  6G20G 3G23G26G16G17
  20792933.277 5  20058087.50825  25587869.776
  -1470882.909 7   -641697.56029  22102073.053
  -2646431.670 6  -4107312.96126  24002605.122
  -3919439.067 6  -1366691.72725  24970581.246
  -3066028.550 6  13772672.74825  25076016.665
  -6277886.328 8  -4894000.60029  22090996.801
 92  8 27 21 58  0.0050000  0  6G20G 3G23G26G16G17
  20944462.477 5  20176161.88525  25616711.130
  -1434163.845 7   -613085.30629  22109062.355
  -2697740.468 6  -4147293.69326  23992840.672
  -3935207.403 6  -1378978.63425  24967584.671
  -2933358.175 6  13876052.22525  25101264.916
  -6266484.016 7  -4885115.66729  22093165.350
 92  8 27 21 58 30.0050000  0  6G20G 3G23G26G16G17
  21096055.801 5  20294286.27325  25645559.798
  -1397047.087 7   -584163.14329  22116123.636
  -2748747.570 6  -4187039.33226  23983135.671
  -3950580.442 6  -1390957.53225  24964653.990
  -2800439.282 6  13979625.36425  25126564.222
  -6254767.839 7  -4875986.14129  22095396.076
 92  8 27 21 59  0.0050000  0  6G20G 3G23G26G16G17
  21247706.520 5  20412455.36125  25674413.174
  -1359535.280 7   -554933.13229  22123260.585
  -2799451.176 6  -4226548.47327  23973484.662
  -3965582.728 6  -1402647.48325  24961798.077
  -2667286.317 6  14083380.90325  25151902.290
  -6242760.426 7  -4866629.66129  22097680.014
 92  8 27 21 59 30.0050000  0  6G20G 3G23G26G16G17
  21399407.415 5  20530663.55725  25703287.025
  -1321631.510 7   -525397.70429  22130475.121
  -2849868.223 6  -4265834.34427  23963894.781
  -3980207.215 6  -1414043.05625  24959015.523
  -2533898.441 6  14187319.46825  25177280.711
  -6230448.722 7  -4857036.08829  22100021.394
 92  8 27 22  0  0.0050000  0  6G20G 3G23G26G16G17
  21551159.062 5  20648911.29825  25732161.865
  -1283330.952 7   -495553.10029  22137761.876
  -2900005.175 6  -4304901.96127  23954350.198
  -3994467.175 6  -1425154.60225  24956301.862
  -2400271.651 6  14291444.25525  25202712.645
  -6217817.547 7  -4847193.58329  22102427.048
 92  8 27 22  0 30.0050000  0  6G20G 3G23G26G16G17
  21702900.874 5  20767151.36925  25761042.911
  -1244690.076 7   -465443.31429  22145117.374
  -2949921.978 6  -4343798.01427  23944854.932
  -4008417.096 6  -1436024.54725  24953648.968
  -2266457.273 6  14395715.17925  25228178.156
  -6204923.288 7  -4837146.06329  22104879.950
 92  8 27 22  1  0.0050000  0  6G20G 3G23G26G16G17
  21854653.344 5  20885399.73825  25789911.036
  -1205684.289 7   -435049.18329  22152540.236
  -2999597.942 6  -4382506.38927  23935399.298
  -4022005.245 6  -1446612.60925  24951061.370
  -2132419.612 6  14500160.09025  25253684.318
  -6191731.497 7  -4826866.71429  22107391.281
 92  8 27 22  1 30.0050000  0  6G20G 3G23G26G16G17
  22006431.901 5  21003668.43225  25818803.864
  -1166294.109 7   -404355.53429  22160034.657
  -3049013.547 6  -4421011.91827  23925997.956
  -4035206.919 6  -1456899.51325  24948555.644
  -1998137.213 5  14604795.70025  25279232.601
  -6178194.880 7  -4816318.65529  22109965.899
 92  8 27 22  2  0.0050000  0  6G20G 3G23G26G16G17
  22158252.894 5  21121970.16125  25847688.687
  -1126499.201 7   -373346.51229  22167607.235
  -3098124.518 6  -4459280.05327  23916653.395
  -4048001.435 6  -1466869.15325  24946114.524
  -1863608.146 5  14709623.53525  25304833.528
  -6164288.552 7  -4805482.52629  22112610.668
 92  8 27 22  2 30.0050000  0  6G20G 3G23G26G16G17
  22310107.940 5  21240298.52325  25876588.740
  -1086303.227 7   -342024.95229  22175255.720
  -3146909.061 6  -4497293.84427  23907367.324
  -4060368.033 6  -1476505.34625  24943765.620
  -1728850.952 5  14814629.14825  25330477.865
  -6150014.244 7  -4794359.65029  22115330.116
 92  8 27 22  3  0.0050000  0  6G20G 3G23G26G16G17
  22461981.669 5  21358641.39825  25905492.930
  -1045718.026 7   -310400.10629  22182980.742
  -3195372.833 6  -4535057.67827  23898147.597
  -4072327.689 5  -1485824.43126  24941484.590
  -1593894.002 5  14919790.34825  25356159.256
  -6135383.169 7  -4782958.77329  22118108.982
 92  8 27 22  3 30.0050000  0  6G20G 3G23G26G16G17
  22613877.784 5  21477001.68825  25934399.939
  -1004735.539 7   -278465.69929  22190778.674
  -3243503.686 6  -4572562.10327  23888984.740
  -4083888.704 5  -1494832.91126  24939287.710
  -1458743.806 5  15025102.18425  25381871.586
  -6120400.678 7  -4771284.05129  22120961.327
 92  8 27 22  4  0.0050000  0  6G20G 3G23G26G16G17
  22765797.249 5  21595380.17625  25963304.878
   -963351.013 7   -246218.00929  22198653.562
  -3291295.408 6  -4609802.26227  23879891.915
  -4095030.906 5  -1503515.00626  24937166.439
  -1323400.771 5  15130564.27725  25407627.356
  -6105094.410 7  -4759357.04729  22123875.340
 92  8 27 22  4 30.0050000  0  6G20G 3G23G26G16G17
  22917739.663 5  21713776.56925  25992212.845
   -921560.952 7   -213654.30629  22206606.936
  -3338759.262 6  -4646786.93627  23870858.419
  -4105761.199 5  -1511876.14126  24935125.062
  -1187853.319 5  15236185.64025  25433429.863
  -6089478.355 7  -4747188.64729  22126845.084
 92  8 27 22  5  0.0050000  0  6G20G 3G23G26G16G17
  23069700.778 5  21832187.52325  26021133.974
   -879364.959 7   -180774.31529  22214635.678
  -3385910.771 6  -4683528.24927  23861888.448
  -4116097.155 5  -1519930.03426  24933150.419
  -1052100.157 5  15341967.31225  25459261.630
  -6073566.554 7  -4734789.80229  22129873.557
 92  8 27 22  5 30.0050000  0  6G20G 3G23G26G16G17
  23221681.100 5  21950613.43025  26050056.571
   -836758.883 7   -147574.75929  22222742.456
  -3432746.252 6  -4720023.29027  23852974.869
  -4126022.201 5  -1527663.71626  24931265.384
   -916139.076 6  15447910.98925  25485135.488
  -6057365.988 8  -4722165.93829  22132958.212
 92  8 27 22  6  0.0050000  0  6G20G 3G23G26G16G17
  23373668.722 5  22069045.02725  26078976.260
   -793750.880 7   -114062.03729  22230927.809
  -3479276.814 6  -4756280.74227  23844120.769
  -4135543.116 5  -1535082.49425  24929454.967
   -779979.493 5  15554009.36825  25511035.278
  -6040876.283 8  -4709316.78729  22136099.857
 92  8 27 22  6 30.0050000  0  6G20G 3G23G26G16G17
  23525657.935 5  22187477.85625  26107892.352
   -750342.193 7    -80237.05529  22239186.971
  -3525506.689 6  -4792303.88327  23835321.740
  -4144670.001 5  -1542194.24325  24927720.398
   -643619.471 6  15660263.88625  25536992.448
  -6024076.944 8  -4696226.34929  22139292.557
 92  8 27 22  7  0.0060000  0  6G20G 3G23G26G16G17
  23677660.165 5  22305920.80525  26136825.712
   -706521.289 7    -46090.88629  22247527.797
  -3571427.768 6  -4828086.39327  23826583.330
  -4153371.754 5  -1548974.71425  24926062.516
   -507053.693 5  15766678.75925  25562977.109
  -6006948.556 7  -4682879.52929  22142553.099
 92  8 27 22  7 30.0060000  0  6G20G 3G23G26G16G17
  23829660.497 5  22424362.34325  26165751.277
   -662291.507 7    -11626.10129  22255941.562
  -3617032.985 6  -4863622.81127  23817904.008
  -4161633.230 5  -1555412.13125  24924491.094
   -370290.283 5  15873247.61025  25589003.831
  -5989475.055 7  -4669263.78029  22145878.517
 92  8 27 22  8  0.0060000  0  6G20G 3G23G26G16G17
  23981667.293 5  22542808.84725  26194677.352
   -617644.583 7     23163.73329  22264439.060
  -3662309.151 6  -4898902.81327  23809289.112
  -4169449.975 5  -1561502.99125  24923000.406
   -233316.911 5  15979980.08125  25615073.034
  -5971634.675 7  -4655362.15529  22149274.087
 92  8 27 22  8 30.0060000  0  6G20G 3G23G26G16G17
  24133660.679 5  22661244.93525  26223606.425
   -572596.418 7     58266.20229  22273013.214
  -3707261.178 6  -4933930.23227  23800733.155
  -4176836.495 6  -1567258.58425  24921597.947
    -96162.501 5  16086853.63425  25641167.479
  -5953457.004 7  -4641197.67129  22152729.105
 92  8 27 22  9  0.0060000  0  6G20G 3G23G26G16G17
  24285647.363 5  22779675.79425  26252521.558
   -527135.729 7     93690.12829  22281662.136
  -3751876.523 6  -4968695.31327  23792244.502
  -4183783.072 6  -1572671.40425  24920273.853
     41167.269 5  16193863.83025  25667307.703
  -5934957.449 8  -4626782.40229  22156252.925
 92  8 27 22  9 30.0060000  0  6G20G 3G23G26G16G17
  24437622.519 5  22898097.68225  26281445.654
   -481263.760 7    129434.54529  22290392.992
  -3796151.261 6  -5003194.96227  23783815.717
  -4190307.220 6  -1577755.02725  24919037.090
    178679.821 5  16301016.45725  25693469.181
  -5916143.425 7  -4612122.08629  22159832.867
 92  8 27 22 10  0.0060000  0  6G20G 3G23G26G16G17
  24589594.095 5  23016516.75925  26310362.465
   -434968.584 7    165508.72429  22299202.363
  -3840092.211 6  -5037434.56527  23775458.283
  -4196407.966 6  -1582508.76225  24917870.987
    316382.869 5  16408317.48825  25719666.485
  -5897021.062 7  -4597221.51629  22163471.508
 92  8 27 22 10 30.0060000  0  6G20G 3G23G26G16G17
  24741563.931 5  23134934.46125  26339281.675
   -388244.541 7    201917.10329  22308091.420
  -3883701.510 6  -5071415.69927  23767158.379
  -4202077.543 6  -1586926.46125  24916794.792
    454285.221 5  16515773.86025  25745911.157
  -5877588.344 8  -4582079.09429  22167169.898
 92  8 27 22 11  0.0060000  0  6G20G 3G23G26G16G17
  24893540.674 5  23253357.56525  26368198.036
   -341079.146 7    238669.37328  22317065.257
  -3926980.440 6  -5105139.41427  23758921.641
  -4207300.969 6  -1590996.56525  24915796.483
    592411.863 5  16623405.02125  25772201.696
  -5857807.308 7  -4566665.26529  22170934.661
 92  8 27 22 11 30.0060000  0  6G20G 3G23G26G16G17
  25045506.677 5  23371772.27125  26397123.542
   -293486.280 7    275754.73928  22326124.266
  -3969942.753 6  -5138616.41027  23750747.140
  -4212092.363 6  -1594730.01725  24914888.142
    730754.023 5  16731204.05525  25798520.986
  -5837658.055 8  -4550964.52229  22174768.617
 92  8 27 22 12  0.0060000  0  6G20G 3G23G26G16G17
  25197467.359 5  23490182.85925  26426033.038
   -245456.700 7    313180.40328  22335264.308
  -4012577.750 6  -5171838.35327  23742637.424
  -4216427.390 6  -1598107.84725  24914065.931
    869295.975 5  16839158.80825  25824889.531
  -5817133.333 8  -4534971.19129  22178673.264
 92  8 27 22 12 30.0060000  0  6G20G 3G23G26G16G17
  25349426.771 5  23608592.42625  26454949.370
   -196982.524 7    350952.51428  22344489.282
  -4054855.869 7  -5204782.22827  23734586.258
  -4220282.787 6  -1601111.94925  24913329.251
   1008034.642 5  16947266.85525  25851290.754
  -5796226.560 8  -4518680.17729  22182653.788
 92  8 27 22 13  0.0060000  0  6G20G 3G23G26G16G17
  25501388.666 5  23727003.94825  26483876.944
   -148056.106 7    389077.01328  22353799.667
  -4096762.629 7  -5237436.71927  23726614.207
  -4223648.192 6  -1603734.23925  24912687.995
   1146962.705 5  17055522.46325  25877734.337
  -5774945.271 8  -4502097.31429  22186699.368
 92  8 27 22 13 30.0060000  0  6G20G 3G23G26G16G17
  25653343.652 5  23845410.12825  26512789.558
    -98683.130 7    427549.49128  22363196.121
  -4138298.623 6  -5269802.29828  23718708.200
  -4226525.293 6  -1605976.04625  24912141.473
   1286057.072 5  17163907.68325  25904194.679
  -5753333.498 7  -4485256.92729  22190813.689
 92  8 27 22 14  0.0060000  0  6G20G 3G23G26G16G17
  25805285.911 5  23963806.37925  26541703.581
    -48865.224 7    466368.66028  22372675.499
  -4179466.412 6  -5301880.95528  23710876.032
  -4228921.260 6  -1607842.92125  24911686.538
   1425304.657 5  17272412.31525  25930697.532
  -5731425.093 7  -4468185.41629  22194981.494
 92  8 27 22 14 30.0060000  0  6G20G 3G23G26G16G17
  25957207.711 5  24082186.63725  26570607.981
      1393.306 7    505531.14528  22382237.799
  -4220265.383 6  -5333672.26228  23703111.887
  -4230852.725 6  -1609347.86925  24911317.164
   1564708.748 5  17381038.85025  25957226.856
  -5709221.656 7  -4450883.99929  22199208.088
 92  8 27 22 15  0.0060000  0  6G20G 3G23G26G16G17
  26109107.400 5  24200549.73425  26599518.646
     52094.704 7    545038.74328  22391887.159
  -4260700.071 7  -5365179.67528  23695420.052
  -4232334.303 6  -1610502.23125  24911035.479
   1704263.715 5  17489782.94425  25983776.476
  -5686704.606 7  -4433338.21929  22203493.681
 92  8 27 22 15 30.0060000  0  6G20G 3G23G26G16G17
  26260999.529 5  24318906.90425  26628422.657
    103257.517 7    584905.88928  22401622.260
  -4300757.640 7  -5396393.25328  23687798.338
  -4233351.095 6  -1611294.43225  24910842.143
   1843984.293 5  17598656.13025  26010361.561
  -5663837.438 7  -4415519.62329  22207843.910
 92  8 27 22 16  0.0060000  0  6G20G 3G23G26G16G17
  26412877.883 5  24437253.35025  26657320.491
    154879.209 7    625130.60928  22411444.840
  -4340428.401 7  -5427305.39528  23680248.035
  -4233894.497 6  -1611717.74125  24910742.792
   1983878.602 5  17707664.66025  26036989.247
  -5640592.196 7  -4397406.41229  22212267.497
 92  8 27 22 16 30.0060000  0  6G20G 3G23G26G16G17
  26564720.382 5  24555571.87825  26686227.799
    206941.301 7    665698.48128  22421353.940
  -4379726.597 7  -5457927.26028  23672767.884
  -4233962.560 6  -1611770.70525  24910726.423
   2123935.037 5  17816799.54525  26063635.131
  -5616971.234 7  -4379000.43721  22216760.757
 92  8 27 22 17  0.0060000  0  5G 3G23G26G16G17
    259440.907 7    706607.28028  22431341.256
  -4418656.937 7  -5488262.48528  23665361.481
  -4233546.890 6  -1611446.69125  24910802.240
   2264156.164 5  17926062.73825  26090329.341
  -5592983.274 7  -4360308.48523  22221326.266
 92  8 27 22 17 30.0060000  0  5G 3G23G26G16G17
    312376.713 7    747855.98128  22441415.901
  -4457214.106 7  -5518306.91428  23658022.862
  -4232631.272 6  -1610733.12725  24910978.698
   2404548.954 5  18035459.72825  26117039.560
  -5568645.354 8  -4341343.84823  22225958.719
 92  8 27 22 18  0.0060000  0  5G 3G23G26G16G17
    365759.752 7    789453.19128  22451573.139
  -4495381.395 7  -5548047.52728  23650757.841
  -4231196.896 6  -1609615.31125  24911248.362
   2545126.623 5  18145000.77225  26143785.754
  -5543964.049 7  -4322111.61924  22230656.467
 92  8 27 22 18 30.0060000  0  5G 3G23G26G16G17
    419607.253 7    831412.29728  22461820.435
  -4533147.807 7  -5577475.80628  23643571.606
  -4229242.629 6  -1608092.40825  24911623.882
   2685889.740 5  18254686.30325  26170577.846
  -5518942.209 7  -4302614.06024  22235416.452
 92  8 27 22 19  0.0060000  0  5G 3G23G26G16G17
    473931.600 7    873742.96128  22472159.797
  -4570491.427 7  -5606574.62728  23636467.274
  -4226770.629 6  -1606166.06925  24912089.369
   2826835.892 5  18364514.48625  26197397.489
  -5493570.631 7  -4282843.95225  22240241.821
 92  8 27 22 19 30.0060000  0  5G 3G23G26G16G17
    528724.243 7    916438.55128  22482584.361
  -4607419.702 7  -5635349.78428  23629436.961
  -4223798.302 6  -1603849.88725  24912659.814
   2967940.819 5  18474466.38025  26224252.598
  -5467851.037 7  -4262802.68525  22245139.800
 92  8 27 22 20  0.0060000  0  5G 3G23G26G16G17
    583968.927 7    959486.37528  22493098.922
  -4643952.655 7  -5663816.90628  23622486.873
  -4220351.863 6  -1601164.23726  24913315.041
   3109190.879 5  18584531.38125  26251128.512
  -5441802.382 7  -4242505.00125  22250095.370
 92  8 27 22 20 30.0060000  0  5G 3G23G26G16G17
    639655.244 7   1002878.32628  22503693.407
  -4680104.605 7  -5691987.16128  23615607.145
  -4216449.772 6  -1598123.57426  24914058.676
   3250563.053 5  18694691.49025  26278031.347
  -5415424.828 7  -4221951.03125  22255113.565
 92  8 27 22 21  0.0060000  0  5G 3G23G26G16G17
    695802.655 7   1046629.57628  22514380.858
  -4715870.908 7  -5719856.88828  23608799.188
  -4212059.444 6  -1594702.43826  24914892.579
   3392076.615 5  18804961.78525  26304964.012
  -5388694.948 7  -4201122.51125  22260201.253
 92  8 27 22 21 30.0060000  0  5G 3G23G26G16G17
    752429.515 7   1090754.43328  22525154.980
  -4751262.450 7  -5747434.61128  23602067.229
  -4207154.778 6  -1590880.52126  24915826.103
   3533757.206 5  18915362.25425  26331921.890
  -5361614.664 7  -4180020.97225  22265355.795
 92  8 27 22 22  0.0060000  0  5G 3G23G26G16G17
    809525.171 7   1135244.56328  22536019.788
  -4786300.378 7  -5774736.78728  23595399.785
  -4201740.662 6  -1586661.64226  24916858.288
   3675595.720 5  19025885.74525  26358912.385
  -5334204.702 7  -4158662.53825  22270571.884
 92  8 27 22 22 30.0060000  0  5G 3G23G26G16G17
    867088.005 7   1180098.73328  22546975.284
  -4820983.629 7  -5801762.59428  23588795.237
  -4195815.441 6  -1582044.49626  24917982.360
   3817574.004 5  19136518.17725  26385926.533
  -5306467.888 7  -4137049.39625  22275849.041
 92  8 27 22 23  0.0060000  0  5G 3G23G26G16G17
    925123.591 7   1225321.28928  22558019.278
  -4855304.507 7  -5828506.04628  23582267.646
  -4189370.589 6  -1577022.46526  24919206.023
   3959710.649 5  19247273.99825  26412980.014
  -5278409.414 7  -4115185.62625  22281188.494
 92  8 27 22 23 30.0060000  0  5G 3G23G26G16G17
    983640.738 7   1270919.08328  22569154.469
  -4889228.798 7  -5854940.46128  23575813.294
  -4182408.396 6  -1571597.28226  24920534.613
   4102016.163 5  19358161.40425  26440054.121
  -5250018.082 7  -4093062.49825  22286588.956
 92  8 27 22 24  0.0060000  0  5G 3G23G26G16G17
   1042637.816 7   1316890.85028  22580379.988
  -4922732.357 7  -5881047.03428  23569437.128
  -4174932.957 6  -1565772.20626  24921955.509
   4244482.322 5  19469173.98625  26467172.208
  -5221268.365 7  -4070660.09225  22292061.337
 92  8 27 22 24 30.0060000  0  5G 3G23G26G16G17
   1102088.586 7   1363216.13028  22591693.886
  -4955823.224 7  -5906832.04128  23563138.189
  -4166967.717 6  -1559565.46426  24923472.249
   4387078.635 5  19580287.96025  26494300.278
  -5192181.404 7  -4047994.91325  22297599.343
 92  8 27 22 25  0.0060000  0  5G 3G23G26G16G17
   1161970.647 7   1409877.48828  22603087.198
  -4988528.192 7  -5932316.32228  23556914.348
  -4158524.292 6  -1552986.09426  24925080.396
   4529792.792 5  19691493.78625  26521458.296
  -5162766.779 7  -4025074.36925  22303196.588
 92  8 27 22 25 30.0060000  0  5G 3G23G26G16G17
   1222283.446 7   1456874.47928  22614567.421
  -5020842.134 7  -5957495.93128  23550763.476
  -4149603.016 6  -1546034.36626  24926774.313
   4672615.063 5  19802783.87225  26548640.059
  -5133013.280 7  -4001889.82325  22308854.272
 92  8 27 22 26  0.0060000  0  5G 3G23G26G16G17
   1283037.396 7   1504215.22828  22626127.778
  -5052768.753 7  -5982373.74328  23544691.899
  -4140182.837 6  -1538693.91726  24928570.730
   4815559.393 5  19914169.03125  26575838.160
  -5102917.385 7  -3978438.43625  22314584.654
 92  8 27 22 26 30.0060000  0  5G 3G23G26G16G17
   1344242.617 7   1551907.62628  22637774.025
  -5084305.405 7  -6006947.67028  23538689.934
  -4130249.272 6  -1530953.40826  24930461.910
   4958631.527 5  20025653.82725  26603065.851
  -5072479.584 7  -3954720.65525  22320373.737
 92  8 27 22 27  0.0070000  0  5G 3G23G26G16G17
   1405916.992 7   1599965.59728  22649507.602
  -5115456.179 7  -6031220.89228  23532760.219
  -4119795.354 6  -1522807.43726  24932449.894
   5101840.480 5  20137245.19225  26630313.837
  -5041682.616 7  -3930722.98825  22326233.720
 92  8 27 22 27 30.0070000  0  5G 3G23G26G16G17
   1468066.685 7   1648393.93528  22661337.023
  -5146196.144 7  -6055174.04329  23526910.998
  -4108823.735 6  -1514258.04726  24934533.901
   5245161.188 5  20248923.70625  26657594.831
  -5010534.160 7  -3906451.43625  22332163.615
 92  8 27 22 28  0.0070000  0  5G 3G23G26G16G17
   1530695.434 7   1697195.56328  22673255.272
  -5176538.971 7  -6078817.72029  23521136.876
  -4097326.851 6  -1505299.38326  24936724.095
   5388582.244 5  20360680.34325  26684878.343
  -4979044.190 7  -3881913.77525  22338154.487
 92  8 27 22 28 30.0070000  0  5G 3G23G26G16G17
   1593804.437 7   1746371.41128  22685263.519
  -5206490.592 7  -6102156.57629  23515436.922
  -4085315.510 6  -1495939.81226  24939012.111
   5532079.997 5  20472496.78325  26712184.939
  -4947215.242 7  -3857111.98225  22344212.693
 92  8 27 22 29  0.0070000  0  5G 3G23G26G16G17
   1657383.013 7   1795913.18128  22697364.342
  -5236053.378 7  -6125192.43429  23509813.924
  -4072809.562 6  -1486194.83926  24941389.046
   5675644.531 5  20584365.25125  26739510.722
  -4915066.905 7  -3832061.30725  22350330.918
 92  8 27 22 29 30.0070000  0  5G 3G23G26G16G17
   1721416.577 7   1845809.47128  22709546.618
  -5265230.899 7  -6147928.09229  23504260.149
  -4059809.468 6  -1476064.84126  24943864.042
   5819279.957 5  20696288.96325  26766841.151
  -4882616.302 7  -3806775.09025  22356504.214
 92  8 27 22 30  0.0070000  0  5G 3G23G26G16G17
   1785911.738 7   1896065.44228  22721820.361
  -5294032.289 7  -6170370.66829  23498779.434
  -4046298.661 6  -1465536.88126  24946435.542
   5963009.440 5  20808285.96525  26794186.571
  -4849843.794 7  -3781238.06625  22362739.807
 92  8 27 22 30 30.0070000  0  5G 3G23G26G16G17
   1850873.485 7   1946685.00328  22734184.851
  -5322433.058 7  -6192501.06429  23493372.437
  -4032278.040 6  -1454611.67326  24949101.237
   6106846.794 5  20920367.02125  26821561.849
  -4816737.709 7  -3755441.07825  22369043.903
 92  8 27 22 31  0.0070000  0  5G 3G23G26G16G17
   1916310.673 7   1997675.02728  22746635.682
  -5350402.457 7  -6214295.33629  23488051.001
  -4017720.967 6  -1443268.41826  24951872.368
   6250812.501 5  21032548.07325  26848955.715
  -4783280.206 7  -3729370.28825  22375409.306
 92  8 27 22 31 30.0070000  0  4G 3G23G26G17
   1982241.104 7   2049049.40028  22759181.516
  -5377931.423 7  -6235746.40929  23482813.027
  -4002594.217 6  -1431481.26826  24954750.136
  -4749444.074 7  -3703004.44825  22381849.268
 92  8 27 22 32  0.0070000  0  4G 3G23G26G17
   2048673.853 7   2100815.19828  22771821.366
  -5405001.978 7  -6256840.26629  23477665.231
  -3986899.041 6  -1419251.18726  24957736.519
  -4715236.371 7  -3676349.05925  22388357.283
 92  8 27 22 32 30.0070000  0  4G 3G23G26G17
   2115625.294 7   2152985.15528  22784564.224
  -5431583.616 7  -6277553.16729  23472601.106
  -3970616.909 6  -1406563.76626  24960838.561
  -4680653.415 7  -3649401.29725  22394937.877
 92  8 27 22 33  0.0070000  0  4G 3G23G26G17
   2183077.412 7   2205545.24828  22797398.190
  -5457710.504 7  -6297911.71929  23467631.297
  -3953749.683 6  -1393420.39426  24964048.979
  -4645722.629 7  -3622182.48525  22401585.955
 92  8 27 22 33 30.0070000  0  4G 3G23G26G17
   2251007.232 7   2258477.60528  22810326.380
  -5483421.785 7  -6317946.41329  23462740.453
  -3936329.840 6  -1379846.40326  24967360.876
  -4610482.351 7  -3594722.50725  22408288.655
 92  8 27 22 34  0.0070000  0  4G 3G23G26G17
   2319410.220 7   2311778.64228  22823344.987
  -5508726.894 7  -6337664.59229  23457923.328
  -3918368.740 6  -1365850.67226  24970780.099
  -4574944.991 7  -3567031.03525  22415052.122
 92  8 27 22 34 30.0070000  0  4G 3G23G26G17
   2388276.944 7   2365441.03528  22836447.237
  -5533651.628 7  -6357086.38629  23453181.810
  -3899868.703 6  -1351434.97726  24974302.990
  -4539106.941 7  -3539105.26925  22421873.780
 92  8 27 22 35  0.0070000  0  4G 3G23G26G17
   2457602.532 7   2419460.99327  22849640.833
  -5558210.348 7  -6376222.98429  23448506.187
  -3880845.050 6  -1336611.28926  24977917.468
  -4502963.500 8  -3510941.52025  22428749.310
 92  8 27 22 35 30.0070000  0  4G 3G23G26G17
   2527401.777 7   2473850.01027  22862919.870
  -5582373.533 7  -6395051.37929  23443908.840
  -3861300.005 6  -1321381.31826  24981640.170
  -4466487.898 7  -3482518.97725  22435691.724
 92  8 27 22 36  0.0070000  0  4G 3G23G26G17
   2597661.092 7   2528597.52827  22876292.712
  -5606138.215 7  -6413569.22429  23439386.380
  -3841243.252 6  -1305752.57526  24985454.340
  -4429680.777 8  -3453838.07625  22442696.435
 92  8 27 22 36 30.0070000  0  4G 3G23G26G17
   2668392.084 7   2583712.59527  22889752.164
  -5629477.594 7  -6431755.69129  23434943.126
  -3820668.988 6  -1289720.61526  24989371.248
  -4392518.284 8  -3424880.27025  22449767.609
 92  8 27 22 37  0.0070000  0  4G 3G23G26G17
   2739580.186 7   2639183.84527  22903297.327
  -5652386.498 7  -6449606.71729  23430582.915
  -3799589.408 6  -1273294.89026  24993383.191
  -4355007.906 7  -3395651.39625  22456903.359
 92  8 27 22 37 30.0070000  0  4G 3G23G26G17
   2811218.209 7   2695005.68927  22916928.171
  -5674865.668 7  -6467122.87229  23426308.174
  -3777999.770 6  -1256471.71726  24997490.228
  -4317159.970 7  -3366159.47325  22464107.372
 92  8 27 22 38  0.0070000  0  5G 3G23G26G28G17
   2883294.681 7   2751169.16627  22930647.783
  -5696935.484 7  -6484320.06029  23422110.240
  -3755910.326 6  -1239259.09526  25001697.545
  -1399343.22115   -145891.17732  26765645.879
  -4278991.969 7  -3336418.16025  22471369.365
 92  8 27 22 38 30.0070000  0  5G 3G23G26G28G17
   2955801.319 7   2807667.84827  22944445.101
  -5718620.600 7  -6501217.49229  23417982.458
  -3733338.292 6  -1221670.43926  25005988.085
  -1468229.376 5   -199568.52824  26752541.051
  -4240517.707 7  -3306438.20125  22478692.575
 92  8 27 22 39  0.0070000  0  5G 3G23G26G28G17
   3028743.831 7   2864506.16127  22958323.423
  -5739926.966 7  -6517819.76329  23413924.228
  -3710268.843 6  -1203694.16526  25010375.907
  -1537093.946 5   -253229.07925  26739437.992
  -4201754.212 7  -3276232.85125  22486071.846
 92  8 27 22 39 30.0070000  0  5G 3G23G26G28G17
   3102111.012 7   2921675.39327  22972284.668
  -5760874.576 7  -6534142.52129  23409943.014
  -3686720.763 6  -1185344.93626  25014855.226
  -1605938.160 5   -306873.78425  26726332.745
  -4162726.749 7  -3245821.82525  22493494.798
 92  8 27 22 40  0.0070000  0  5G 3G23G26G28G17
   3175899.733 7   2979173.09427  22986328.176
  -5781466.311 7  -6550187.95329  23406024.067
  -3662693.999 6  -1166622.73426  25019433.057
  -1674769.488 5   -360508.41725  26713239.939
  -4123444.700 7  -3215212.41525  22500969.613
 92  8 27 22 40 30.0070000  0  5G 3G23G26G28G17
   3250105.654 7   3036995.89827  23000447.292
  -5801700.892 7  -6565955.07329  23402171.854
  -3638180.488 6  -1147521.21026  25024096.119
  -1743590.028 5   -414134.67325  26700141.976
  -4083915.186 8  -3184410.16325  22508494.883
 92  8 27 22 41  0.0070000  0  5G 3G23G26G28G17
   3324766.635 7   3095173.30027  23014653.437
  -5821529.199 7  -6581405.63729  23398400.105
  -3613131.301 6  -1128002.32326  25028864.258
  -1812351.780 5   -467715.12325  26687053.158
  -4044103.189 7  -3153387.83225  22516066.921
 92  8 27 22 41 30.0070000  0  5G 3G23G26G28G17
   3399882.263 7   3153704.93827  23028947.541
  -5840945.396 7  -6596535.08729  23394703.574
  -3587556.173 6  -1108073.56326  25033730.159
  -1881064.987 5   -521257.74725  26673981.097
  -4004001.862 8  -3122140.01725  22523698.108
 92  8 27 22 42  0.0070000  0  5G 3G23G26G28G17
   3475456.169 7   3212593.72027  23043330.294
  -5859956.812 7  -6611349.10029  23391084.149
  -3561451.974 6  -1087732.57126  25038694.782
  -1949742.887 5   -574772.85425  26660904.600
  -3963616.163 8  -3090670.61525  22531386.496
 92  8 27 22 42 30.0070000  0  5G 3G23G26G28G17
   3551488.487 7   3271839.68027  23057798.368
  -5878570.210 7  -6625852.96729  23387546.059
  -3534825.513 6  -1066984.63326  25043759.836
  -2018379.795 5   -628256.01625  26647852.236
  -3922949.613 8  -3058982.38425  22539124.319
 92  8 27 22 43  0.0070000  0  5G 3G23G26G28G17
   3627968.668 7   3331434.62127  23072354.611
  -5896807.027 7  -6640063.41129  23384073.023
  -3507688.266 6  -1045838.66126  25048926.759
  -2086987.610 5   -681716.51225  26634798.643
  -3882006.372 8  -3027078.54225  22546914.846
 92  8 27 22 43 30.0070000  0  5G 3G23G26G28G17
   3704888.800 7   3391372.38527  23086992.008
  -5914685.945 7  -6653994.95429  23380673.377
  -3480052.692 6  -1024304.38426  25054181.011
  -2155578.508 5   -735163.78725  26621742.081
  -3840786.107 8  -2994958.82525  22554758.406
 92  8 27 22 44  0.0070000  0  5G 3G23G26G28G17
   3782253.064 7   3451656.24727  23101712.058
  -5932205.077 7  -6667646.16829  23377335.727
  -3451893.846 6  -1002362.37826  25059545.588
  -2224127.217 5   -788578.24425  26608699.850
  -3799275.352 8  -2962612.76925  22562657.757
 92  8 27 22 44 30.0070000  0  5G 3G23G26G28G17
   3860057.956 7   3512283.43227  23116517.518
  -5949352.714 7  -6681007.89229  23374074.075
  -3423206.135 6   -980008.25326  25065003.909
  -2292617.349 5   -841947.06725  26595661.637
  -3757453.234 7  -2930024.09125  22570617.007
 92  8 27 22 45  0.0070000  0  5G 3G23G26G28G17
   3938295.040 7   3573247.37627  23131407.700
  -5966117.893 7  -6694071.61829  23370883.144
  -3394000.542 6   -957250.60126  25070563.650
  -2361058.501 5   -895277.68025  26582638.322
  -3715316.889 7  -2897190.55325  22578634.776
 92  8 27 22 45 30.0070000  0  5G 3G23G26G28G17
   4016961.017 7   3634545.53627  23146372.560
  -5982485.844 7  -6706825.80629  23367769.110
  -3364281.249 6   -934092.65926  25076214.648
  -2429454.437 5   -948573.07425  26569621.874
  -3672878.219 7  -2864121.45025  22586709.207
 92  8 27 22 46  0.0070000  0  5G 3G23G26G28G17
   4096061.853 7   3696182.56027  23161429.066
  -5998431.666 7  -6719251.04329  23364736.320
  -3334037.549 6   -910526.06626  25081971.922
  -2497796.583 5  -1001826.57425  26556612.320
  -3630135.802 7  -2830815.63025  22594844.854
 92  8 27 22 46 30.0070000  0  5G 3G23G26G28G17
   4175597.896 7   3758158.68427  23176563.459
  -6013947.586 7  -6731341.32529  23361781.355
  -3303293.135 6   -886569.32326  25087818.355
  -2566098.269 5  -1055048.58925  26543624.321
  -3587104.484 7  -2797284.72825  22603031.707
 92  8 27 22 47  0.0080000  0  5G 3G23G26G28G17
   4255583.571 7   3820485.18627  23191782.693
  -6029027.546 7  -6743091.86229  23358912.072
  -3272038.414 6   -862214.95426  25093770.674
  -2634355.738 5  -1108236.06125  26530638.331
  -3543792.703 8  -2763535.26425  22611274.291
 92  8 27 22 47 30.0080000  0  6G 3G23G26G28G17G21
   4336032.588 7   3883172.74627  23207091.475
  -6043675.025 7  -6754505.39929  23356124.571
  -3240262.103 6   -837454.12726  25099817.968
  -2702544.893 5  -1161370.31625  26517657.738
  -3500192.307 8  -2729560.88525  22619572.036
 -30171842.36215   -158227.07031  26121548.198
 92  8 27 22 48  0.0080000  0  6G 3G23G26G28G17G21
   4416967.990 7   3946239.26027  23222492.833
  -6057880.350 7  -6765574.44529  23353422.182
  -3207948.723 6   -812274.83826  25105968.779
  -2770643.181 5  -1214433.80925  26504696.720
  -3456288.440 7  -2695350.08525  22627925.093
 -30236004.881 5   -208223.65723  26109333.275
 92  8 27 22 48 30.0080000  0  6G 3G23G26G28G17G21
   4498401.559 7   4009693.98627  23237990.604
  -6071648.233 7  -6776302.59629  23350801.936
  -3175091.390 6   -786671.69026  25112219.212
  -2838635.633 5  -1267414.81625  26491760.406
  -3412063.132 7  -2660888.78325  22636342.246
 -30299986.673 5   -258079.38125  26097161.791
 92  8 27 22 49  0.0080000  0  6G 3G23G26G28G17G21
   4580315.342 7   4073522.91127  23253578.702
  -6085003.913 7  -6786709.55729  23348260.416
  -3141689.859 6   -760644.49926  25118576.581
  -2906517.046 5  -1320309.27825  26478843.668
  -3367505.959 8  -2626168.88225  22644820.557
 -30363808.473 5   -307810.41125  26085020.316
 92  8 27 22 49 30.0080000  0  6G 3G23G26G28G17G21
   4662700.342 7   4137719.01327  23269255.300
  -6097950.008 7  -6796797.37929  23345796.781
  -3107746.009 6   -734194.71826  25125030.543
  -2974297.930 5  -1373125.41125  26465941.890
  -3322617.189 8  -2591190.58725  22653366.471
 -30427470.429 5   -357416.91625  26072905.913
 92  8 27 22 50  0.0080000  0  6G 3G23G26G28G17G21
   4745543.141 7   4202271.82127  23285019.077
  -6110481.351 7  -6806562.00229  23343411.423
  -3073252.517 6   -707316.66026  25131598.217
  -3041979.249 5  -1425863.97925  26453064.185
  -3277408.343 7  -2555962.91225  22661965.838
 -30490970.212 5   -406897.04125  26060814.384
 92  8 27 22 50 30.0080000  0  6G 3G23G26G28G17G21
   4828828.037 7   4267169.14627  23300867.905
  -6122612.478 7  -6816014.76729  23341104.550
  -3038219.243 6   -680017.97326  25138266.920
  -3109573.285 5  -1478534.53125  26440203.778
  -3231880.788 8  -2520486.88025  22670632.807
 -30554317.580 5   -456258.41625  26048760.568
 92  8 27 22 51  0.0080000  0  6G 3G23G26G28G17G21
   4912549.393 7   4332406.55627  23316800.735
  -6134333.054 7  -6825147.63329  23338874.483
  -3002651.058 6   -652302.49126  25145033.206
  -3177092.576 5  -1531146.81725  26427354.613
  -3186060.650 7  -2484782.84525  22679349.003
 -30617536.993 5   -505520.07925  26036736.343
 92  8 27 22 51 30.0080000  0  6G 3G23G26G28G17G21
   4996725.431 7   4397998.25627  23332816.847
  -6145623.115 7  -6833945.03229  23336726.470
  -2966532.063 6   -624157.79726  25151908.016
  -3244542.996 5  -1583705.48825  26414514.892
  -3139960.690 7  -2448860.78625  22688120.361
 -30680604.747 5   -554663.58225  26024735.171
 92  8 27 22 52  0.0080000  0  6G 3G23G26G28G17G21
   5081366.609 7   4463952.41227  23348925.895
  -6156480.208 7  -6842405.05429  23334660.271
  -2929857.953 6   -595580.56726  25158884.936
  -3311913.945 5  -1636202.19725  26401696.126
  -3093573.416 7  -2412714.83725  22696949.399
 -30743505.190 5   -603676.68425  26012764.338
 92  8 27 22 52 30.0080000  0  6G 3G23G26G28G17G21
   5166465.306 7   4530263.07627  23365116.756
  -6166916.468 7  -6850537.14729  23332672.827
  -2892655.970 6   -566591.99126  25165965.914
  -3379218.284 5  -1688646.97825  26388889.652
  -3046903.209 7  -2376348.43025  22705830.031
 -30806253.580 5   -652571.32625  26000818.718
 92  8 27 22 53  0.0080000  0  6G 3G23G26G28G17G21
   5252040.282 7   4596944.86527  23381403.431
  -6176919.090 7  -6858331.33929  23330767.766
  -2854911.990 6   -537181.08026  25173143.126
  -3446432.628 5  -1741021.67125  26376099.037
  -2999940.499 7  -2339754.09225  22714766.604
 -30868840.284 5   -701339.95625  25988912.700
 92  8 27 22 53 30.0080000  0  6G 3G23G26G28G17G21
   5338093.447 7   4663999.26327  23397780.194
  -6186493.854 7  -6865792.14729  23328949.464
  -2816619.303 6   -507342.62126  25180431.980
  -3513532.738 5  -1793307.37925  26363324.220
  -2952665.776 7  -2302916.65025  22723762.357
 -30931248.008 5   -749969.16725  25977039.120
 92  8 27 22 54  0.0080000  0  6G 3G23G26G28G17G21
   5424617.082 7   4731420.26627  23414244.975
  -6195639.332 7  -6872918.42029  23327207.640
  -2777790.936 6   -477086.72326  25187823.213
  -3580505.625 5  -1845493.90325  26350585.829
  -2905075.177 8  -2265833.03225  22732818.008
 -30993488.321 5   -798467.92725  25965193.271
 92  8 27 22 54 30.0080000  0  6G 3G23G26G28G17G21
   5511600.592 7   4799199.61327  23430797.057
  -6204356.450 7  -6879710.92729  23325547.479
  -2738433.618 6   -446418.65326  25195314.067
  -3647345.486 5  -1897576.79525  26337864.046
  -2857183.746 7  -2228515.02025  22741932.058
 -31055578.205 5   -846849.44525  25953373.383
 92  8 27 22 55  0.0080000  0  6G 3G23G26G28G17G21
   5599042.112 7   4867335.83427  23447438.806
  -6212648.115 7  -6886171.90729  23323968.772
  -2698529.787 6   -415324.73126  25202909.309
  -3714054.933 5  -1949558.07225  26325169.544
  -2809006.965 7  -2190974.65425  22751097.823
 -31117512.907 5   -895110.08125  25941585.124
 92  8 27 22 55 30.0080000  0  6G 3G23G26G28G17G21
   5686936.283 7   4935824.79227  23464159.850
  -6220504.651 7  -6892293.84829  23322473.258
  -2658078.166 6   -383803.96326  25210603.362
  -3780652.951 5  -2001452.49425  26312496.927
  -2760550.902 8  -2153216.67123  22760320.158
 -31179275.962 5   -943236.97825  25929839.106
 92  8 27 22 56  0.0080000  0  6G 3G23G26G28G17G21
   5775277.514 7   5004662.10927  23480971.762
  -6227919.289 7  -6898071.42729  23321062.404
  -2617089.757 6   -351864.89726  25218404.232
  -3847149.621 5  -2053267.95825  26299843.707
  -2711827.305 8  -2115250.20922  22769591.360
 -31240874.809 5   -991235.89425  25918116.861
 92  8 27 22 56 30.0080000  0  6G 3G23G26G28G17G21
   5864070.261 7   5073851.24827  23497868.994
  -6234895.747 7  -6903507.58229  23319736.962
  -2575566.899 6   -319509.39926  25226303.763
  -3913538.856 5  -2104999.72125  26287208.624
  -2662830.699 8  -2077071.02221  22778914.486
 -31302299.183 5  -1039098.84725  25906426.274
 92  8 27 22 57  0.0080000  0  6G 3G23G26G28G17G21
   5953339.154 7   5143411.41027  23514857.873
  -6241423.381 7  -6908593.98329  23318494.682
  -2533489.449 6   -286721.75526  25234310.111
  -3979811.167 5  -2156640.35525  26274601.512
  -2613525.468 7  -2038651.34429  22788297.060
 -31363519.303 5  -1086802.65425  25894777.149
 92  8 27 22 57 30.0080000  0  6G 3G23G26G28G17G21
   6043078.373 7   5213338.08427  23531936.329
  -6247511.009 7  -6913337.53529  23317335.505
  -2490870.669 6   -253512.27726  25242421.205
  -4045965.941 5  -2208189.40725  26262006.961
  -2563897.158 7  -1999979.91229  22797741.572
 -31424548.591 5  -1134357.76925  25883164.418
 92  8 27 22 58  0.0080000  0  6G 3G23G26G28G17G21
   6133285.719 7   5283629.49727  23549099.208
  -6253179.478 7  -6917754.49229  23316255.862
  -2447714.199 6   -219883.82926  25250632.341
  -4111978.442 6  -2259627.61225  26249449.644
  -2513950.503 7  -1961060.43129  22807246.102
 -31485402.973 5  -1181776.58925  25871587.513
 92  8 27 22 58 30.0080000  0  6G 3G23G26G28G17G21
   6223959.605 7   5354284.45527  23566352.174
  -6258452.706 7  -6921863.44529  23315251.557
  -2404017.201 6   -185834.18126  25258947.594
  -4177851.511 6  -2310957.16425  26236906.927
  -2463685.351 7  -1921892.76729  22816812.030
 -31546072.863 5  -1229051.67125  25860046.103
 92  8 27 22 59  0.0080000  0  6G 3G23G26G28G17G21
   6315091.991 7   5425296.68727  23583694.988
  -6263334.516 7  -6925667.40029  23314324.599
  -2359768.157 6   -151354.39026  25267374.461
  -4243594.235 6  -2362185.14325  26224399.076
  -2413106.780 7  -1882480.87829  22826438.006
 -31606562.725 5  -1276186.44425  25848529.785
 92  8 27 22 59 30.0080000  0  6G 3G23G26G28G17G21
   6406671.668 7   5496657.47927  23601122.463
  -6267819.425 7  -6929162.09329  23313470.670
  -2314989.262 6   -116461.72126  25275890.425
  -4309203.244 6  -2413308.99625  26211918.686
  -2362234.504 7  -1842840.12229  22836117.045
 -31666881.168 5  -1323187.64925  25837047.254
 92  8 27 23  0  0.0080000  0  6G 3G23G26G28G17G21
   6498704.496 7   5568371.36127  23618637.088
  -6271896.959 7  -6932339.33929  23312697.266
  -2269681.672 6    -81157.07226  25284510.268
  -4374666.095 6  -2464318.89825  26199454.845
  -2311071.126 7  -1802972.53829  22845854.664
 -31727005.170 5  -1370037.31025  25825608.283
 92  8 27 23  0 30.0080000  0  6G 3G23G26G28G17G21
   6591179.831 7   5640430.07727  23636234.605
  -6275562.098 7  -6935195.24929  23311996.141
  -2223857.768 6    -45450.09426  25293235.517
  -4440022.526 6  -2515245.87125  26187020.863
  -2259613.431 7  -1762875.61329  22855645.346
 -31786947.030 5  -1416745.09725  25814203.339
 92  8 27 23  1  0.0080000  0  6G 3G23G26G28G17G21
   6684103.715 7   5712838.26827  23653916.844
  -6278787.093 7  -6937708.18529  23311385.284
  -2177511.089 6     -9335.77026  25302050.825
  -4505268.835 6  -2566087.05425  26174609.065
  -2207859.916 7  -1722548.19329  22865493.948
 -31846722.714 6  -1463323.39625  25802822.138
 92  8 27 23  1 30.0080000  0  6G 3G23G26G28G17G21
   6777480.164 7   5785599.13527  23671680.926
  -6281561.188 7  -6939869.77029  23310856.240
  -2130642.804 6     27184.98326  25310969.950
  -4570396.288 6  -2616835.62725  26162212.287
  -2155813.379 7  -1681992.45529  22875397.652
 -31906335.943 6  -1509775.08525  25791483.148
 92  8 27 23  2  0.0080000  0  6G 3G23G26G28G17G21
   6871303.783 7   5858708.43626  23689540.342
  -6283899.645 7  -6941691.88429  23310410.089
  -2083242.592 6     64120.24726  25319988.757
  -4635407.094 6  -2667493.27425  26149839.133
  -2103475.378 7  -1641209.56729  22885358.676
 -31965791.940 6  -1556104.27525  25780168.501
 92  8 27 23  2 30.0080000  0  6G 3G23G26G28G17G21
   6965577.083 7   5932168.11726  23707480.942
  -6285794.015 7  -6943167.97029  23310052.017
  -2035305.526 6    101473.81526  25329112.370
  -4700291.143 6  -2718052.18625  26137496.887
  -2050854.299 7  -1600206.12929  22895371.234
 -32025102.560 6  -1602320.16625  25768883.533
 92  8 27 23  3  0.0080000  0  6G 3G23G26G28G17G21
   7060323.367 7   6005996.38526  23725508.422
  -6287234.410 7  -6944290.30429  23309776.388
  -1986809.840 6    139262.69826  25338340.582
  -4765000.727 6  -2768475.11525  26125181.024
  -1997936.957 7  -1558971.80229  22905442.642
 -32084229.466 6  -1648392.91125  25757630.434
 92  8 27 23  3 30.0080000  0  6G 3G23G26G28G17G21
   7155545.996 7   6080195.81826  23743627.878
  -6288237.623 7  -6945071.98829  23309583.981
  -1937766.937 6    177477.96926  25347671.712
  -4829528.368 5  -2818756.28625  26112901.884
  -1944719.856 7  -1517503.92629  22915568.912
 -32143140.644 6  -1694297.59225  25746419.365
 92  8 27 23  4  0.0080000  0  6G 3G23G26G28G17G21
   7251244.987 7   6154766.43826  23761839.851
  -6288808.470 7  -6945516.76829  23309477.764
  -1888179.707 6    216117.39426  25357108.279
  -4893881.224 6  -2868901.24325  26100657.491
  -1891205.092 7  -1475804.09029  22925752.352
 -32201823.766 6  -1740024.53625  25735255.903
 92  8 27 23  4 30.0080000  0  6G 3G23G26G28G17G21
   7347432.287 7   6229717.56326  23780144.848
  -6288932.293 7  -6945613.19829  23309454.500
  -1838039.035 6    255188.06826  25366651.722
  -4958062.886 6  -2918912.81025  26088445.565
  -1837388.713 7  -1433869.23529  22935991.044
 -32260259.309 6  -1785558.55325  25724135.641
 92  8 27 23  5  0.0080000  0  6G 3G23G26G28G17G21
   7444114.607 7   6305054.41026  23798542.002
  -6288603.929 7  -6945357.29129  23309513.470
  -1787324.607 6    294705.80126  25376301.742
  -5022073.184 6  -2968790.87925  26076259.032
  -1783252.487 7  -1391685.15129  22946292.962
 -32318427.521 6  -1830884.27425  25713061.308
 92  8 27 23  5 30.0080000  0  6G 3G23G26G28G17G21
   7541293.943 7   6380778.54226  23817032.062
  -6287804.266 7  -6944734.12029  23309666.214
  -1736032.210 6    334673.90326  25386061.845
  -5085906.235 6  -3018530.82325  26064111.171
  -1728791.067 8  -1349247.66929  22956656.517
 -32376341.503 6  -1876011.91525  25702042.586
 92  8 27 23  6  0.0080000  0  6G 3G23G26G28G17G21
   7638954.391 7   6456877.59626  23835619.794
  -6286528.204 7  -6943739.74129  23309908.626
  -1684151.177 6    375100.71726  25395937.219
  -5149569.988 6  -3068138.84125  26051995.419
  -1674016.164 8  -1306565.90829  22967083.659
 -32434040.025 6  -1920971.64425  25691061.009
 92  8 27 23  6 30.0080000  0  6G 3G23G26G28G17G21
   7737088.484 7   6533345.69626  23854294.106
  -6284788.030 7  -6942383.71729  23310242.805
  -1631684.043 6    415984.21126  25405918.209
  -5213052.398 6  -3117605.52725  26039918.579
  -1618921.843 8  -1263635.25629  22977565.363
 -32491541.159 6  -1965777.56425  25680118.734
 92  8 27 23  7  0.0080000  0  6G 3G23G26G28G17G21
   7835695.785 7   6610182.54026  23873054.548
  -6282578.235 7  -6940661.74929  23310662.004
  -1578631.251 6    457324.05726  25416016.718
  -5276336.839 6  -3166917.99225  26027873.158
  -1563494.120 7  -1220444.80329  22988112.841
 -32548848.962 6  -2010432.83125  25669217.291
 92  8 27 23  7 30.0090000  0  6G 3G23G26G28G17G21
   7934788.502 7   6687397.61726  23891909.245
  -6279884.664 7  -6938562.82129  23311172.851
  -1524985.749 6    499125.75926  25426220.754
  -5339408.537 6  -3216064.69025  26015874.715
  -1507722.819 7  -1176986.63529  22998724.594
 -32605954.797 6  -2054930.75625  25658352.932
 92  8 27 23  8  0.0090000  0  6G 3G23G26G28G17G21
   8034359.702 7   6764985.55726  23910861.255
  -6276718.509 7  -6936095.64429  23311778.282
  -1470750.373 6    541387.09726  25436546.176
  -5402267.419 6  -3265045.52325  26003909.668
  -1451616.573 7  -1133267.48029  23009403.112
 -32662829.024 6  -2099248.20025  25647523.859
 92  8 27 23  8 30.0090000  0  6G 3G23G26G28G17G21
   8134388.450 7   6842930.02726  23929894.869
  -6273111.417 7  -6933284.88529  23312462.678
  -1415968.287 6    584074.44626  25446967.711
  -5464929.164 6  -3313872.77925  25991984.284
  -1395203.417 7  -1089309.15229  23020134.962
 -32719478.894 6  -2143390.84025  25636741.253
 92  8 27 23  9  0.0090000  0  6G 3G23G26G28G17G21
   8234855.987 7   6921216.41126  23949014.942
  -6269073.095 7  -6930138.09529  23313232.395
  -1360666.935 6    627166.43526  25457493.244
  -5527421.213 6  -3362567.76825  25980095.924
  -1338516.947 7  -1045137.86929  23030923.054
 -32775911.057 6  -2187363.80025  25626006.735
 92  8 27 23  9 30.0090000  0  6G 3G23G26G28G17G21
   8335756.210 7   6999839.92726  23968214.670
  -6264620.849 7  -6926668.75429  23314080.208
  -1304862.678 6    670650.27526  25468111.653
  -5589746.207 6  -3411132.62025  25968237.873
  -1281579.513 7  -1000771.01129  23041757.703
 -32832137.134 6  -2231176.19425  25615304.803
 92  8 27 23 10  0.0090000  0  6G 3G23G26G28G17G21
   8437100.602 7   7078809.56526  23987501.938
  -6259753.412 7  -6922875.92129  23315007.286
  -1248552.326 6    714528.48726  25478829.204
  -5651892.012 6  -3459557.81725  25956414.448
  -1224381.318 7   -956200.99529  23052641.908
 -32888148.280 6  -2274821.10925  25604646.312
 92  8 27 23 10 30.0090000  0  6G 3G23G26G28G17G21
   8538889.735 7   7158125.77026  24006869.040
  -6254464.512 7  -6918754.65829  23316012.251
  -1191729.211 6    758806.25026  25489639.480
  -5713855.944 6  -3507841.33725  25944617.585
  -1166915.036 7   -911422.03729  23063580.346
 -32943957.335 6  -2318308.55226  25594031.711
 92  8 27 23 11  0.0090000  0  6G 3G23G26G28G17G21
   8641131.475 7   7237794.64026  24026326.950
  -6248743.675 7  -6914296.83729  23317101.517
  -1134378.169 6    803495.38626  25500553.754
  -5775635.035 6  -3555980.79225  25932860.504
  -1109160.585 7   -866418.56029  23074568.339
 -32999553.821 6  -2361630.33826  25583445.559
 92  8 27 23 11 30.0090000  0  6G 3G23G26G28G17G21
   8743839.356 7   7317826.70826  24045871.170
  -6242575.221 7  -6909490.20329  23318275.744
  -1076469.531 6    848619.00226  25511568.129
  -5837203.446 6  -3603956.09525  25921143.476
  -1051091.403 7   -821169.83929  23085621.117
 -33054917.371 6  -2404770.64326  25572912.111
 92  8 27 23 12  0.0090000  0  6G 3G23G26G28G17G21
   8847000.968 7   7398212.36326  24065499.661
  -6235967.410 7  -6904341.22429  23319531.874
  -1018004.407 6    894176.26726  25522701.042
  -5898570.730 6  -3651774.71925  25909465.810
   -992702.883 7   -775672.27529  23096730.196
 -33110043.942 6  -2447726.28326  25562421.504
 92  8 27 23 12 30.0090000  0  6G 3G23G26G28G17G21
   8950604.634 7   7478942.46626  24085218.450
  -6228926.832 7  -6898855.02029  23320872.786
   -959004.601 6    940150.16426  25533927.640
  -5959747.806 6  -3699445.05325  25897823.850
   -933994.110 7   -729925.16029  23107902.112
 -33164942.979 6  -2490504.61926  25551977.094
 92  8 27 23 13  0.0090000  0  6G 3G23G26G28G17G21
   9054658.606 7   7560023.45426  24105021.841
  -6221448.044 7  -6893027.37229  23322293.322
   -899474.888 6    986536.98426  25545254.548
  -6020721.606 6  -3746957.04426  25886224.580
   -874959.308 7   -683924.00429  23119134.466
 -33219613.209 6  -2533104.67326  25541565.482
 92  8 27 23 13 30.0090000  0  6G 3G23G26G28G17G21
   9159153.681 7   7641448.17126  24124901.768
  -6213551.783 7  -6886874.40229  23323797.681
   -839421.387 6   1033331.92026  25556681.138
  -6081504.927 6  -3794320.60126  25874653.550
   -815614.484 7   -637681.25629  23130428.877
 -33274073.156 6  -2575540.90026  25531210.201
 92  8 27 23 14  0.0090000  0  6G 3G23G26G28G17G21
   9264091.211 7   7723217.65926  24144871.303
  -6205238.478 7  -6880396.46129  23325377.047
   -778859.702 6   1080522.88826  25568205.370
  -6142099.471 6  -3841537.02526  25863122.213
   -755965.113 7   -591201.21729  23141783.367
 -33328338.378 6  -2617825.33926  25520879.683
 92  8 27 23 14 30.0090000  0  6G 3G23G26G28G17G21
   9369484.075 7   7805341.92326  24164927.359
  -6196488.270 7  -6873578.07829  23327045.123
   -717776.441 6   1128120.22826  25579832.101
  -6202490.320 6  -3888594.72026  25851634.076
   -696008.191 8   -544481.52829  23153188.011
 -33382406.841 6  -2659956.52326  25510594.013
 92  8 27 23 15  0.0090000  0  6G 3G23G26G28G17G21
   9475332.114 7   7887820.89526  24185071.284
  -6187296.764 7  -6866415.83829  23328794.532
   -656147.421 6   1176142.87426  25591556.324
  -6262661.685 6  -3935481.42526  25840183.983
   -635761.356 8   -497535.92029  23164653.574
 -33436284.587 6  -2701939.03526  25500344.469
 92  8 27 23 15 30.0090000  0  6G 3G23G26G28G17G21
   9581634.242 7   7970653.66826  24205297.351
  -6177660.282 7  -6858906.86429  23330627.103
   -593965.809 6   1224596.08726  25603387.244
  -6322609.666 6  -3982194.04426  25828776.340
   -575229.946 8   -450368.57029  23176173.129
 -33489953.181 6  -2743758.60926  25490125.593
 92  8 27 23 16  0.0090000  0  6G 3G23G26G28G17G21
   9688383.758 7   8053835.09526  24225611.828
  -6167573.397 7  -6851046.92129  23332546.194
   -531242.865 6   1273471.13126  25615322.551
  -6382338.991 6  -4028736.28426  25817412.227
   -514417.746 7   -402982.44329  23187744.489
 -33543407.885 6  -2785411.49026  25479954.594
 92  8 27 23 16 30.0090000  0  6G 3G23G26G28G17G21
   9795559.259 7   8137348.45026  24246005.630
  -6157059.399 7  -6842854.16229  23334549.587
   -467985.541 6   1322762.56226  25627365.184
  -6441873.992 6  -4075127.10326  25806075.935
   -453345.258 8   -355393.45829  23199365.733
 -33596659.301 6  -2826906.00526  25469820.590
 92  8 27 23 17  0.0090000  0  6G 3G23G26G28G17G21
   9903161.027 6   8221193.96526  24266482.953
  -6146121.773 7  -6834331.29629  23336626.969
   -404202.497 6   1372463.65826  25639501.233
  -6501216.786 6  -4121368.13926  25794789.349
   -392009.764 8   -307599.56129  23211038.243
 -33649692.211 6  -2868230.21026  25459724.629
 92  8 27 23 17 30.0090000  0  6G 3G23G26G28G17G21
  10011185.727 6   8305369.01126  24287040.022
  -6134764.349 7  -6825481.32429  23338792.370
   -339902.569 6   1422567.51626  25651734.953
  -6560384.815 6  -4167473.04026  25783525.876
   -330410.554 8   -259600.16429  23222758.869
 -33702488.174 6  -2909369.81926  25449681.762
 92  8 27 23 18  0.0090000  0  6G 3G23G26G28G17G21
  10119630.926 6   8389871.73326  24307679.713
  -6122991.655 7  -6816307.78029  23341030.201
   -275091.399 6   1473069.73726  25664073.332
  -6619371.644 6  -4213436.73626  25772301.737
   -268547.914 8   -211395.51929  23234532.258
 -33755053.421 6  -2950329.65126  25439676.488
 92  8 27 23 18 30.0090000  0  6G 3G23G26G28G17G21
  10228491.170 7   8474697.87826  24328391.295
  -6110811.502 7  -6806816.71829  23343349.515
   -209785.397 6   1523957.58626  25676497.481
  -6678163.748 6  -4259248.66426  25761115.431
   -206434.318 7   -162995.29729  23246351.036
 -33807392.329 6  -2991113.10326  25429719.092
 92  8 27 23 19  0.0090000  0  6G 3G23G26G28G17G21
  10337779.816 7   8559857.82826  24349186.639
  -6098208.120 7  -6796995.86129  23345744.228
   -143981.280 6   1575233.51026  25689021.311
  -6736729.225 6  -4304884.06426  25749967.648
   -144063.879 7   -114394.96029  23258223.837
 -33859477.842 6  -3031699.11226  25419805.975
 92  8 27 23 19 30.0090000  0  6G 3G23G26G28G17G21
  10447494.599 6   8645349.84426  24370065.505
  -6085183.253 7  -6786846.56929  23348224.531
    -77680.541 6   1626896.44826  25701635.858
  -6795056.495 6  -4350333.77226  25738868.372
    -81436.826 8    -65594.64129  23270140.167
 -33911324.299 6  -3072098.82926  25409938.815
 92  8 27 23 20  0.0090000  0  6G 3G23G26G28G17G21
  10557639.291 6   8731176.83926  24391027.773
  -6071738.149 7  -6776369.85629  23350783.649
    -10882.785 6   1678946.64126  25714345.049
  -6853129.775 6  -4395585.60026  25727820.630
    -18544.219 7    -16587.41329  23282107.432
 -33962952.675 6  -3112328.62626  25400120.133
 92  8 27 23 20 30.0090000  0  6G 3G23G26G28G17G21
  10668210.022 6   8817335.81826  24412066.548
  -6057874.698 7  -6765567.13929  23353422.902
     56414.539 6   1731386.14426  25727154.402
  -6910955.183 6  -4440644.28026  25716815.309
     44605.099 7     32619.84429  23294123.384
 -34014369.966 6  -3152393.93926  25390333.498
 92  8 27 23 21  0.0090000  0  6G 3G23G26G28G17G21
  10779205.495 6   8903825.76026  24433186.717
  -6043589.697 7  -6754435.92029  23356139.741
    124231.427 6   1784230.46926  25740057.829
  -6968542.834 6  -4485517.70326  25705861.492
    108015.935 7     82030.89429  23306191.020
 -34065583.677 6  -3192300.62126  25380587.035
 92  8 27 23 21 30.0090000  0  6G 3G23G26G28G17G21
  10890625.385 6   8990646.40526  24454393.226
  -6028877.728 7  -6742972.03329  23358936.595
    192574.236 6   1837484.65326  25753064.355
  -7025904.392 6  -4530214.95426  25694939.603
    171695.785 7    131651.55829  23318307.821
 -34116599.050 6  -3232052.77326  25370881.374
 92  8 27 23 22  0.0090000  0  6G 3G23G26G28G17G21
  11002471.041 6   9077798.82726  24475675.343
  -6013739.345 7  -6731175.84229  23361821.228
    261440.767 6   1891146.90726  25766170.591
  -7083041.584 6  -4574737.34626  25684070.448
    235646.606 7    181483.38229  23330477.626
 -34167391.791 6  -3271631.42526  25361210.519
 92  8 27 23 22 30.0090000  0  6G 3G23G26G28G17G21
  11114740.436 6   9165281.43026  24497039.393
  -5998168.488 7  -6719042.69229  23364781.169
    330815.931 6   1945205.48826  25779371.443
  -7139950.065 6  -4619081.54126  25673240.715
    299878.318 7    231534.06329  23342698.546
 -34217938.562 6  -3311018.42326  25351595.096
 92  8 27 23 23  0.0090000  0  6G 3G23G26G28G17G21
  11227451.811 6   9253108.46826  24518489.273
  -5982144.162 7  -6706556.17129  23367830.598
    400704.392 6   1999664.05026  25792668.977
  -7196608.498 6  -4663230.90626  25662459.729
    364431.986 7    281835.63229  23354983.621
 -34268215.152 6  -3350194.90826  25342029.168
 92  8 27 23 23 30.0090000  0  6G 3G23G26G28G17G21
  11340586.627 6   9341265.42526  24540016.740
  -5965694.671 7  -6693738.36529  23370963.908
    471075.300 6   2054498.53526  25806060.616
  -7253023.694 6  -4707190.72226  25651721.493
    429303.316 7    332384.70929  23367329.345
 -34318223.767 6  -3389162.55026  25332509.978
 92  8 27 23 24  0.0090000  0  6G 3G23G26G28G17G21
  11454140.511 6   9429748.93726  24561624.431
  -5948834.190 7  -6680600.29929  23374170.069
    541925.949 6   2109706.84826  25819542.073
  -7309187.367 6  -4750954.55426  25641035.061
    494496.992 7    383184.97729  23379734.906
 -34367980.521 6  -3427933.94026  25323041.273
 92  8 27 23 24 30.0090000  0  6G 3G23G26G28G17G21
  11568104.152 6   9518551.73526  24583309.409
  -5931567.073 7  -6667145.36629  23377457.233
    613269.375 6   2165299.14426  25833116.975
  -7365106.417 6  -4794527.78026  25630394.107
    559999.378 7    434225.80829  23392199.887
 -34417509.201 6  -3466527.63426  25313615.439
 92  8 27 23 25  0.0090000  0  6G 3G23G26G28G17G21
  11682493.890 6   9607686.58626  24605079.378
  -5913879.943 7  -6653363.17029  23380822.523
    685146.190 6   2221307.06526  25846793.987
  -7420763.729 6  -4837897.03626  25619799.472
    625808.287 7    485505.48529  23404722.218
 -34466796.804 6  -3504933.45226  25304240.629
 92  8 27 23 25 30.0090000  0  6G 3G23G26G28G17G21
  11797331.439 6   9697170.34426  24626929.122
  -5895757.746 7  -6639241.93529  23384270.137
    757598.289 6   2277763.23226  25860585.669
  -7476135.916 6  -4881044.13526  25609265.185
    691926.782 7    537026.39329  23417303.908
 -34515820.530 6  -3543133.66426  25294912.586
 92  8 27 23 26  0.0090000  0  6G 3G23G26G28G17G21
  11912628.167 6   9787011.90126  24648872.011
  -5877174.615 7  -6624761.56629  23387806.908
    830636.895 6   2334676.44626  25874484.647
  -7531215.561 6  -4923963.26926  25598785.550
    758350.623 7    588785.23529  23429941.629
 -34564577.321 6  -3581125.86826  25285630.113
 92  8 27 23 26 30.0090000  0  6G 3G23G26G28G17G21
  12028380.169 6   9877208.25826  24670899.562
  -5858115.531 7  -6609910.31429  23391431.969
    904248.489 6   2392036.14226  25888491.850
  -7586006.154 6  -4966657.16826  25588362.096
    825066.076 7    640771.30429  23442639.189
 -34613054.602 6  -3618900.30226  25276410.865
 92  8 27 23 27  0.0090000  0  6G 3G23G26G28G17G21
  12144596.978 6   9967766.76626  24693010.994
  -5838566.897 7  -6594677.58129  23395155.181
    978417.696 6   2449830.34526  25902605.060
  -7640494.269 6  -5009115.36326  25577986.848
    892080.287 7    692990.17129  23455393.769
 -34661239.823 6  -3656447.10426  25267236.046
 92  8 27 23 27 30.0090000  0  6G 3G23G26G28G17G21
  12261150.920 6  10058588.01226  24715192.488
  -5818656.811 7  -6579163.19329  23398945.367
   1053001.077 6   2507947.30826  25916796.365
  -7694809.990 6  -5051439.22026  25567657.499
    959273.190 7    745348.30129  23468179.138
 -34709257.332 6  -3693863.23726  25258096.813
 92  8 27 23 28  0.0090000  0  6G 3G23G26G28G17G21
  12377927.050 6  10149582.35426  24737417.692
  -5798488.348 7  -6563447.48729  23402780.642
   1127870.271 6   2566286.92826  25931042.923
  -7749062.277 6  -5093713.67626  25557330.218
   1026535.732 7    797760.66129  23480977.847
 -34757221.425 6  -3731237.79126  25248969.482
 92  8 27 23 28 30.0100000  0  6G 3G23G26G28G17G21
  12494990.360 6  10240800.48126  24759695.809
  -5778009.673 7  -6547490.06029  23406677.614
   1203094.756 6   2624903.43026  25945357.203
  -7803177.834 6  -5135881.57926  25547030.579
   1093930.512 7    850276.08629  23493804.438
 -34805066.186 6  -3768519.32526  25239862.207
 92  8 27 23 29  0.0100000  0  6G 3G23G26G28G17G21
  12612439.720 6  10332319.41326  24782043.089
  -5757143.670 7  -6531230.82029  23410647.466
   1278776.817 6   2683876.46726  25959762.350
  -7857026.770 6  -5177841.72426  25536780.914
   1161575.559 7    902986.50529  23506674.618
 -34852677.256 6  -3805618.78026  25230807.396
 92  8 27 23 29 30.0100000  0  6G 3G23G26G28G17G21
  12730347.088 6  10424195.25526  24804480.785
  -5735835.192 7  -6514626.79929  23414704.078
   1354999.852 6   2743271.05826  25974267.119
  -7910531.126 6  -5219533.36026  25526602.361
   1229563.597 7    955964.21329  23519612.791
 -34899988.633 6  -3842484.70626  25221803.699
 92  8 27 23 30  0.0100000  0  6G 3G23G26G28G17G21
  12848742.167 6  10516451.11526  24827008.300
  -5714047.013 7  -6497648.96929  23418847.179
   1431796.719 6   2803112.79126  25988875.676
  -7963646.446 6  -5260921.85626  25516490.121
   1297928.562 7   1009235.61729  23532623.334
 -34946971.302 6  -3879094.48526  25212863.918
 92  8 27 23 30 30.0100000  0  6G 3G23G26G28G17G21
  12967633.708 6  10609093.82726  24849634.386
  -5691773.215 7  -6480292.75329  23423085.315
   1509175.170 6   2863407.69326  26003600.222
  -8016358.791 6  -5301996.33926  25506469.708
   1366683.708 7   1062811.05429  23545704.808
 -34993606.374 6  -3915433.41026  25203990.780
 92  8 27 23 31  0.0100000  0  6G 3G23G26G28G17G21
  13087024.562 6  10702125.61026  24872355.147
  -5668995.429 7  -6462543.81229  23427422.413
   1587132.534 6   2924153.70626  26018437.371
  -8068677.389 6  -5342764.03426  25496512.072
   1435838.579 7   1116697.96929  23558864.078
 -35039898.518 6  -3951505.14226  25195178.681
 92  8 27 23 31 30.0100000  0  6G 3G23G26G28G17G21
  13206912.783 6  10795544.97626  24895166.835
  -5645684.188 7  -6444379.18129  23431858.022
   1665671.372 6   2985352.80426  26033382.804
  -8120619.453 6  -5383238.29526  25486625.756
   1505371.266 7   1170879.28529  23572097.696
 -35085848.035 6  -3987309.89026  25186434.814
 92  8 27 23 32  0.0100000  0  6G 3G23G26G28G17G21
  13327324.666 6  10889372.38626  24918079.822
  -5621795.787 7  -6425764.83929  23436403.745
   1744811.094 6   3047020.13226  26048442.189
  -8172155.563 6  -5423396.24026  25476817.087
   1575281.009 7   1225354.40729  23585403.025
 -35131414.612 6  -4022816.22926  25177764.486
 92  8 27 23 32 30.0100000  0  6G 3G23G26G28G17G21
  13448243.060 6  10983594.47826  24941089.943
  -5597363.808 7  -6406726.91029  23441051.907
   1824536.880 6   3109144.15426  26063614.325
  -8223303.509 6  -5463251.72326  25467083.365
   1645544.717 7   1280105.35929  23598773.979
 -35176613.828 6  -4058036.31126  25169163.081
 92  8 27 23 33  0.0100000  0  6G 3G23G26G28G17G21
  13569650.754 6  11078197.84126  24964193.179
  -5572410.065 7  -6387282.40629  23445802.599
   1904846.604 6   3171723.15926  26078901.282
  -8274076.707 6  -5502815.21226  25457422.223
   1716138.632 7   1335113.60929  23612205.011
 -35221462.227 6  -4092983.04426  25160630.478
 92  8 27 23 33 30.0100000  0  6G 3G23G26G28G17G21
  13691526.042 6  11173165.53326  24987386.652
  -5546975.378 7  -6367463.16129  23450641.789
   1985724.718 6   3234745.08726  26094287.051
  -8324473.438 6  -5542085.32826  25447834.711
   1787041.081 7   1390362.26629  23625696.810
 -35265963.575 6  -4127659.33326  25152163.050
 92  8 27 23 34  0.0100000  0  6G 3G23G26G28G17G21
  13813874.130 6  11268501.66226  25010670.063
  -5521073.486 7  -6347279.85629  23455572.115
   2067180.202 6   3298216.89326  26109791.507
  -8374480.021 6  -5581051.44526  25438317.139
   1858275.590 7   1445869.67529  23639254.535
 -35310123.300 6  -4162069.44026  25143758.728
 92  8 27 23 34 30.0100000  0  6G 3G23G26G28G17G21
  13936696.803 6  11364207.59726  25034040.684
  -5494702.190 7  -6326730.78129  23460588.273
   2149208.465 6   3362135.03426  26125398.073
  -8424096.379 6  -5619713.50226  25428873.677
   1929862.578 7   1501651.73729  23652876.594
 -35353942.938 6  -4196214.53826  25135417.842
 92  8 27 23 35  0.0100000  0  6G 3G23G26G28G17G21
  14059985.385 6  11460276.58525  25057503.461
  -5467845.112 7  -6305803.16029  23465701.713
   2231789.101 6   3426483.61226  26141107.858
  -8473327.171 6  -5658075.09726  25419508.311
   2001807.222 7   1557712.51029  23666563.529
 -35397425.125 6  -4230096.71626  25127146.958
 92  8 27 23 35 30.0100000  0  6G 3G23G26G28G17G21
  14183731.655 6  11556702.20425  25081049.311
  -5440504.918 7  -6284499.10529  23470901.433
   2314891.409 6   3491238.66326  26156928.056
  -8522178.174 6  -5696140.76026  25410205.271
   2074116.623 7   1614057.49629  23680328.410
 -35440586.068 6  -4263728.54226  25118930.726
 92  8 27 23 36  0.0100000  0  6G 3G23G26G28G17G21
  14307937.121 6  11653485.64725  25104685.938
  -5412662.003 7  -6262803.32129  23476203.203
   2398513.294 6   3556398.57426  26172841.549
  -8570663.146 6  -5733921.22927  25400982.726
   2146793.348 7   1670688.70529  23694156.547
 -35483435.071 6  -4297117.29726  25110775.052
 92  8 27 23 36 30.0100000  0  6G 3G23G26G28G17G21
  14432596.012 6  11750622.41625  25128409.834
  -5384310.550 7  -6240711.26429  23481597.638
   2482653.842 6   3621962.63226  26188852.655
  -8618784.516 6  -5771418.32426  25391830.152
   2219822.035 7   1727594.16529  23708052.107
 -35525959.189 6  -4330252.91826  25102684.133
 92  8 27 23 37  0.0100000  0  6G 3G23G26G28G17G21
  14557702.181 6  11848107.68325  25152213.925
  -5355473.956 7  -6218241.17929  23487084.710
   2567326.988 6   3687941.71225  26204965.420
  -8666547.843 6  -5808636.45326  25382738.286
   2293186.156 7   1784761.02629  23722013.202
 -35568167.248 6  -4363142.23526  25094652.693
 92  8 27 23 37 30.0100000  0  6G 3G23G26G28G17G21
  14683243.255 6  11945931.87425  25176103.126
  -5326182.787 7  -6195416.87929  23492658.331
   2652535.557 6   3754338.00525  26221181.584
  -8713957.671 6  -5845579.13326  25373717.411
   2366854.434 7   1842164.87329  23736029.818
 -35610068.411 6  -4395792.43526  25086675.096
 92  8 27 23 38  0.0100000  0  6G 3G23G26G28G17G21
  14809213.348 6  12044090.31025  25200074.382
  -5296450.213 7  -6172248.64029  23498312.357
   2738283.676 6   3821154.71025  26237496.919
  -8761007.061 6  -5882240.94726  25364761.891
   2440804.383 7   1899788.22829  23750104.265
 -35651651.677 6  -4428194.90926  25078766.181
 92  8 27 23 38 30.0100000  0  6G 3G23G26G28G17G21
  14935587.338 6  12142563.50225  25224122.953
  -5266320.637 7  -6148771.02629  23504049.605
   2824538.069 6   3888365.93325  26253908.997
  -8807701.566 6  -5918626.22426  25355877.152
   2515012.117 7   1957612.43329  23764224.220
 -35692929.421 6  -4460359.31526  25070909.520
 92  8 27 23 39  0.0100000  0  6G 3G23G26G28G17G21
  15062349.855 6  12241339.45425  25248246.113
  -5235819.546 7  -6125003.94429  23509850.859
   2911264.826 6   3955945.21925  26270414.940
  -8854048.247 6  -5954740.47426  25347059.026
   2589472.400 7   2015633.42929  23778398.108
 -35733926.093 6  -4492304.72026  25063112.218
 92  8 27 23 39 30.0100000  0  6G 3G23G26G28G17G21
  15189482.081 6  12340403.46225  25272434.538
  -5204953.064 7  -6100952.12429  23515726.371
   2998422.618 6   4023860.36525  26286998.020
  -8900058.488 6  -5990592.56726  25338301.099
   2664181.066 7   2073847.97829  23792614.356
 -35774650.369 6  -4524037.86326  25055359.376
 92  8 27 23 40  0.0100000  0  6G 3G23G26G28G17G21
  15316976.022 6  12439749.34825  25296700.339
  -5173718.938 7  -6076613.82429  23521672.095
   3085999.856 6   4092102.38825  26303663.932
  -8945744.239 6  -6026191.80426  25329604.690
   2739145.194 7   2132261.57129  23806878.151
 -35815112.627 6  -4555566.83226  25047660.585
 92  8 27 23 40 30.0100000  0  6G 3G23G26G28G17G21
  15444836.228 6  12539380.62625  25321028.137
  -5142105.927 7  -6051980.31229  23527686.292
   3174010.235 6   4160681.89625  26320412.078
  -8991108.761 6  -6061540.74426  25320976.633
   2814385.513 7   2190890.39929  23821195.340
 -35855317.538 6  -4586895.25826  25040010.182
 92  8 27 23 41  0.0100000  0  6G 3G23G26G28G17G21
  15573062.586 6  12639297.20725  25345432.742
  -5110084.715 7  -6027028.70029  23533779.843
   3262464.951 6   4229607.63525  26337243.746
  -9036152.685 6  -6096639.85526  25312402.329
   2889903.947 7   2249735.93029  23835565.351
 -35895263.353 6  -4618021.83626  25032407.925
 92  8 27 23 41 30.0100000  0  6G 3G23G26G28G17G21
  15701665.523 6  12739507.25225  25369906.149
  -5077635.846 7  -6001743.85129  23539954.279
   3351400.123 6   4298907.78925  26354165.891
  -9080858.150 6  -6131475.23526  25303896.197
   2965702.808 7   2308799.98229  23849988.457
 -35934927.362 6  -4648928.80226  25024858.401
 92  8 27 23 42  0.0100000  0  6G 3G23G26G28G17G21
  15830632.086 6  12840000.59625  25394443.383
  -5044773.433 7  -5976136.76929  23546207.410
   3440816.177 6   4368582.61325  26371179.862
  -9125228.987 6  -6166049.86326  25295451.014
   3041767.985 7   2368071.54729  23864465.105
 -35974332.723 7  -4679634.22427  25017361.341
 92  8 27 23 42 30.0100000  0  6G 3G23G26G28G17G21
  15959964.296 6  12940778.91225  25419056.973
  -5011497.248 7  -5950207.26029  23552539.716
   3530713.837 6   4438632.75925  26388289.527
  -9169254.555 6  -6200355.44727  25287073.913
   3118099.743 7   2427550.83429  23878991.668
 -36013475.418 7  -4710134.95327  25009912.968
 92  8 27 23 43  0.0100000  0  6G 3G23G26G28G17G21
  16089655.978 6  13041837.30525  25443733.940
  -4977818.622 7  -5923964.16429  23558948.230
   3621072.482 6   4509042.08825  26405484.364
  -9212936.007 6  -6234392.90527  25278761.627
   3194681.822 7   2487225.16929  23893563.230
 -36052358.245 7  -4740433.20327  25002513.340
 92  8 27 23 43 30.0100000  0  6G 3G23G26G28G17G21
  16219716.043 6  13143182.74325  25468485.764
  -4943756.188 7  -5897421.98329  23565430.012
   3711885.274 6   4579805.28925  26422765.510
  -9256271.745 6  -6268160.97027  25270518.474
   3271526.658 7   2547104.26529  23908185.608
 -36090981.664 7  -4770529.33327  24995164.917
 92  8 27 23 44  0.0100000  0  6G 3G23G26G28G17G21
  16350153.686 6  13244822.42525  25493305.222
  -4909301.054 7  -5870573.82129  23571986.893
   3803135.580 6   4650909.42926  26440132.547
  -9299254.116 6  -6301653.69327  25262335.009
   3348646.754 7   2607197.82629  23922865.425
 -36129339.873 7  -4800418.78727  24987863.052
 92  8 27 23 44 30.0100000  0  6G 3G23G26G28G17G21
  16480959.316 6  13346748.84225  25518201.337
  -4874456.006 7  -5843421.82629  23578618.422
   3894804.646 6   4722339.86526  26457574.083
  -9341890.579 6  -6334876.85827  25254222.955
   3426028.187 7   2667495.03829  23937590.121
 -36167423.460 7  -4830094.24227  24980616.469
 92  8 27 23 45  0.0100000  0  6G 3G23G26G28G17G21
  16612113.864 6  13448947.13125  25543155.671
  -4839231.321 7  -5815974.00529  23585321.002
   3986867.868 6   4794077.43126  26475092.515
  -9384191.347 6  -6367838.46427  25246172.389
   3503664.883 7   2727991.14729  23952360.776
 -36205243.634 7  -4859564.44827  24973422.200
 92  8 27 23 45 30.0100000  0  6G 3G23G26G28G17G21
  16743618.437 6  13551418.14825  25568178.748
  -4803614.621 7  -5788220.72129  23592098.890
   4079338.334 6   4866132.33626  26492688.114
  -9426132.819 6  -6400520.09927  25238194.492
   3581567.850 7   2788694.74829  23967185.663
 -36242794.834 7  -4888825.07327  24966277.336
 92  8 27 23 46  0.0100000  0  6G 3G23G26G28G17G21
  16875478.953 6  13654166.56525  25593271.137
  -4767582.922 7  -5760144.04929  23598953.494
   4172240.164 6   4938523.39426  26510367.325
  -9467686.867 6  -6432899.81927  25230283.748
   3659742.549 7   2849610.10329  23982060.855
 -36280063.035 7  -4917865.17227  24959181.698
 92  8 27 23 46 30.0100000  0  6G 3G23G26G28G17G21
  17007696.902 6  13757193.47025  25618433.528
  -4731132.444 7  -5731741.07929  23605892.521
   4265594.065 6   5011266.67225  26528134.645
  -9508844.605 6  -6464970.73827  25222452.479
   3738188.996 7   2910737.20229  23996989.410
 -36317045.631 7  -4946682.73127  24952145.929
 92  8 27 23 47  0.0100000  0  6G 3G23G26G28G17G21
  17140273.170 6  13860499.62325  25643663.701
  -4694267.124 7  -5703014.82929  23612906.345
   4359414.621 6   5084373.61925  26545987.345
  -9549605.497 7  -6496732.41627  25214694.180
   3816907.916 7   2972076.61729  24011969.739
 -36353745.991 7  -4975280.33627  24945160.944
 92  8 27 23 47 30.0100000  0  6G 3G23G26G28G17G21
  17273202.536 6  13964080.87525  25668954.583
  -4656999.827 7  -5673975.38129  23619998.206
   4453694.285 6   5157838.29325  26563926.656
  -9589981.127 6  -6528193.91627  25207013.917
   3895881.484 7   3033614.46229  24026998.605
 -36390165.188 7  -5003658.87527  24938231.691
 92  8 27 23 48  0.0100000  0  6G 3G23G26G28G17G21
  17406492.150 6  14067942.84825  25694322.751
  -4619322.641 7  -5644616.50729  23627165.704
   4548427.087 6   5231656.04425  26581953.147
  -9629983.299 7  -6559364.38927  25199399.039
   3975114.052 7   3095354.09929  24042072.410
 -36426288.693 7  -5031807.01027  24931359.009
 92  8 27 23 48 30.0100000  0  6G 3G23G26G28G17G21
  17540138.545 6  14172082.85525  25719754.115
  -4581240.069 7  -5614941.76729  23634414.625
   4643598.422 6   5305815.54225  26600066.247
  -9669625.207 7  -6590254.13527  25191859.888
   4054604.796 7   3157294.94129  24057197.838
 -36462107.949 7  -5059718.05827  24924537.532
 92  8 27 23 49  0.0100000  0  6G 3G23G26G28G17G21
  17674120.558 6  14276484.37725  25745249.814
  -4542774.147 7  -5584968.32829  23641734.448
   4739162.326 6   5380280.91225  26618247.521
  -9708929.878 7  -6620881.11827  25184376.169
   4134338.914 7   3219425.41729  24072375.521
 -36497638.306 7  -5087403.98727  24917780.749
 92  8 27 23 49 30.0110000  0  6G 3G23G26G28G17G21
  17808440.164 6  14381148.95425  25770811.468
  -4503922.454 7  -5554694.26929  23649129.488
   4835103.957 6   5455040.62825  26636509.558
  -9747890.277 7  -6651239.83227  25176962.601
   4214323.817 7   3281751.30629  24087595.355
 -36532889.331 7  -5114872.26527  24911068.156
 92  8 27 23 50  0.0110000  0  6G 3G23G26G28G17G21
  17943092.218 6  14486072.57525  25796435.090
  -4464681.869 7  -5524117.18529  23656594.770
   4931442.708 6   5530109.78625  26654842.047
  -9786488.973 7  -6681316.70027  25169615.468
   4294558.061 7   3344271.49229  24102864.654
 -36567859.605 7  -5142121.77627  24904414.623
 92  8 27 23 50 30.0110000  0  6G 3G23G26G28G17G21
  18078085.716 6  14591262.24925  25822123.436
  -4425063.891 7  -5493246.02429  23664132.782
   5028194.150 6   5605500.49125  26673251.252
  -9824706.596 7  -6711096.63227  25162344.721
   4375048.398 7   3406991.21329  24118180.331
 -36602546.353 7  -5169150.34927  24897815.441
 92  8 27 23 51  0.0110000  0  6G 3G23G26G28G17G21
  18213410.148 6  14696709.81325  25847873.569
  -4385088.211 7  -5462096.12929  23671739.836
   5125357.124 6   5681211.89725  26691743.590
  -9862544.027 7  -6740580.30127  25155145.025
   4455792.719 7   3469908.88229  24133543.945
 -36636966.600 7  -5195971.26327  24891263.147
 92  8 27 23 51 30.0110000  0  6G 3G23G26G28G17G21
  18349054.440 6  14802406.55425  25873684.771
  -4344764.095 7  -5430674.73529  23679413.053
   5222954.413 6   5757261.72725  26710314.804
  -9899999.977 7  -6769766.70927  25148020.008
   4536784.059 7   3533019.00829  24148957.235
 -36671119.098 7  -5222583.55527  24884764.606
 92  8 27 23 52  0.0110000  0  6G 3G23G26G28G17G21
  18485025.538 6  14908358.01225  25899561.147
  -4304088.234 7  -5398979.25229  23687155.134
   5321004.867 6   5833664.68425  26728965.582
  -9937066.982 7  -6798650.04827  25140961.574
   4618021.325 7   3596320.77129  24164416.842
 -36704981.562 7  -5248969.81227  24878320.387
 92  8 27 23 52 30.0110000  0  6G 3G23G26G28G17G21
  18621335.838 6  15014573.75325  25925497.272
  -4263041.247 7  -5366994.57629  23694968.445
   5419495.404 6   5910410.53525  26747713.104
  -9973719.500 7  -6827210.40827  25133988.762
   4699530.465 7   3659834.36829  24179925.856
 -36738540.061 7  -5275119.23827  24871938.315
 92  8 27 23 53  0.0110000  0  6G 3G23G26G28G17G21
  18757980.806 6  15121050.29325  25951500.850
  -4221597.432 7  -5334700.69529  23702851.307
   5518414.139 6   5987490.06325  26766537.012
 -10009946.801 7  -6855439.43927  25127096.353
   4781309.895 7   3723558.60829  24195488.232
 -36771798.169 7  -5301034.58227  24865607.898
 92  8 27 23 53 30.0110000  0  6G 3G23G26G28G17G21
  18894977.188 6  15227800.66225  25977572.691
  -4179727.422 7  -5302074.71129  23710819.911
   5617764.321 6   6064905.78025  26785441.535
 -10045722.874 7  -6883316.85527  25120288.486
   4863356.480 7   3787491.00029  24211101.843
 -36804742.797 7  -5326705.67627  24859338.308
 92  8 27 23 54  0.0110000  0  6G 3G23G26G28G17G21
  19032324.956 6  15334824.81025  26003707.128
  -4137436.189 7  -5269120.49229  23718868.199
   5717520.229 6   6142637.66025  26804422.474
 -10081046.032 7  -6910841.36327  25113562.283
   4945669.665 7   3851631.13829  24226766.299
 -36837387.361 7  -5352142.93427  24853126.728
 92  8 27 23 54 30.0110000  0  6G 3G23G26G28G17G21
  19170013.120 6  15442114.26325  26029909.649
  -4094726.080 7  -5235839.85929  23726993.984
   5817659.688 6   6220668.42225  26823479.681
 -10115921.057 7  -6938016.66227  25106928.355
   5028240.959 7   3915972.41529  24242479.561
 -36869745.752 7  -5377357.21127  24846968.512
 92  8 27 23 55  0.0110000  0  6G 3G23G26G28G17G21
  19308039.576 6  15549667.25525  26056177.524
  -4051605.371 7  -5202239.32229  23735200.892
   5918197.726 6   6299009.72225  26842621.100
 -10150373.077 7  -6964862.35327  25100370.065
   5111059.462 7   3980506.30329  24258237.821
 -36901809.877 7  -5402342.20827  24840866.566
 92  8 27 23 55 30.0110000  0  6G 3G23G26G28G17G21
  19446404.762 6  15657484.20925  26082502.329
  -4008095.961 7  -5168335.88729  23743478.762
   6019148.449 6   6377672.63826  26861826.494
 -10184419.359 7  -6991391.87827  25093894.159
   5194137.460 7   4045242.39329  24274047.676
 -36933569.546 7  -5427089.94827  24834823.410
 92  8 27 23 56  0.0110000  0  6G 3G23G26G28G17G21
  19585104.785 6  15765562.08525  26108901.454
  -3964205.431 7  -5134135.44829  23751831.759
   6120511.613 6   6456656.89526  26881116.940
 -10218065.882 7  -7017609.92027  25087491.611
   5277488.152 7   4110190.97529  24289908.586
 -36965012.263 7  -5451590.72727  24828842.310
 92  8 27 23 56 30.0110000  0  6G 3G23G26G28G17G21
  19724152.866 6  15873911.17025  26135359.697
  -3919920.222 7  -5099627.48429  23760260.904
   6222312.391 6   6535982.19226  26900483.293
 -10251298.504 7  -7043505.42827  25081168.928
   5361136.112 7   4175371.19229  24305827.296
 -36996110.286 7  -5475822.90827  24822922.189
 92  8 27 23 57  0.0110000  0  6G 3G23G26G28G17G21
  19863559.348 6  15982539.49725  26161885.933
  -3875235.041 7  -5064807.84229  23768762.448
   6324575.157 6   6615667.44826  26919951.186
 -10284095.940 7  -7069061.83927  25074922.602
   5445108.321 7   4240804.08129  24321806.084
 -37026851.124 7  -5499776.77027  24817075.486
 92  8 27 23 57 30.0110000  0  6G 3G23G26G28G17G21
  20003326.468 6  16091448.88325  26188482.801
  -3830147.994 7  -5029675.08329  23777342.538
   6427290.650 6   6695705.51625  26939491.568
 -10316428.057 7  -7094255.66627  25068773.199
   5529409.453 7   4306493.26629  24337845.880
 -37057236.901 7  -5523453.97727  24811292.310
 92  8 27 23 58  0.0110000  0  6G 3G23G26G28G17G21
  20143447.462 6  16200633.99925  26215149.879
  -3784662.805 7  -4994232.07929  23785996.767
   6530443.037 6   6776083.98325  26959120.539
 -10348287.345 7  -7119081.05827  25062712.235
   5614028.623 7   4372430.27529  24353949.622
 -37087276.395 7  -5546861.32627  24805574.368
 92  8 27 23 58 30.0110000  0  6G 3G23G26G28G17G21
  20283906.015 6  16310082.14825  26241879.855
  -3738789.260 7  -4958486.44029  23794727.923
   6634027.249 6   6856798.96525  26978833.212
 -10379678.467 7  -7143541.63527  25056738.811
   5698950.689 7   4438603.28829  24370110.504
 -37116990.926 7  -5570015.45427  24799920.013
 92  8 27 23 59  0.0110000  0  6G 3G23G26G28G17G21
  20424707.087 6  16419797.16725  26268673.026
  -3692512.866 7  -4922426.90029  23803534.446
   6738033.513 6   6937842.79525  26998620.174
 -10410592.798 7  -7167630.71127  25050854.424
   5784168.175 7   4505006.50929  24386326.428
 -37146379.668 7  -5592915.72727  24794326.305
 92  8 27 23 59 30.0110000  0  6G 3G23G26G28G17G21
  20565860.000 6  16529786.35025  26295532.841
  -3645820.286 7  -4886043.05929  23812417.386
   6842454.444 6   7019209.74625  27018491.887
 -10441025.593 7  -7191344.54327  25045063.633
   5869675.418 7   4571635.53729  24402598.832
 -37175426.138 7  -5615549.28427  24788800.291
 92  8 28  0  0  0.0110000  0  6G 3G23G26G28G17G21
  20707360.116 6  16640046.12025  26322456.423
  -3598709.692 7  -4849333.50329  23821385.798
   6947287.173 6   7100897.60425  27038439.148
 -10470976.830 7  -7214683.14427  25039365.568
   5955466.870 7   4638485.99229  24418921.333
 -37204134.902 7  -5637919.69727  24783333.965
 92  8 28  0  0 30.0110000  0  6G 3G23G26G28G17G21
  20849196.920 6  16750568.19325  26349449.286
  -3551180.882 7  -4812298.05529  23830430.027
   7052509.249 6   7182888.85325  27058466.034
 -10500450.258 7  -7237649.42927  25033756.181
   6041523.273 7   4705542.93129  24435299.804
 -37232517.311 7  -5660035.81727  24777935.092
 92  8 28  0  1  0.0110000  0  6G 3G23G26G28G17G21
  20991356.641 6  16861341.92325  26376504.206
  -3503248.364 7  -4774948.05329  23839548.544
   7158098.258 6   7265165.97225  27078554.857
 -10529465.746 7  -7260258.88428  25028234.304
   6127829.559 7   4772794.55429  24451723.034
 -37260579.534 7  -5681902.45528  24772594.500
 92  8 28  0  1 30.0110000  0  6G 3G23G26G28G17G21
  21133848.622 6  16972374.53025  26403613.599
  -3454911.185 7  -4737282.70729  23848747.106
   7264086.922 6   7347754.50525  27098725.493
 -10558003.466 7  -7282496.03328  25022805.542
   6214403.391 7   4840254.68829  24468195.521
 -37288304.922 7  -5703506.62328  24767317.763
 92  8 28  0  2  0.0110000  0  6G 3G23G26G28G17G21
  21276676.788 6  17083669.09925  26430788.916
  -3406165.942 7  -4699299.39929  23858022.954
   7370493.752 6   7430668.94825  27118976.953
 -10586048.811 7  -7304349.52428  25017466.598
   6301255.053 7   4907931.28329  24484724.278
 -37315687.528 7  -5724843.69228  24762109.798
 92  8 28  0  2 30.0110000  0  6G 3G23G26G28G17G21
  21419824.010 6  17195212.32525  26458038.341
  -3357028.276 7  -4661010.28429  23867373.721
   7477310.673 6   7513902.89425  27139301.113
 -10613624.143 7  -7325836.76428  25012220.050
   6388383.984 7   4975823.96129  24501306.578
 -37342735.215 7  -5745919.76228  24756959.783
 92  8 28  0  3  0.0110000  0  6G 3G23G26G28G17G21
  21563278.642 5  17306995.05225  26485331.417
  -3307521.597 7  -4622433.64229  23876798.446
   7584544.861 6   7597461.96125  27159705.347
 -10640737.691 7  -7346964.17428  25007059.273
   6475792.754 7   5043934.67429  24517938.285
 -37369458.143 7  -5766742.78128  24751875.573
 92  8 28  0  3 30.0110000  0  6G 3G23G26G28G17G21
  21707037.729 6  17419015.01025  26512691.526
  -3257656.967 7  -4583578.08229  23886285.439
   7692188.086 6   7681339.81325  27180196.042
 -10667377.398 7  -7367722.35728  25001990.262
   6563477.805 7   5112260.68629  24534625.122
 -37395870.656 7  -5787323.92328  24746848.953
 92  8 28  0  4  0.0110000  0  7G 3G23G26G28G11G17G21
  21851098.200 6  17531269.84025  26540102.959
  -3207431.325 7  -4544441.20529  23895842.672
   7800215.435 6   7765516.96525  27200749.303
 -10693540.177 7  -7388108.92228  24997011.999
   -542895.90915   -424952.20234  28546348.414
   6651437.442 7   5180800.64129  24551361.486
 -37421987.948 7  -5807675.02728  24741881.722
 92  8 28  0  4 30.0110000  0  7G 3G23G26G28G11G17G21
  21995458.960 6  17643758.60225  26567572.222
  -3156849.419 7  -4505026.73029  23905465.441
   7908615.771 6   7849984.74225  27221376.073
 -10719224.832 7  -7408122.91428  24992124.782
   -616110.012 5   -482001.98224  28532409.624
   6739673.897 7   5249556.32129  24568154.361
 -37447811.451 7  -5827797.20628  24736964.226
 92  8 28  0  5  0.0110000  0  7G 3G23G26G28G11G17G21
  22140113.148 6  17756476.08325  26595102.464
  -3105924.209 7  -4465344.73229  23915157.311
   8017372.304 6   7934730.06225  27242072.576
 -10744433.283 7  -7427765.83328  24987326.394
   -689368.372 5   -539086.37324  28518479.527
   6828162.849 7   5318508.74129  24584990.735
 -37473352.207 7  -5847699.04128  24732105.610
 92  8 28  0  5 30.0110000  0  7G 3G23G26G28G11G17G21
  22285067.423 6  17869427.37925  26622684.719
  -3054639.359 7  -4425382.49129  23924915.286
   8126488.339 5   8019755.54125  27262841.897
 -10769155.981 7  -7447030.24428  24982620.312
   -762659.667 5   -596196.36225  28504526.437
   6916915.359 7   5387666.52129  24601879.783
 -37498594.686 7  -5867368.48428  24727300.986
 92  8 28  0  6  0.0110000  0  7G 3G23G26G28G11G17G21
  22430339.304 6  17982626.13625  26650330.620
  -3002973.542 7  -4385123.42129  23934748.149
   8235982.946 5   8105076.02025  27283670.698
 -10793376.189 7  -7465903.09628  24978010.973
   -835962.629 5   -653315.43225  28490580.661
   7005948.376 7   5457042.89829  24618822.104
 -37523500.585 7  -5886775.63028  24722565.194
 92  8 28  0  6 30.0110000  0  7G 3G23G26G28G11G17G21
  22575933.012 6  18096075.68825  26678036.540
  -2950919.136 7  -4344561.52029  23944653.591
   8345874.670 5   8190705.94525  27304584.430
 -10817098.990 7  -7484388.36128  24973498.377
   -909268.823 5   -710437.06225  28476630.149
   7095267.513 7   5526642.22429  24635818.867
 -37548040.867 7  -5905897.91828  24717892.329
 92  8 28  0  7  0.0110000  0  7G 3G23G26G28G11G17G21
  22721848.719 5  18209776.14025  26705806.045
  -2898467.368 7  -4303690.02129  23954637.909
   8456163.348 5   8276645.14825  27325575.118
 -10840317.614 7  -7502480.78328  24969080.635
   -982573.627 5   -767557.60025  28462681.256
   7184882.572 7   5596472.11329  24652873.161
 -37572201.943 7  -5924724.69828  24713295.342
 92  8 28  0  7 30.0110000  0  7G 3G23G26G28G11G17G21
  22868080.299 5  18323722.73825  26733634.970
  -2845617.753 7  -4262508.50329  23964692.589
   8566839.971 5   8362886.64325  27346629.362
 -10863028.593 7  -7520177.62828  24964759.187
  -1055879.160 5   -824678.67225  28448723.039
   7274798.728 7   5666536.63629  24669984.685
 -37595972.036 7  -5943246.81228  24708771.533
 92  8 28  0  8  0.0110000  0  7G 3G23G26G28G11G17G21
  23014619.962 5  18437909.41025  26761511.801
  -2792368.374 7  -4221015.46229  23974826.323
   8677899.818 5   8449426.78425  27367768.478
 -10885231.010 7  -7537478.17928  24960532.953
  -1129188.915 5   -881803.05825  28434784.039
   7365004.935 7   5736827.18329  24687149.272
 -37619349.142 7  -5961462.70128  24704323.333
 92  8 28  0  8 30.0110000  0  7G 3G23G26G28G11G17G21
  23161458.483 5  18552328.92825  26789458.844
  -2738714.508 7  -4179207.24729  23985036.565
   8789338.477 5   8536262.07325  27388973.878
 -10906924.873 7  -7554382.47028  24956407.389
  -1202507.884 5   -938934.61225  28420831.308
   7455506.726 7   5807348.04828  24704369.231
 -37642349.005 7  -5979384.64928  24699946.873
 92  8 28  0  9  0.0110000  0  7G 3G23G26G28G11G17G21
  23308601.592 5  18666985.76425  26817460.568
  -2684658.312 7  -4137085.52429  23995323.973
   8901159.229 5   8623395.13025  27410250.269
 -10928080.282 7  -7570867.18528  24952380.666
  -1275825.897 5   -996065.45125  28406879.896
   7546305.093 7   5878100.00528  24721652.326
 -37664984.763 7  -5997022.84928  24695639.964
 92  8 28  0  9 30.0110000  0  7G 3G23G26G28G11G17G21
  23456050.583 5  18781880.95925  26845515.806
  -2630197.385 7  -4094648.43329  24005683.691
   9013374.270 5   8710835.39325  27431603.256
 -10948700.818 7  -7586935.11628  24948454.584
  -1349137.427 5  -1053191.18425  28392922.879
   7637388.304 7   5949073.92428  24738983.598
 -37687272.485 7  -6014389.87828  24691396.972
 92  8 28  0 10  0.0110000  0  7G 3G23G26G28G11G17G21
  23603822.499 5  18897027.81725  26873639.696
  -2575311.580 7  -4051880.26029  24016131.308
   9126003.714 5   8798598.58325  27453042.554
 -10968776.074 7  -7602578.17528  24944636.428
  -1422421.017 5  -1110295.18625  28378981.420
   7728765.172 7   6020276.67328  24756371.201
 -37709212.344 7  -6031485.82328  24687223.741
 92  8 28  0 10 30.0110000  0  7G 3G23G26G28G11G17G21
  23751914.157 5  19012423.83825  26901818.029
  -2520011.765 7  -4008789.49329  24026653.604
   9239034.291 5   8886674.32225  27474546.427
 -10988311.746 7  -7617800.74528  24940918.072
  -1495675.339 5  -1167376.36325  28365044.189
   7820426.394 7   6091700.99028  24773811.237
 -37730814.756 7  -6048318.83528  24683112.867
 92  8 28  0 11  0.0120000  0  7G 3G23G26G28G11G17G21
  23900318.663 5  19128063.61425  26930061.626
  -2464318.856 7  -3965392.41729  24037250.308
   9352447.515 5   8975048.26925  27496129.925
 -11007328.129 7  -7632618.67528  24937299.217
  -1568910.719 5  -1224442.79825  28351107.527
   7912363.274 7   6163340.10228  24791305.956
 -37752083.895 7  -6064892.13928  24679066.148
 92  8 28  0 11 30.0120000  0  7G 3G23G26G28G11G17G21
  24049025.225 5  19243938.73425  26958356.758
  -2408221.166 7  -3921679.92329  24047925.767
   9466226.090 5   9063706.86125  27517781.926
 -11025827.905 7  -7647034.05529  24933778.874
  -1642118.336 5  -1281487.60425  28337177.190
   8004585.486 7   6235201.54828  24808860.183
 -37772998.848 7  -6081189.46728  24675084.874
 92  8 28  0 12  0.0120000  0  7G 3G23G26G28G11G17G21
  24198033.404 5  19360048.91125  26986711.338
  -2351726.549 7  -3877658.13829  24058677.194
   9580366.336 5   9152647.30225  27539499.042
 -11043797.837 7  -7661036.57829  24930358.662
  -1715302.052 5  -1338513.78625  28323244.456
   8097095.572 7   6307287.31128  24826460.969
 -37793550.425 7  -6097203.64429  24671172.373
 92  8 28  0 12 30.0120000  0  7G 3G23G26G28G11G17G21
  24347324.337 5  19476379.39225  27015114.935
  -2294864.646 7  -3833350.15229  24069495.895
   9694843.138 5   9241849.97125  27561288.977
 -11061233.056 7  -7674622.46029  24927041.968
  -1788476.130 5  -1395532.47225  28309321.105
   8189892.237 7   6379596.38328  24844121.892
 -37813743.814 7  -6112938.71629  24667329.873
 92  8 28  0 13  0.0120000  0  7G 3G23G26G28G11G17G21
  24496893.690 5  19592926.83125  27043585.176
  -2237645.593 7  -3788763.87129  24080387.295
   9809661.432 5   9331318.77725  27583139.620
 -11078124.967 7  -7687784.95329  24923830.951
  -1861640.398 5  -1452543.48325  28295398.923
   8282986.578 7   6452137.42328  24861834.530
 -37833581.517 7  -6128396.62229  24663554.526
 92  8 28  0 13 30.0120000  0  7G 3G23G26G28G11G17G21
  24646729.153 5  19709681.63825  27072094.359
  -2180074.546 7  -3743903.31229  24091339.013
   9924819.749 5   9421052.50025  27605051.540
 -11094472.621 7  -7700523.36929  24920718.446
  -1934802.716 5  -1509553.02925  28281476.951
   8376350.955 7   6524888.85228  24879602.420
 -37853083.070 7  -6143592.59329  24659844.235
 92  8 28  0 14  0.0120000  0  7G 3G23G26G28G11G17G21
  24796833.109 5  19826645.67025  27100662.422
  -2122163.201 7  -3698777.59129  24102361.602
  10040330.976 5   9511061.20625  27627034.362
 -11110273.373 7  -7712835.62629  24917710.838
  -2007956.059 5  -1566555.54025  28267554.619
   8469983.320 7   6597849.14828  24897419.595
 -37872252.285 7  -6158529.61429  24656196.630
 92  8 28  0 14 30.0120000  0  7G 3G23G26G28G11G17G21
  24947197.691 5  19943812.80825  27129275.723
  -2063924.370 7  -3653396.67229  24113445.589
  10156181.945 5   9601334.68625  27649078.701
 -11125547.416 7  -7724737.45529  24914803.810
  -2081103.941 5  -1623553.78225  28253637.594
   8563886.007 7   6671020.07728  24915290.373
 -37891095.944 7  -6173212.94729  24652610.693
 92  8 28  0 15  0.0120000  0  7G 3G23G26G28G11G17G21
  25097812.735 5  20061175.06125  27157933.574
  -2005360.929 7  -3607762.80829  24124588.035
  10272368.215 5   9691869.40325  27671185.877
 -11140320.670 7  -7736249.06929  24911992.806
  -2154251.751 5  -1680552.01725  28239715.862
   8658037.263 7   6744384.68528  24933205.341
 -37909625.673 7  -6187651.65629  24649083.275
 92  8 28  0 15 30.0120000  0  7G 3G23G26G28G11G17G21
  25248679.820 5  20178733.69525  27186646.556
  -1946465.445 7  -3561870.22929  24135794.277
  10388891.934 5   9782667.09025  27693355.499
 -11154608.532 7  -7747382.45329  24909272.489
  -2227393.629 5  -1737545.58325  28225798.986
   8752433.382 7   6817940.08528  24951169.055
 -37927836.402 7  -6201841.80829  24645619.113
 92  8 28  0 16  0.0120000  0  7G 3G23G26G28G11G17G21
  25399792.434 5  20296483.68825  27215400.640
  -1887255.830 7  -3515732.85529  24147061.707
  10505737.879 5   9873715.85625  27715595.483
 -11168421.044 7  -7758145.43529  24906646.457
  -2300531.370 5  -1794535.94225  28211883.699
   8847076.581 7   6891688.03328  24969181.186
 -37945723.957 7  -6215780.11729  24642215.089
 92  8 28  0 16 30.0120000  0  7G 3G23G26G28G11G17G21
  25551142.100 5  20414418.40425  27244204.340
  -1827723.360 7  -3469343.91129  24158390.474
  10622886.921 5   9965000.82225  27737892.696
 -11181747.985 7  -7768530.03029  24904109.704
  -2373668.677 5  -1851525.92725  28197966.914
   8941957.077 7   6965620.87827  24987233.488
 -37963284.750 7  -6229463.82229  24638871.714
 92  8 28  0 17  0.0120000  0  7G 3G23G26G28G11G17G21
  25702732.230 5  20532540.45725  27273047.582
  -1767847.644 7  -3422687.49429  24169785.526
  10740345.092 5  10056526.63625  27760243.573
 -11194570.508 7  -7778521.60029  24901666.785
  -2446798.032 5  -1908509.78025  28184048.839
   9037079.396 7   7039742.16527  25005336.366
 -37980503.589 7  -6242881.04729  24635595.822
 92  8 28  0 17 30.0120000  0  7G 3G23G26G28G11G17G21
  25854558.097 5  20650846.18625  27301936.003
  -1707630.311 7  -3375764.89629  24181244.523
  10858104.645 5  10148287.31225  27782648.533
 -11206866.432 7  -7788102.82129  24899329.963
  -2519919.247 5  -1965487.28825  28170128.036
   9132447.690 7   7114055.09227  25023480.495
 -37997381.034 7  -6256032.30029  24632386.004
 92  8 28  0 18  0.0120000  0  7G 3G23G26G28G11G17G21
  26006620.504 5  20769336.28525  27330872.421
  -1647066.253 7  -3328572.11829  24192771.333
  10976160.962 5  10240279.22125  27805109.883
 -11218604.250 7  -7797249.16029  24897091.772
  -2593026.646 5  -2022454.00225  28156225.221
   9228064.216 7   7188561.47327  25041675.978
 -38013905.753 7  -6268908.66129  24629241.181
 92  8 28  0 18 30.0120000  0  7G 3G23G26G28G11G17G21
  26158932.256 5  20888020.65025  27359857.225
  -1586130.788 7  -3281089.92829  24204366.376
  11094528.682 5  10332513.79225  27827642.134
 -11229762.236 7  -7805943.66829  24894970.291
  -2666103.067 5  -2079396.56825  28142309.275
   9323952.960 7   7263279.96327  25059926.024
 -38030059.255 7  -6281495.77229  24626169.028
 92  8 28  0 19  0.0120000  0  7G 3G23G26G28G11G17G21
  26311496.401 5  21006901.69925  27388899.170
  -1524839.960 7  -3233330.85229  24216025.694
  11213215.031 5  10424996.62525  27850224.421
 -11240357.498 7  -7814199.72029  24892956.135
  -2739140.561 5  -2136308.80125  28128419.410
   9420113.610 7   7338210.32827  25078225.356
 -38045850.107 7  -6293800.29129  24623160.940
 92  8 28  0 19 30.0120000  0  7G 3G23G26G28G11G17G21
  26464303.037 5  21125971.68125  27417969.834
  -1463206.446 7  -3185304.72729  24227755.014
  11332201.611 5  10517713.44325  27872866.726
 -11250398.217 7  -7822023.62429  24891044.299
  -2812144.792 5  -2193195.15025  28114522.561
   9516529.584 7   7413339.64927  25096569.267
 -38061299.785 7  -6305838.97829  24620221.685
 92  8 28  0 20  0.0120000  0  7G 3G23G26G28G11G17G21
  26617347.340 5  21245226.85525  27447094.012
  -1401226.428 7  -3137008.61729  24239550.109
  11451490.929 5  10610666.10625  27895565.602
 -11259892.743 7  -7829421.95229  24889237.120
  -2885115.382 5  -2250055.28825  28100633.296
   9613207.705 7   7488673.23627  25114967.470
 -38076413.481 7  -6317615.85529  24617349.434
 92  8 28  0 20 30.0120000  0  7G 3G23G26G28G11G17G21
  26770625.880 5  21364664.56925  27476268.585
  -1338904.774 7  -3088446.28329  24251411.547
  11571073.250 5  10703847.13625  27918317.661
 -11268846.555 7  -7836398.92929  24887536.127
  -2958051.096 5  -2306888.17225  28086759.651
   9710150.275 7   7564212.89127  25133415.499
 -38091204.553 7  -6329141.33229  24614530.185
 92  8 28  0 21  0.0120000  0  7G 3G23G26G28G11G17G21
  26924132.350 5  21484279.88625  27505472.268
  -1276243.883 7  -3039619.60929  24263333.184
  11690948.970 5  10797256.73525  27941130.458
 -11277246.267 7  -7842944.13629  24885934.786
  -3030953.871 5  -2363695.47125  28072884.297
   9807352.831 7   7639955.11627  25151914.522
 -38105697.623 7  -6340434.59629  24611773.534
 92  8 28  0 21 30.0120000  0  7G 3G23G26G28G11G17G21
  27077873.655 5  21604078.19025  27534733.271
  -1213224.004 7  -2990513.21629  24275326.411
  11811132.569 5  10890906.28425  27964008.999
 -11285058.482 7  -7849031.55429  24884446.436
  -3103811.573 5  -2420467.61225  28059022.133
   9904840.920 7   7715919.85527  25170464.390
 -38119871.670 7  -6351479.28029  24609076.361
 92  8 28  0 22  0.0120000  0  7G 3G23G26G28G11G17G21
  27231847.069 5  21724057.36725  27564027.821
  -1149858.543 7  -2941137.51929  24287385.803
  11931630.256 5  10984800.54625  27986930.891
 -11292294.430 7  -7854669.93229  24883070.209
  -3176622.312 5  -2477203.14025  28045167.854
  10002618.282 7   7792109.98827  25189073.947
 -38133724.044 7  -6362273.29629  24606440.166
 92  8 28  0 22 30.0120000  0  7G 3G23G26G28G11G17G21
  27386068.126 5  21844229.43425  27593376.843
  -1086144.536 7  -2891490.23829  24299510.279
  12052454.160 5  11078949.04025  28009925.152
 -11298942.636 7  -7859850.34029  24881806.734
  -3249365.765 5  -2533886.25325  28031320.051
  10100688.854 7   7868528.60827  25207737.347
 -38147227.840 7  -6372795.72929  24603871.394
 92  8 28  0 23  0.0120000  0  7G 3G23G26G28G11G17G21
  27540540.694 5  21964597.60425  27622766.067
  -1022070.046 7  -2841562.05629  24311702.329
  12173621.943 5  11173365.45325  28032978.863
 -11305009.717 7  -7864577.88229  24880652.593
  -3322032.998 5  -2590510.00825  28017496.980
  10199049.091 7   7945172.92027  25226453.060
 -38160361.979 7  -6383030.07729  24601370.346
 92  8 28  0 23 30.0120000  0  7G 3G23G26G28G11G17G21
  27695270.234 5  22085165.96825  27652205.327
   -957647.983 7  -2791363.03729  24323962.341
  12295125.332 5  11268043.39425  28056104.493
 -11310511.304 7  -7868864.81129  24879605.567
  -3394613.947 6  -2647066.49625  28003683.803
  10297696.121 7   8022040.73827  25245223.366
 -38173096.762 7  -6392953.25429  24598949.731
 92  8 28  0 24  0.0120000  0  7G 3G23G26G28G11G17G21
  27850249.827 5  22205929.16625  27681710.391
   -892887.076 7  -2740899.99529  24336285.430
  12416948.719 5  11362970.64325  28079283.576
 -11315460.354 7  -7872721.18429  24878664.009
  -3467110.655 6  -2703557.35325  27989888.553
  10396611.788 7   8099117.85827  25264043.856
 -38185437.410 7  -6402569.31929  24596598.549
 92  8 28  0 24 30.0120000  0  7G 3G23G26G28G11G17G21
  28005461.246 5  22326872.97325  27711251.280
   -827800.414 7  -2690183.10629  24348669.917
  12539072.064 5  11458131.69825  28102531.402
 -11319853.171 7  -7876144.14029  24877826.179
  -3539536.535 6  -2759993.02125  27976105.205
  10495769.185 7   8176383.36227  25282913.273
 -38197389.888 7  -6411882.90529  24594323.634
 92  8 28  0 25  0.0120000  0  7G 3G23G26G28G11G17G21
  28160901.879 5  22447995.42425  27740826.316
   -762376.522 7  -2639203.43929  24361119.668
  12661490.567 5  11553522.73025  28125820.570
 -11323682.516 7  -7879128.01929  24877099.482
  -3611889.234 6  -2816371.67725  27962340.774
  10595176.346 7   8253843.47727  25301832.636
 -38208965.373 7  -6420902.72929  24592122.468
 92  8 28  0 25 30.0120000  0  7G 3G23G26G28G11G17G21
  28316571.054 5  22569295.92325  27770444.042
   -696621.517 7  -2587965.78729  24373633.635
  12784200.839 5  11649141.06125  28149172.573
 -11326924.311 7  -7881654.07529  24876480.231
  -3684164.359 6  -2872689.88425  27948582.909
  10694848.385 7   8331509.98727  25320800.654
 -38220166.642 7  -6429630.96029  24589990.584
 92  8 28  0 26  0.0120000  0  7G 3G23G26G28G11G17G21
  28472459.524 5  22690767.37425  27800106.107
   -630520.135 7  -2536458.20129  24386211.787
  12907202.987 5  11744986.87825  28172572.154
 -11329569.830 7  -7883715.48329  24875977.959
  -3756366.546 6  -2928951.27225  27934843.630
  10794782.094 7   8409380.39727  25339814.751
 -38231010.390 7  -6438080.59929  24587928.941
 92  8 28  0 26 30.0120000  0  7G 3G23G26G28G11G17G21
  28628552.202 5  22812397.87125  27829817.129
   -564071.041 7  -2484679.68429  24398856.613
  13030486.086 5  11841051.61825  28196039.758
 -11331629.231 7  -7885320.18629  24875586.760
  -3828505.680 6  -2985163.49225  27921116.673
  10894973.405 7   8487451.53427  25358881.042
 -38241526.907 7  -6446275.25129  24585925.008
 92  8 28  0 27  0.0120000  0  7G 3G23G26G28G11G17G21
  28784839.723 5  22934180.22025  27859552.583
   -497275.238 7  -2432631.01329  24411568.233
  13154035.410 5  11937323.79525  28219550.502
 -11333114.079 7  -7886477.19029  24875303.636
  -3900586.354 5  -3041330.20125  27907399.250
  10995426.595 7   8565726.74327  25377995.959
 -38251735.642 7  -6454230.07729  24583985.591
 92  8 28  0 27 30.0120000  0  7G 3G23G26G28G11G17G21
  28941313.142 5  23056107.42025  27889340.052
   -430152.195 7  -2380327.34529  24424340.141
  13277843.394 5  12033797.51725  28243113.110
 -11334035.531 7  -7887195.20629  24875127.807
  -3972612.601 5  -3097454.47425  27893696.935
  11096120.637 6   8644189.60427  25397157.164
 -38261633.747 7  -6461942.86229  24582100.196
 92  8 28  0 28  0.0120000  0  7G 3G23G26G28G11G17G21
  29097965.115 5  23178173.75825  27919139.542
   -362698.118 7  -2327765.72629  24437176.055
  13401900.166 5  12130465.12925  28266719.128
 -11334420.296 7  -7887494.99029  24875054.778
  -4044586.326 5  -3153537.82025  27879996.570
  11197043.063 6   8722830.44827  25416362.528
 -38271233.781 7  -6469423.37129  24580276.019
 92  8 28  0 28 30.0120000  0  7G 3G23G26G28G11G17G21
  29254796.809 5  23300380.13525  27948990.956
   -294924.705 7  -2274955.25529  24450073.157
  13526211.692 5  12227331.25025  28290367.356
 -11334263.167 7  -7887372.53429  24875087.245
  -4116501.996 5  -3209575.88825  27866308.436
  11298191.127 6   8801647.12327  25435611.782
 -38280525.964 7  -6476663.99429  24578504.186
 92  8 28  0 29  0.0120000  0  7G 3G23G26G28G11G17G21
  29411793.180 5  23422714.81625  27978856.101
   -226874.188 7  -2221928.87629  24463022.092
  13650763.949 5  12324384.91225  28314081.569
 -11333572.617 7  -7886834.45029  24875217.565
  -4188369.530 5  -3265576.52125  27852634.482
  11399543.693 7   8880623.12727  25454894.074
 -38289492.233 7  -6483650.66929  24576797.437
 92  8 28  0 29 30.0120000  0  7G 3G23G26G28G11G17G21
  29568944.556 5  23545170.27125  28008768.553
   -158565.416 7  -2168701.27229  24476021.753
  13775544.379 5  12421616.39325  28337819.196
 -11332356.854 7  -7885887.08029  24875447.326
  -4260193.126 5  -3321542.90625  27838965.655
  11501088.177 6   8959748.68227  25474221.154
 -38298134.439 7  -6490384.83229  24575156.343
 92  8 28  0 30  0.0120000  0  7G 3G23G26G28G11G17G21
  29726246.187 5  23667742.81325  28038699.982
    -89996.053 7  -2115270.59229  24489071.179
  13900544.220 5  12519018.80225  28361605.959
 -11330599.098 7  -7884517.38929  24875782.794
  -4331972.738 6  -3377475.00325  27825306.361
  11602834.524 6   9039031.53027  25493578.933
 -38306457.031 7  -6496869.95229  24573570.921
 92  8 28  0 30 30.0120000  0  7G 3G23G26G28G11G17G21
  29883684.968 5  23790422.32125  28068663.938
    -21200.917 7  -2061663.99529  24502160.028
  14025748.212 5  12616580.36125  28385431.215
 -11328285.253 7  -7882714.37029  24876222.320
  -4403716.003 6  -3433378.75625  27811661.937
  11704763.095 6   9118456.38027  25512979.582
 -38314460.352 7  -6503106.28029  24572048.725
 92  8 28  0 31  0.0120000  0  7G 3G23G26G28G11G17G21
  30041268.492 5  23913214.46525  28098649.780
     47825.631 7  -2007877.07229  24515297.053
  14151140.212 5  12714288.40925  28409289.208
 -11325406.587 7  -7880471.24929  24876769.951
  -4475411.175 6  -3489245.05625  27798009.329
  11806897.973 6   9198041.98927  25532413.268
 -38322139.543 7  -6509090.02729  24570586.997
 92  8 28  0 31 30.0120000  0  7G 3G23G26G28G11G17G21
  30199011.142 5  24036130.69425  28128663.981
    117122.909 7  -1953879.18429  24528482.705
  14276731.304 5  12812151.55225  28433195.678
 -11321944.302 7  -7877773.35929  24877428.535
  -4547038.147 6  -3545058.23125  27784380.644
  11909269.864 6   9277812.29727  25551892.583
 -38329499.525 7  -6514825.03729  24569187.176
 92  8 28  0 32  0.0120000  0  7G 3G23G26G28G11G17G21
  30356908.957 5  24159167.77525  28158709.151
    186693.011 7  -1899668.72429  24541723.159
  14402532.900 5  12910178.73925  28457131.708
 -11317887.216 7  -7874611.97629  24878201.759
  -4618595.771 6  -3600817.34025  27770763.500
  12011885.649 6   9357772.62827  25571421.423
 -38336548.236 7  -6520317.52729  24567844.495
 92  8 28  0 32 30.0130000  0  6G 3G23G26G28G11G17
  30514965.452 5  24282328.54925  28188783.971
    256539.357 7  -1845242.98129  24555012.479
  14528547.919 5  13008372.21425  28481117.742
 -11313258.289 7  -7871005.01029  24879082.759
  -4690083.122 6  -3656521.72825  27757161.257
  12114751.932 6   9437928.15227  25590996.282
 92  8 28  0 33  0.0130000  0  7G 3G23G26G28G11G17G21
  30673160.545 5  24405597.29525  28218890.389
    326673.246 7  -1790593.20329  24568360.168
  14654773.941 5  13106730.13425  28505125.542
 -11308077.220 7  -7866967.78929  24880068.357
  -4761500.029 6  -3712171.19325  27743572.894
  12217868.548 6   9518278.77427  25610621.116
   8363341.81317     -5789.95334  24565337.691
 92  8 28  0 33 30.0130000  0  7G 3G23G26G28G11G17G21
  30831495.774 5  24528975.24225  28249014.015
    397111.220 7  -1735706.45429  24581764.039
  14781237.235 5  13205272.90325  28529195.789
 -11302345.736 7  -7862501.68629  24881160.201
  -4832847.125 6  -3767766.27825  27729993.315
  12321225.273 6   9598816.46527  25630286.662
   8357208.797 7    -10568.99526  24564172.907
 92  8 28  0 34  0.0130000  0  7G 3G23G26G28G11G17G21
  30989973.465 5  24652464.17225  28279178.622
    467850.052 7  -1680585.28929  24595225.470
  14907940.609 5  13304002.78725  28553303.629
 -11296067.622 7  -7857609.63029  24882353.945
  -4904117.424 6  -3823301.51025  27716434.901
  12424814.066 6   9679535.00327  25649998.795
   8351403.240 7    -15092.77627  24563065.474
 92  8 28  0 34 30.0130000  0  7G 3G23G26G28G11G17G21
  31148596.766 5  24776066.58325  28309362.506
    538897.799 7  -1625223.40129  24608745.630
  15034881.316 5  13402917.60125  28577464.293
 -11289241.676 7  -7852290.69529  24883651.806
  -4975302.079 6  -3878770.01125  27702882.484
  12528630.185 6   9760430.67427  25669753.589
   8345942.913 7    -19347.55228  24562027.622
 92  8 28  0 35  0.0130000  0  7G 3G23G26G28G11G17G21
  31307368.748 5  24899784.83225  28339576.370
    610254.889 7  -1569620.48229  24622323.980
  15162060.857 5  13502018.49025  28601670.795
 -11281836.089 7  -7846520.10929  24885060.891
  -5046393.008 6  -3934165.48225  27689359.295
  12632669.820 6   9841500.49927  25689549.095
     22750.37017     -2161.84532  24561053.147
 92  8 28  0 35 30.0130000  0  7G 3G23G26G28G11G17G21
  31466292.653 5  25023621.52125  28369816.884
    681909.932 7  -1513785.37129  24635958.121
  15289467.188 5  13601296.13825  28625909.465
 -11273840.638 7  -7840289.84929  24886583.087
  -5117381.981 6  -3989481.47425  27675849.688
  12736930.962 6   9922742.94227  25709397.065
     17997.850 7     -5863.77925  24560148.733
 92  8 28  0 36  0.0130000  0  7G 3G23G26G28G11G17G21
  31625363.392 5  25147572.55725  28400088.428
    753832.017 7  -1457742.19429  24649644.906
  15417084.310 5  13700738.00025  28650190.376
 -11265249.446 7  -7833595.41429  24888216.896
  -5188268.596 6  -4044717.75225  27662362.565
  12841411.010 6  10004155.95227  25729276.572
     13584.330 7     -9302.87127  24559309.224
 92  8 28  0 36 30.0130000  0  7G 3G23G26G28G11G17G21
  31784582.823 5  25271639.49225  28430392.739
    826020.292 7  -1401491.56729  24663382.625
  15544911.363 5  13800343.45825  28674519.583
 -11256046.757 7  -7826424.44529  24889969.513
  -5259045.728 6  -4099868.68125  27648890.491
  12946119.046 6  10085746.61027  25749201.858
      9499.467 7    -12485.84928  24558531.083
 92  8 28  0 37  0.0130000  0  6G 3G23G26G28G11G17
  31943947.453 5  25395819.55225  28460723.221
    898459.289 7  -1345045.59329  24677167.862
  15672946.429 5  13900111.02025  28698887.224
 -11246241.808 7  -7818784.21829  24891835.781
  -5329711.743 6  -4154933.08325  27635444.770
  13051053.927 6  10167514.02927  25769169.505
 92  8 28  0 37 30.0130000  0  7G 3G23G26G28G11G17G21
  32103446.514 5  25520104.39524  28491067.554
    971136.216 7  -1288414.22629  24690994.680
  15801179.864 5  14000033.10925  28723279.148
 -11235856.798 7  -7810691.98329  24893810.244
  -5400272.557 6  -4209915.44425  27622020.033
  13156208.952 6  10249453.00327  25789183.919
     15014.25317     -2515.45231  24557155.005
 92  8 28  0 38  0.0130000  0  7G 3G23G26G28G11G17G21
  32263076.637 5  25644491.37224  28521435.151
   1044067.376 7  -1231584.74229  24704877.169
  15929609.742 5  14100108.29225  28747716.880
 -11224898.939 7  -7802153.39329  24895897.189
  -5470725.620 6  -4264813.92025  27608614.664
  13261583.264 6  10331562.82026  25809230.262
     11866.193 7     -4971.76222  24556557.159
 92  8 28  0 38 30.0130000  0  7G 3G23G26G28G11G17G21
  32422835.179 5  25768978.32624  28551841.541
   1117268.001 7  -1174545.30129  24718804.897
  16058238.056 5  14200338.10225  28772200.510
 -11213373.479 7  -7793172.48829  24898091.730
  -5541068.468 6  -4319626.46725  27595226.232
  13367171.974 6  10413839.73026  25829324.571
      9047.656 7     -7168.44025  24556018.372
 92  8 28  0 39  0.0130000  0  7G 3G23G26G28G11G17G21
  32582719.253 5  25893563.11724  28582265.469
   1190745.150 7  -1117290.38029  24732787.577
  16187069.188 5  14300725.97025  28796712.831
 -11201289.223 7  -7783756.18429  24900390.388
  -5611298.958 6  -4374351.45825  27581859.776
  13472968.836 6  10496278.81626  25849457.823
      6566.666 7     -9101.65127  24555550.996
 92  8 28  0 39 30.0130000  0  7G 3G23G26G28G11G17G21
  32742719.406 5  26018238.38725  28612720.186
   1264509.669 7  -1059811.53529  24746823.650
  16316078.221 5  14401252.41225  28821270.240
 -11188644.557 7  -7773903.17029  24902797.242
  -5681421.151 6  -4428992.03525  27568514.934
  13578965.411 6  10578873.55126  25869627.020
      4434.692 7    -10762.91328  24555139.321
 92  8 28  0 40  0.0130000  0  7G 3G23G26G28G11G17G21
  32902829.685 5  26142999.48425  28643181.318
   1338549.147 7  -1002118.43929  24760914.825
  16445260.309 5  14501913.75825  28845851.722
 -11175434.095 7  -7763609.31129  24905311.572
  -5751435.417 6  -4483548.55925  27555196.355
  13685154.234 6  10661618.06126  25889831.712
      2651.626 7    -12152.28729  24554800.585
 92  8 28  0 40 30.0130000  0  7G 3G23G26G28G11G17G21
  33063051.045 5  26267847.14325  28673669.462
   1412849.863 7   -944221.79029  24775051.868
  16574614.677 5  14602709.31825  28870458.178
 -11161643.427 7  -7752863.31429  24907936.434
  -5821335.791 6  -4538016.30525  27541892.345
  13791540.724 6  10744516.60526  25910079.485
      1195.687 7    -13286.77629  24554526.725
 92  8 28  0 41  0.0130000  0  6G23G26G28G11G17G21
   1487404.885 7   -886126.94729  24789238.647
  16704118.009 5  14703620.95525  28895109.602
 -11147280.941 7  -7741671.75829  24910668.503
  -5891123.916 6  -4592396.61725  27528614.687
  13898130.213 6  10827573.32526  25930361.524
        61.448 7    -14170.55929  24554309.555
 92  8 28  0 41 30.0130000  0  6G23G26G28G11G17G21
   1562188.743 7   -827853.83829  24803471.264
  16833755.135 5  14804636.85925  28919781.952
 -11132339.774 7  -7730029.27329  24913511.645
  -5960810.027 6  -4646697.41025  27515353.457
  14004923.176 6  10910788.59726  25950683.106
      -774.160 7    -14821.67929  24554148.687
 92  8 28  0 42  0.0130000  0  6G23G26G28G11G17G21
   1637207.709 7   -769397.48329  24817747.921
  16963551.543 5  14905776.86625  28944474.477
 -11116810.428 7  -7717928.47029  24916465.140
  -6030384.061 6  -4700910.90225  27502109.856
  14111934.976 6  10994174.37526  25971048.577
     -1324.107 7    -15250.18229  24554047.267
 92  8 28  0 42 30.0130000  0  5G23G28G11G17G21
   1712477.093 7   -710746.04329  24832067.567
 -11100701.705 7  -7705376.20429  24919530.458
  -6099850.560 6  -4755040.57525  27488891.856
  14219173.767 6  11077737.06726  25991455.630
     -1599.228 7    -15464.55529  24553992.345
 92  8 28  0 43  0.0130000  0  5G23G28G11G17G21
   1788001.157 7   -651896.11229  24846440.187
 -11084000.298 7  -7692362.10829  24922708.708
  -6169203.390 6  -4809081.68625  27475695.951
  14326647.927 6  11161483.13626  26011907.261
     -1577.480 7    -15447.56529  24553995.223
 92  8 28  0 43 30.0130000  0  5G23G28G11G17G21
   1863774.351 7   -592852.07229  24860862.423
 -11066701.863 7  -7678882.79929  24925999.679
  -6238439.975 6  -4863032.20825  27462518.124
  14434351.530 6  11245407.97926  26032401.374
     -1258.874 7    -15199.30229  24554059.918
 92  8 28  0 44  0.0130000  0  5G23G28G11G17G21
   1939774.667 7   -533631.04729  24875322.373
 -11048831.489 7  -7664957.82629  24929400.765
  -6307572.904 6  -4916901.95425  27449367.189
  14542261.160 6  11329493.39426  26052938.266
      -644.938 7    -14720.88629  24554176.118
 92  8 28  0 44 30.0130000  0  5G23G28G11G17G21
   2015987.836 7   -474244.15529  24889823.993
 -11030388.950 7  -7650587.00729  24932910.735
  -6376596.730 6  -4970686.71125  27436232.442
  14650370.859 6  11413734.68626  26073510.654
       286.212 7    -13995.31529  24554354.164
 92  8 28  0 45  0.0130000  0  5G23G28G11G17G21
   2092399.754 7   -414702.40829  24904366.656
 -11011373.225 7  -7635769.54729  24936530.249
  -6445499.344 6  -5024377.00225  27423117.331
  14758667.421 6  11498121.60826  26094115.000
      1545.759 7    -13013.82729  24554591.000
 92  8 28  0 45 30.0130000  0  5G23G28G11G17G21
   2169030.200 7   -354990.37429  24918948.321
 -10991786.420 7  -7620507.09429  24940255.770
  -6514267.282 6  -5077962.36225  27410031.210
  14867146.223 6  11582650.51426  26114760.178
      3138.950 7    -11772.36329  24554893.971
 92  8 28  0 46  0.0130000  0  5G23G28G11G17G21
   2245900.204 7   -295091.67029  24933575.975
 -10971626.074 7  -7604797.71929  24944092.064
  -6582887.806 6  -5131432.84425  27396970.212
  14975807.207 6  11667321.39626  26135438.902
      5077.271 7    -10261.97129  24555266.703
 92  8 28  0 46 30.0130000  0  5G23G28G11G17G21
   2323020.343 7   -234998.04829  24948251.355
 -10950902.683 7  -7588649.62229  24948036.853
  -6651360.935 6  -5184788.48725  27383943.720
  15084636.181 6  11752123.16326  26156146.706
      7345.842 7     -8494.23729  24555697.175
 92  8 28  0 47  0.0130000  0  5G23G28G11G17G21
   2400407.469 7   -174696.39929  24962979.109
 -10929598.129 7  -7572048.66529  24952090.827
  -6719673.552 6  -5238019.04325  27370944.060
  15193651.150 6  11837069.86526  26176894.893
      9934.903 7     -6476.77429  24556187.245
 92  8 28  0 47 30.0130000  0  5G23G28G11G17G21
   2478075.214 7   -114176.06529  24977759.447
 -10907691.570 7  -7554978.61829  24956258.632
  -6787815.899 6  -5291116.91926  27357975.188
  15302869.923 6  11922175.36926  26197677.675
     12853.647 7     -4202.41629  24556741.352
 92  8 28  0 48  0.0130000  0  5G23G28G11G17G21
   2556004.554 7    -53451.92129  24992586.612
 -10885182.561 7  -7537439.12229  24960543.116
  -6855787.594 6  -5344081.83226  27345043.550
  15412305.547 6  12007449.86426  26218500.690
     16092.432 7     -1678.67229  24557358.894
 92  8 28  0 48 30.0130000  0  5G23G28G11G17G21
   2634182.646 7      7466.07529  25007465.222
 -10862044.092 7  -7519409.15229  24964944.938
  -6923580.765 6  -5396907.64726  27332141.622
  15521976.823 6  12092907.98126  26239368.343
     19652.419 7      1095.34929  24558039.603
 92  8 28  0 49  0.0130000  0  5G23G28G11G17G21
   2712616.351 7     68583.26429  25022388.231
 -10838259.774 7  -7500875.89729  24969472.524
  -6991184.050 6  -5449585.48026  27319279.536
  15631901.648 6  12178563.65726  26260287.861
     23543.082 7      4127.05829  24558777.992
 92  8 28  0 49 30.0130000  0  5G23G28G11G17G21
   2791306.316 7    129900.10529  25037364.213
 -10813844.955 7  -7481851.36729  24974118.048
  -7058599.365 6  -5502116.82726  27306448.809
  15742066.077 6  12264406.06326  26281252.168
     27770.007 7      7420.77229  24559581.316
 92  8 28  0 50  0.0130000  0  5G23G28G11G17G21
   2870253.330 7    191417.25529  25052386.454
 -10788805.491 7  -7462340.07729  24978882.709
  -7125823.640 6  -5554499.35426  27293654.596
  15852457.957 6  12350425.67826  26302261.323
     32332.691 7     10976.11429  24560450.714
 92  8 28  0 50 30.0130000  0  5G23G28G11G17G21
   2949462.277 7    253138.51329  25067458.819
 -10763147.159 7  -7442346.58529  24983764.560
  -7192860.365 6  -5606735.71526  27280898.367
  15963064.528 6  12436612.58126  26323310.202
     37232.268 7     14793.98829  24561385.497
 92  8 28  0 51  0.0130000  0  5G23G28G11G17G21
   3028932.226 7    315063.15029  25082583.289
 -10736880.935 7  -7421879.38629  24988764.079
  -7259702.357 6  -5658820.35426  27268182.340
  16073880.930 6  12522962.99926  26344395.684
     42485.893 7     18887.72829  24562383.176
 92  8 28  0 51 30.0130000  0  5G23G28G11G17G21
   3108647.778 7    377179.18029  25097751.828
 -10709996.665 7  -7400930.60729  24993877.968
  -7326345.992 6  -5710750.39526  27255496.922
  16184910.240 6  12609479.33826  26365525.716
     48104.887 7     23266.19929  24563450.857
 92  8 28  0 52  0.0130000  0  5G23G28G11G17G21
   3188590.532 7    439472.21829  25112966.175
 -10682490.035 7  -7379496.86929  24999111.565
  -7392786.953 6  -5762522.55426  27242855.244
  16296155.120 6  12696163.61426  26386694.182
     54089.151 7     27929.24929  24564589.858
 92  8 28  0 52 30.0130000  0  5G23G28G11G17G21
   3268746.966 7    501931.77729  25128220.245
 -10654356.592 7  -7357574.70729  25004466.938
  -7459028.072 6  -5814138.94526  27230247.262
  16407628.364 6  12783025.87326  26407907.586
     60423.180 7     32864.87529  24565795.384
 92  8 28  0 53  0.0130000  0  5G23G28G11G17G21
   3349108.958 7    564551.51029  25143509.211
 -10625599.487 7  -7335166.57929  25009940.788
  -7525072.292 6  -5865601.93126  27217682.181
  16519318.848 6  12870057.38426  26429154.657
     67090.208 7     38059.98329  24567065.604
 92  8 28  0 53 30.0130000  0  5G23G28G11G17G21
   3429699.853 7    627349.61329  25158845.274
 -10596206.749 7  -7312263.12329  25015533.836
  -7590906.294 6  -5916901.08826  27205154.304
  16631248.369 6  12957275.18526  26450458.988
     74080.387 7     43506.89129  24568396.053
 92  8 28  0 54  0.0130000  0  5G23G28G11G17G21
   3510540.342 7    690342.18129  25174230.923
 -10566177.923 7  -7288864.04729  25021248.900
  -7656519.711 6  -5968028.39926  27192668.397
  16743419.590 6  13044681.29226  26471803.732
     81388.610 7     49201.61929  24569788.170
 92  8 28  0 54 30.0130000  0  5G23G28G11G17G21
   3591645.655 7    753541.11829  25189664.868
 -10535511.405 7  -7264968.05729  25027082.771
  -7721913.816 6  -6018984.80626  27180225.332
  16855830.059 6  13132273.82526  26493192.604
     89016.386 7     55145.34629  24571237.156
 92  8 28  0 55  0.0130000  0  5G23G28G11G17G21
   3673020.374 7    816949.99529  25205149.508
 -10504231.333 7  -7240593.97429  25033033.292
  -7787087.429 6  -6069769.39626  27167822.918
  16968464.402 6  13220040.82726  26514628.305
     96974.843 7     61346.75929  24572752.787
 92  8 28  0 55 30.0140000  0  5G23G28G11G17G21
   3754656.031 7    880562.17529  25220684.244
 -10472340.682 7  -7215744.10229  25039102.650
  -7852047.735 6  -6120387.78326  27155458.367
  17081317.764 6  13307978.47626  26536104.747
    105273.336 7     67813.11429  24574329.576
 92  8 28  0 56  0.0140000  0  5G23G28G11G17G21
   3836560.510 7    944383.84129  25236267.725
 -10439815.681 7  -7190399.94129  25045291.865
  -7916770.629 6  -6170821.16326  27143143.103
  17194378.551 6  13396077.76826  26557619.143
    113945.894 7     74570.97529  24575978.854
 92  8 28  0 56 30.0140000  0  5G23G28G11G17G21
   3918711.946 7   1008397.94429  25251901.962
 -10406672.005 7  -7164573.70229  25051600.068
  -7981264.928 6  -6221076.41526  27130872.688
  17307636.464 6  13484330.64326  26579169.514
    122991.763 7     81619.71829  24577700.802
 92  8 28  0 57  0.0140000  0  5G23G28G11G17G21
   4001075.212 7   1072577.09829  25267574.992
 -10372915.093 7  -7138269.63029  25058026.060
  -8045535.594 6  -6271157.40626  27118640.376
  17421076.216 6  13572725.19526  26600760.477
    132392.256 7     88944.78029  24579492.871
 92  8 28  0 57 30.0140000  0  5G23G28G11G17G21
   4083635.646 7   1136909.90929  25283286.035
 -10338529.404 7  -7111475.56829  25064567.201
  -8109581.956 6  -6321063.62126  27106453.573
  17534694.477 6  13661258.88926  26622378.511
    142137.872 7     96538.78829  24581345.019
 92  8 28  0 58  0.0140000  0  5G23G28G11G17G21
   4166391.534 7   1201395.00529  25299035.632
 -10303526.906 7  -7084200.90029  25071227.690
  -8173395.428 6  -6370788.38226  27094308.081
  17648503.271 6  13749941.02626  26644033.180
    152219.275 7    104394.46529  24583263.841
 92  8 28  0 58 30.0140000  0  5G23G28G11G17G21
   4249348.941 7   1266037.12929  25314821.204
 -10267923.852 7  -7056458.24229  25078001.561
  -8236967.905 6  -6420325.31826  27082209.506
  17762517.196 6  13838783.02726  26665729.220
    162624.724 7    112502.63529  24585243.730
 92  8 28  0 59  0.0140000  0  5G23G28G11G17G21
   4332510.839 7   1330838.60129  25330643.590
 -10231725.761 7  -7028251.94529  25084890.911
  -8300306.124 6  -6469679.75926  27070158.090
  17876720.677 6  13927772.70926  26687463.364
    173340.897 7    120852.87729  24587282.139
 92  8 28  0 59 30.0140000  0  5G23G28G11G17G21
   4415905.743 7   1395821.63129  25346513.794
 -10194952.697 7  -6999597.60429  25091887.857
  -8363415.638 6  -6518855.95026  27058149.333
  17991113.378 6  14016909.83526  26709231.414
    184359.084 7    129438.47829  24589379.907
 92  8 28  1  0  0.0140000  0  5G23G28G11G17G21
   4499541.461 7   1460992.31929  25362431.634
 -10157613.271 7  -6970501.95329  25098993.658
  -8426292.716 6  -6567851.04426  27046184.166
  18105698.525 6  14106196.93726  26731040.356
    195684.690 7    138263.63629  24591535.384
 92  8 28  1  0 30.0140000  0  5G23G28G11G17G21
   4583437.286 7   1526365.67328  25378394.053
 -10119669.798 7  -6940935.59729  25106212.121
  -8488922.981 6  -6616653.79326  27034263.639
  18220480.510 6  14195637.40226  26752882.875
    207339.457 7    147345.28729  24593753.908
 92  8 28  1  1  0.0140000  0  5G23G28G11G17G21
   4667590.259 7   1591939.43129  25394410.705
 -10081101.370 7  -6910882.29129  25113552.779
  -8551305.178 6  -6665263.28226  27022395.425
  18335470.903 6  14285240.26726  26774760.079
    219327.115 7    156686.31429  24596033.081
 92  8 28  1  1 30.0140000  0  5G23G28G11G17G21
   4751984.650 7   1657701.27228  25410468.249
 -10041907.966 7  -6880341.98129  25121013.954
  -8613438.716 6  -6713678.96326  27010570.681
  18450685.481 6  14375017.82226  26796685.341
    231652.296 7    166290.36429  24598378.507
 92  8 28  1  2  0.0140000  0  5G23G28G11G17G21
   4836584.404 7   1723623.16428  25426566.954
 -10002072.999 7  -6849301.73429  25128594.956
  -8675318.014 6  -6761896.58026  26998794.623
  18566116.273 6  14464963.86126  26818657.160
    244325.169 7    176165.34129  24600793.995
 92  8 28  1  2 30.0140000  0  5G23G28G11G17G21
   4921376.598 7   1789694.98828  25442703.103
  -9961591.458 7  -6817757.67129  25136296.684
  -8736945.728 6  -6809918.11626  26987065.903
  18681763.173 6  14555078.28426  26840659.228
    257332.736 7    186301.12329  24603268.002
 92  8 28  1  3  0.0140000  0  5G23G28G11G17G21
   5006351.954 7   1855909.54928  25458872.979
  -9920482.478 7  -6785724.70429  25144119.258
  -8798316.856 6  -6857739.76526  26975390.186
  18797625.996 6  14645360.98426  26862703.058
    270672.266 7    196695.55729  24605805.715
 92  8 28  1  3 30.0140000  0  5G23G28G11G17G21
   5091502.027 7   1922260.24928  25475076.342
  -9878752.860 7  -6753208.11329  25152060.851
  -8859426.821 6  -6905357.86926  26963760.727
  18913690.319 6  14735800.68125  26884793.385
    284341.984 7    207347.31829  24608406.954
 92  8 28  1  4  0.0140000  0  5G23G28G11G17G21
   5176823.077 7   1988744.15328  25491312.262
  -9836410.592 7  -6720214.15029  25160115.884
  -8920277.806 6  -6952774.18326  26952180.853
  19029936.804 6  14826382.32525  26906916.629
    298327.224 7    218244.90329  24611068.632
 92  8 28  1  4 30.0140000  0  5G23G28G11G17G21
   5262346.877 7   2055386.09028  25507587.994
  -9793458.558 7  -6686745.02629  25168289.756
  -8980857.234 6  -6999978.91626  26940652.095
  19146378.827 6  14917116.34125  26929073.420
    312637.469 7    229395.76529  24613789.698
 92  8 28  1  5  0.0140000  0  5G23G28G11G17G21
   5348087.031 7   2122196.58628  25523903.689
  -9749901.726 7  -6652804.64329  25176578.118
  -9041155.264 6  -7046964.36626  26929182.305
  19263012.120 6  15007999.40925  26951266.037
    327282.880 7    240807.77629  24616576.689
 92  8 28  1  5 30.0140000  0  5G23G28G11G17G21
   5434035.812 7   2189169.68028  25540259.976
  -9705742.314 7  -6618394.73829  25184980.851
  -9101179.512 6  -7093736.45426  26917759.073
  19379833.504 6  15099029.01225  26973495.258
    342256.833 7    252475.79829  24619425.167
 92  8 28  1  6  0.0140000  0  5G23G28G11G17G21
   5520205.728 7   2256315.06628  25556657.784
  -9660981.683 7  -6583516.31429  25193500.952
  -9160928.549 6  -7140294.10526  26906387.376
  19496844.320 6  15190206.27626  26995762.373
    357560.754 7    264400.94229  24622337.920
 92  8 28  1  6 30.0140000  0  5G23G28G11G17G21
   5606610.468 7   2323643.41328  25573097.983
  -9615611.746 7  -6548163.11829  25202134.046
  -9220392.429 6  -7186629.58026  26895071.589
  19614061.396 6  15281544.21026  27018068.340
    373197.519 7    276585.43929  24625311.262
 92  8 28  1  7  0.0140000  0  5G23G28G11G17G21
   5693243.413 7   2391149.60328  25589581.831
  -9569621.872 7  -6512326.86329  25210884.748
  -9279566.189 6  -7232738.96826  26883809.406
  19731485.924 6  15373043.81326  27040414.511
    389163.680 7    289026.60929  24628353.735
 92  8 28  1  7 30.0140000  0  5G23G28G11G17G21
   5780102.393 7   2458831.92028  25606113.257
  -9523000.011 7  -6475998.15629  25219758.065
  -9338443.991 6  -7278617.73726  26872605.502
  19849119.668 6  15464706.43226  27062800.613
    405456.854 7    301722.59029  24631452.630
 92  8 28  1  8  0.0140000  0  5G23G28G11G17G21
   5867175.990 7   2526681.47828  25622683.176
  -9475751.921 7  -6439181.45929  25228748.841
  -9397022.705 6  -7324263.45426  26861457.270
  19966950.443 6  15556522.59126  27085220.952
    422068.245 7    314666.54729  24634611.963
 92  8 28  1  8 30.0140000  0  5G23G28G11G17G21
   5954445.646 7   2594683.79628  25639289.279
  -9427871.719 7  -6401872.22329  25237859.084
  -9455295.290 6  -7369670.64126  26850371.365
  20084975.514 6  15648490.11126  27107682.092
    439012.748 7    327870.05529  24637836.381
 92  8 28  1  9  0.0140000  0  5G23G28G11G17G21
   6041896.446 7   2662827.26828  25655930.489
  -9379364.545 7  -6364074.42929  25247087.955
  -9513261.099 6  -7414838.77626  26839338.553
  20203179.339 6  15740596.96926  27130172.432
    456302.120 7    341342.30629  24641128.012
 92  8 28  1  9 30.0140000  0  5G23G28G11G17G21
   6129505.803 7   2731094.29928  25672602.907
  -9330249.925 7  -6325803.29329  25256435.603
  -9570929.521 6  -7459775.18426  26828366.358
  20321552.006 6  15832835.35626  27152697.998
    473930.095 7    355078.39929  24644481.490
 92  8 28  1 10  0.0140000  0  5G23G28G11G17G21
   6217275.526 7   2799486.29628  25689302.486
  -9280530.995 7  -6287061.26229  25265895.974
  -9628291.940 6  -7504473.12926  26817453.074
  20440101.222 6  15925211.31825  27175261.878
    491914.971 7    369092.60729  24647904.281
 92  8 28  1 10 30.0140000  0  5G23G28G11G17G21
   6305223.736 7   2868017.34528  25706038.790
  -9230207.428 7  -6247848.10629  25275473.324
  -9685343.817 6  -7548929.10426  26806595.130
  20558824.872 6  16017723.22025  27197852.379
    510267.876 7    383393.56729  24651399.951
 92  8 28  1 11  0.0140000  0  5G23G28G11G17G21
   6393374.136 7   2936705.94328  25722814.396
  -9179284.605 7  -6208168.01029  25285164.505
  -9742078.482 6  -7593137.90426  26795796.846
  20677725.440 6  16110372.94725  27220477.685
    528975.871 7    397971.23629  24654956.779
 92  8 28  1 11 30.0140000  0  5G23G28G11G17G21
   6481724.977 7   3005550.76728  25739629.036
  -9127767.904 7  -6168025.10529  25294966.369
  -9798499.512 6  -7637102.30526  26785063.107
  20796804.679 6  16203161.96425  27243139.717
    548015.795 7    412807.53729  24658582.798
 92  8 28  1 12  0.0140000  0  5G23G28G11G17G21
   6570278.411 7   3074553.43228  25756478.031
  -9075657.783 7  -6127419.83529  25304881.855
  -9854605.143 6  -7680820.94326  26774383.570
  20916055.117 6  16296084.34425  27265832.987
    567382.627 7    427898.60629  24662267.278
 92  8 28  1 12 30.0140000  0  5G23G28G11G17G21
   6659030.920 7   3143711.20828  25773369.957
  -9022952.160 7  -6086350.53229  25314914.529
  -9910396.368 7  -7724294.60526  26763768.609
  21035480.326 6  16389142.87625  27288554.347
    587053.905 7    443226.86429  24666010.636
 92  8 28  1 13  0.0140000  0  5G23G28G11G17G21
   6747966.711 7   3213011.83128  25790291.713
  -8969641.828 7  -6044810.02629  25325059.506
  -9965868.307 7  -7767519.46327  26753211.837
  21155105.797 6  16482357.46425  27311321.935
    607026.906 7    458790.24029  24669812.844
 92  8 28  1 13 30.0140000  0  5G23G28G11G17G21
   6837065.148 7   3282439.15528  25807245.935
  -8915715.240 7  -6002789.31529  25335318.644
 -10021014.402 7  -7810490.41927  26742717.722
  21274941.837 6  16575736.17425  27334122.201
    627300.902 7    474588.15329  24673669.164
 92  8 28  1 14  0.0140000  0  5G23G28G11G17G21
   6926330.128 7   3351996.27128  25824230.377
  -8861176.621 7  -5960291.71429  25345697.519
 -10075828.443 7  -7853202.63127  26732288.182
  21394987.768 6  16669278.36325  27356967.466
    647882.620 7    490625.86129  24677587.092
 92  8 28  1 14 30.0140000  0  5G23G28G11G17G21
   7015778.232 7   3421696.08428  25841253.942
  -8806008.540 7  -5917303.59529  25356197.869
 -10130295.565 7  -7895644.50427  26721923.817
  21515260.188 6  16762997.11925  27379857.969
    668785.304 7    506913.66029  24681561.770
 92  8 28  1 15  0.0140000  0  5G23G28G11G17G21
   7105416.724 7   3491544.27928  25858311.623
  -8750210.331 7  -5873824.47129  25366815.379
 -10184405.502 7  -7937808.05827  26711625.826
  21635760.201 6  16856893.19525  27402787.565
    690021.858 7    523461.64629  24685603.332
 92  8 28  1 15 30.0140000  0  5G23G28G11G17G21
   7195242.777 7   3561538.57228  25875407.738
  -8693809.516 7  -5829875.79329  25377547.350
 -10238173.352 7  -7979705.06626  26701392.950
  21756440.205 6  16950929.51125  27425749.958
    711574.593 7    540256.00329  24689703.474
 92  8 28  1 16  0.0140000  0  5G23G28G11G17G21
   7285259.553 7   3631681.50128  25892533.262
  -8636835.558 7  -5785480.51329  25388388.295
 -10291615.583 7  -8021348.34426  26691223.451
  21877280.374 6  17045090.62825  27448748.327
    733439.747 7    557293.77129  24693866.272
 92  8 28  1 16 30.0140000  0  5G23G28G11G17G21
   7375452.156 7   3701961.44528  25909696.171
  -8579295.612 7  -5740644.20029  25399338.934
 -10344737.626 7  -8062742.10027  26681113.669
  21998264.626 6  17139364.06825  27471768.910
    755606.789 7    574566.81229  24698084.952
 92  8 28  1 17  0.0140000  0  5G23G28G11G17G21
   7465815.873 7   3772374.72228  25926894.574
  -8521199.416 7  -5695374.44729  25410392.491
 -10397535.558 7  -8103883.33727  26671063.397
  22119380.657 5  17233740.13425  27494819.143
    778078.983 7    592077.61629  24702358.793
 92  8 28  1 17 30.0140000  0  5G23G28G11G17G21
   7556361.338 7   3842929.61227  25944124.396
  -8462534.698 7  -5649661.68429  25421558.591
 -10449996.880 7  -8144762.26227  26661082.647
  22240630.236 5  17328220.25725  27517894.498
    800871.956 7    609838.37029  24706696.370
 92  8 28  1 18  0.0140000  0  5G23G28G11G17G21
   7647088.430 7   3913626.03927  25961388.335
  -8403272.885 7  -5603483.66329  25432835.704
 -10502108.260 7  -8185368.48427  26651169.319
  22362039.355 5  17422824.71325  27540990.959
    823996.888 7    627857.80429  24711097.053
 92  8 28  1 18 30.0140000  0  5G23G28G11G17G21
   7737995.196 7   3984462.46727  25978687.409
  -8343374.973 7  -5556809.97129  25444232.494
 -10553850.940 7  -8225687.42127  26641323.296
  22483618.005 5  17517561.27725  27564122.885
    847465.766 7    646145.25329  24715562.882
 92  8 28  1 19  0.0150000  0  5G23G28G11G17G21
   7829085.719 7   4055442.09227  25996020.719
  -8282839.842 7  -5509639.74929  25455753.279
 -10605227.084 7  -8265720.76527  26631545.894
  22605373.581 5  17612435.68225  27587297.531
    871287.248 7    664707.43629  24720097.213
 92  8 28  1 19 30.0150000  0  5G23G28G11G17G21
   7920360.429 7   4126565.24427  26013391.294
  -8221656.934 7  -5461964.77829  25467393.560
 -10656224.147 7  -8305458.70027  26621840.893
  22727306.981 5  17707448.67925  27610500.628
    895456.078 7    683540.30629  24724696.749
 92  8 28  1 20  0.0150000  0  5G23G28G11G17G21
   8011821.454 7   4197833.55227  26030796.345
  -8159827.292 7  -5413785.85329  25479161.254
 -10706832.416 7  -8344893.68027  26612209.281
  22849442.848 6  17802619.42925  27633746.775
    919971.505 7    702643.23729  24729362.628
 92  8 28  1 20 30.0150000  0  5G23G28G11G17G21
   8103464.361 7   4269243.60027  26048235.182
  -8097393.577 7  -5365136.23729  25491042.538
 -10757052.529 7  -8384026.23727  26602653.726
  22971766.451 5  17897936.45125  27657020.173
    944833.598 7    722016.30329  24734095.572
 92  8 28  1 21  0.0150000  0  5G23G28G11G17G21
   8195287.946 7   4340794.45227  26065706.937
  -8034386.643 7  -5316039.90729  25503032.198
 -10806884.211 7  -8422856.07127  26593169.042
  23094273.024 5  17993396.04725  27680334.433
    970028.770 7    741648.92429  24738888.234
 92  8 28  1 21 30.0150000  0  5G23G28G11G17G21
   8287280.105 7   4412476.63627  26083212.508
  -7970822.184 7  -5266509.18329  25515127.984
 -10856334.210 7  -8461388.53227  26583764.403
  23216959.852 6  18088996.13025  27703685.028
    995528.679 7    761518.97929  24743739.026
